[[{"header":{"parameterUnit":"m.s-1","parameterCategory":1,"la1":30.6,"la2":29.2853,"lo1":-89.7004,"lo2":-87.6739,"dy":0.0162,"dx":0.0183,"nx":112,"ny":82,"refTime":"2023-06-05T18:00:00:Z","depth":0,"parameterNumber":2,"parameterNumberName":"U-component_of_WINDS"},"data":[0.0,0.0,0.0,0.0,0.0,0.0,0.0,0.0,0.0,0.0,0.0,0.0,0.0,0.0,0.0,0.0,0.0,0.0,0.0,0.0,0.0,0.0,0.0,0.0,0.0,0.0,0.0,0.0,0.0,0.0,0.0,0.0,0.0,0.0,0.0,0.0,0.0,0.0,0.0,0.0,0.0,0.0,0.0,0.0,0.0,0.0,0.0,0.0,0.0,0.0,0.0,0.0,0.0,0.0,0.0,0.0,0.0,0.0,0.0,0.0,0.0,0.0,0.0,0.0,0.0,0.0,0.0,0.0,0.0,0.0,0.0,0.0,0.0,0.0,0.0,0.0,0.0,0.0,0.0,0.0,0.0,0.0,0.0,0.0,0.0,0.0,0.0,0.0,0.0,0.0,-4.3448,-4.6352,-4.9978,-5.2483,-5.3155,-5.2292,-4.9856,-4.5468,0.0,0.0,0.0,0.0,0.0,0.0,0.0,0.0,0.0,0.0,0.0,0.0,0.0,0.0,0.0,0.0,0.0,0.0,0.0,0.0,0.0,0.0,0.0,0.0,0.0,0.0,0.0,0.0,0.0,0.0,0.0,0.0,0.0,0.0,0.0,0.0,0.0,0.0,0.0,0.0,0.0,0.0,0.0,0.0,0.0,0.0,0.0,0.0,0.0,0.0,0.0,0.0,0.0,0.0,0.0,0.0,0.0,0.0,0.0,0.0,0.0,0.0,0.0,0.0,0.0,0.0,0.0,0.0,0.0,0.0,0.0,0.0,0.0,0.0,0.0,0.0,0.0,0.0,0.0,0.0,0.0,0.0,0.0,0.0,0.0,0.0,0.0,0.0,0.0,0.0,0.0,0.0,0.0,0.0,0.0,0.0,0.0,0.0,0.0,0.0,0.0,0.0,0.0,0.0,-4.1234,-4.6402,-4.8525,-5.0088,-5.1366,-4.9445,-4.7561,-4.6111,0.0,0.0,0.0,0.0,0.0,0.0,0.0,0.0,0.0,0.0,0.0,0.0,0.0,0.0,0.0,0.0,0.0,0.0,0.0,0.0,0.0,0.0,0.0,0.0,0.0,0.0,0.0,0.0,0.0,0.0,0.0,0.0,0.0,0.0,0.0,0.0,0.0,0.0,0.0,0.0,0.0,0.0,0.0,0.0,0.0,0.0,0.0,0.0,0.0,0.0,0.0,0.0,0.0,0.0,0.0,0.0,0.0,0.0,0.0,0.0,0.0,0.0,0.0,0.0,0.0,0.0,0.0,0.0,0.0,0.0,0.0,0.0,0.0,0.0,0.0,0.0,0.0,0.0,0.0,0.0,0.0,0.0,0.0,0.0,0.0,0.0,0.0,0.0,0.0,0.0,0.0,0.0,0.0,0.0,0.0,0.0,0.0,0.0,0.0,0.0,0.0,0.0,0.0,-3.9823,-4.2249,-4.6525,-4.7549,-4.8373,-4.9484,-4.8107,-4.6266,-4.4111,-4.2753,0.0,0.0,0.0,0.0,0.0,0.0,0.0,0.0,0.0,0.0,0.0,0.0,0.0,0.0,0.0,0.0,0.0,0.0,0.0,0.0,0.0,0.0,0.0,0.0,0.0,0.0,0.0,0.0,0.0,0.0,0.0,0.0,0.0,0.0,0.0,0.0,0.0,0.0,0.0,0.0,0.0,0.0,0.0,0.0,0.0,0.0,0.0,0.0,0.0,0.0,0.0,0.0,0.0,0.0,0.0,0.0,0.0,0.0,0.0,0.0,0.0,0.0,0.0,0.0,0.0,0.0,0.0,0.0,0.0,0.0,0.0,0.0,0.0,0.0,0.0,0.0,0.0,0.0,0.0,0.0,0.0,0.0,0.0,0.0,0.0,0.0,0.0,0.0,0.0,0.0,0.0,0.0,0.0,0.0,0.0,0.0,0.0,0.0,0.0,0.0,0.0,0.0,-4.2032,-4.3643,-4.6421,-4.673,-4.7101,-4.8019,-4.7248,-4.582,-4.3741,-4.1819,0.0,0.0,0.0,0.0,0.0,0.0,0.0,0.0,0.0,0.0,0.0,0.0,0.0,0.0,0.0,0.0,0.0,0.0,0.0,0.0,0.0,0.0,0.0,0.0,0.0,0.0,0.0,0.0,0.0,0.0,0.0,0.0,0.0,0.0,0.0,0.0,0.0,0.0,0.0,0.0,0.0,0.0,0.0,0.0,0.0,0.0,0.0,0.0,0.0,0.0,0.0,0.0,0.0,0.0,0.0,0.0,0.0,0.0,0.0,0.0,0.0,0.0,0.0,0.0,0.0,0.0,0.0,0.0,0.0,0.0,0.0,0.0,0.0,0.0,0.0,0.0,0.0,0.0,0.0,0.0,0.0,0.0,0.0,0.0,0.0,0.0,0.0,0.0,0.0,0.0,0.0,0.0,0.0,0.0,0.0,0.0,0.0,0.0,0.0,0.0,0.0,0.0,-4.1754,-4.4036,-4.5697,-4.5873,-4.634,-4.7467,-4.6532,-4.6492,-4.7958,-4.3555,0.0,0.0,0.0,0.0,0.0,0.0,0.0,0.0,0.0,0.0,0.0,0.0,0.0,0.0,0.0,0.0,0.0,0.0,0.0,0.0,0.0,0.0,0.0,0.0,0.0,0.0,0.0,0.0,0.0,0.0,0.0,0.0,0.0,0.0,0.0,0.0,0.0,0.0,0.0,0.0,0.0,0.0,0.0,0.0,0.0,0.0,0.0,0.0,0.0,0.0,0.0,0.0,0.0,0.0,0.0,0.0,0.0,0.0,0.0,0.0,0.0,0.0,0.0,0.0,0.0,0.0,0.0,0.0,0.0,0.0,0.0,0.0,0.0,0.0,0.0,0.0,0.0,0.0,0.0,0.0,0.0,0.0,0.0,0.0,0.0,0.0,0.0,0.0,0.0,0.0,0.0,0.0,0.0,0.0,0.0,0.0,0.0,0.0,0.0,0.0,0.0,0.0,-4.0075,-4.211,-4.4427,-4.4917,-4.5323,-4.5937,-4.5789,-4.536,-4.4626,0.0,0.0,0.0,0.0,0.0,0.0,0.0,0.0,0.0,0.0,0.0,0.0,0.0,0.0,0.0,0.0,0.0,0.0,0.0,0.0,0.0,0.0,0.0,0.0,0.0,0.0,0.0,0.0,0.0,0.0,0.0,0.0,0.0,0.0,0.0,0.0,0.0,0.0,0.0,0.0,0.0,0.0,0.0,0.0,0.0,0.0,0.0,0.0,0.0,0.0,0.0,0.0,0.0,0.0,0.0,0.0,0.0,0.0,0.0,0.0,0.0,0.0,0.0,0.0,0.0,0.0,0.0,0.0,0.0,0.0,0.0,0.0,0.0,0.0,0.0,0.0,0.0,0.0,0.0,0.0,0.0,0.0,0.0,0.0,0.0,0.0,0.0,0.0,0.0,0.0,0.0,0.0,0.0,0.0,0.0,0.0,0.0,0.0,0.0,0.0,0.0,0.0,-3.7697,-3.9429,-4.1235,-4.3713,-4.427,-4.4636,-4.4995,-4.4703,-4.3599,-4.153,0.0,0.0,0.0,0.0,0.0,0.0,0.0,0.0,0.0,0.0,0.0,0.0,0.0,0.0,0.0,0.0,0.0,0.0,0.0,0.0,0.0,0.0,0.0,0.0,0.0,0.0,0.0,0.0,0.0,0.0,0.0,0.0,0.0,0.0,0.0,0.0,0.0,0.0,0.0,0.0,0.0,0.0,0.0,0.0,0.0,0.0,0.0,0.0,0.0,0.0,0.0,0.0,0.0,0.0,0.0,0.0,0.0,0.0,0.0,0.0,0.0,0.0,0.0,0.0,0.0,0.0,0.0,0.0,0.0,0.0,0.0,0.0,0.0,0.0,0.0,0.0,0.0,0.0,0.0,0.0,0.0,0.0,0.0,0.0,0.0,0.0,0.0,0.0,0.0,0.0,0.0,0.0,0.0,0.0,0.0,0.0,0.0,0.0,0.0,0.0,0.0,0.0,-3.8266,-4.0102,-4.1843,-4.3769,-4.4109,-4.4381,-4.4863,-4.3171,-4.1415,0.0,0.0,0.0,0.0,0.0,0.0,0.0,0.0,0.0,0.0,0.0,0.0,0.0,0.0,0.0,0.0,0.0,0.0,0.0,0.0,0.0,0.0,0.0,0.0,0.0,0.0,0.0,0.0,0.0,0.0,0.0,0.0,0.0,0.0,0.0,0.0,0.0,0.0,0.0,0.0,0.0,0.0,0.0,0.0,0.0,0.0,0.0,0.0,0.0,0.0,0.0,0.0,0.0,0.0,0.0,0.0,0.0,0.0,0.0,0.0,0.0,0.0,0.0,0.0,0.0,0.0,0.0,0.0,0.0,0.0,0.0,0.0,0.0,0.0,0.0,0.0,0.0,0.0,0.0,0.0,0.0,0.0,0.0,0.0,0.0,0.0,0.0,0.0,0.0,0.0,0.0,0.0,0.0,0.0,0.0,0.0,0.0,0.0,0.0,0.0,0.0,0.0,0.0,-3.7454,-3.9753,-4.153,-4.2673,-4.3553,-4.4132,-4.425,-4.345,-4.1963,-3.9637,0.0,0.0,0.0,0.0,0.0,0.0,0.0,0.0,0.0,0.0,0.0,0.0,0.0,0.0,0.0,0.0,0.0,0.0,0.0,0.0,0.0,0.0,0.0,0.0,0.0,0.0,0.0,0.0,0.0,0.0,0.0,0.0,0.0,0.0,0.0,0.0,0.0,0.0,0.0,0.0,0.0,0.0,0.0,0.0,0.0,0.0,0.0,0.0,0.0,0.0,0.0,0.0,0.0,0.0,0.0,0.0,0.0,0.0,0.0,0.0,0.0,0.0,0.0,0.0,0.0,0.0,0.0,0.0,0.0,0.0,0.0,0.0,0.0,0.0,0.0,0.0,0.0,0.0,0.0,0.0,0.0,0.0,0.0,0.0,0.0,0.0,0.0,0.0,0.0,0.0,0.0,0.0,0.0,0.0,0.0,0.0,0.0,0.0,0.0,0.0,0.0,0.0,-3.7069,-3.9331,-4.1056,-4.2176,-4.3199,-4.3804,-4.3804,-4.2757,-4.111,-3.8794,0.0,0.0,0.0,0.0,0.0,0.0,0.0,0.0,0.0,0.0,0.0,0.0,0.0,0.0,0.0,0.0,0.0,0.0,0.0,0.0,0.0,0.0,0.0,0.0,0.0,0.0,0.0,0.0,0.0,0.0,0.0,0.0,0.0,0.0,0.0,0.0,0.0,0.0,0.0,0.0,0.0,0.0,0.0,0.0,0.0,0.0,0.0,0.0,0.0,0.0,0.0,0.0,0.0,0.0,0.0,0.0,0.0,0.0,0.0,0.0,0.0,0.0,0.0,0.0,0.0,0.0,0.0,0.0,0.0,0.0,0.0,0.0,0.0,0.0,0.0,0.0,0.0,0.0,0.0,0.0,0.0,0.0,0.0,0.0,0.0,0.0,0.0,0.0,0.0,0.0,0.0,0.0,0.0,0.0,0.0,0.0,0.0,0.0,0.0,0.0,0.0,0.0,-3.6953,-3.8854,-4.0487,-4.2029,-4.291,-4.3406,-4.3479,-4.1577,-3.958,-3.7716,0.0,0.0,0.0,0.0,0.0,0.0,0.0,0.0,0.0,0.0,0.0,0.0,0.0,0.0,0.0,0.0,0.0,0.0,0.0,0.0,0.0,0.0,0.0,0.0,0.0,0.0,0.0,0.0,0.0,0.0,0.0,0.0,0.0,0.0,0.0,0.0,0.0,0.0,0.0,0.0,0.0,0.0,0.0,0.0,0.0,0.0,0.0,0.0,0.0,0.0,0.0,0.0,0.0,0.0,0.0,0.0,0.0,0.0,0.0,0.0,-4.0939,-4.0147,0.0,0.0,0.0,0.0,0.0,0.0,0.0,0.0,0.0,0.0,0.0,0.0,0.0,0.0,0.0,0.0,0.0,0.0,0.0,0.0,0.0,0.0,0.0,0.0,0.0,0.0,0.0,0.0,0.0,0.0,0.0,0.0,0.0,0.0,0.0,0.0,0.0,0.0,0.0,0.0,-3.6329,-3.8505,-4.0267,-4.1258,-4.2084,-4.28,-4.3442,-4.1904,-4.0217,-3.856,-3.4947,0.0,0.0,0.0,0.0,0.0,0.0,0.0,0.0,0.0,0.0,0.0,0.0,0.0,0.0,0.0,0.0,0.0,0.0,0.0,0.0,0.0,0.0,0.0,0.0,0.0,0.0,0.0,0.0,0.0,0.0,0.0,0.0,0.0,0.0,0.0,0.0,0.0,0.0,0.0,0.0,0.0,0.0,0.0,0.0,0.0,0.0,0.0,0.0,0.0,0.0,0.0,0.0,0.0,0.0,0.0,0.0,0.0,0.0,0.0,-4.2745,-4.2271,0.0,0.0,0.0,0.0,0.0,0.0,0.0,0.0,0.0,0.0,0.0,0.0,0.0,0.0,0.0,0.0,0.0,0.0,0.0,0.0,0.0,0.0,0.0,0.0,0.0,0.0,0.0,0.0,0.0,0.0,0.0,0.0,0.0,0.0,0.0,0.0,0.0,0.0,0.0,0.0,-3.6109,-3.8065,-3.9625,-4.0451,-4.124,-4.2047,-4.2837,-4.1809,-4.0414,-3.8799,-3.6204,0.0,0.0,0.0,0.0,0.0,0.0,0.0,0.0,0.0,0.0,0.0,0.0,0.0,0.0,0.0,0.0,0.0,0.0,0.0,0.0,0.0,0.0,0.0,0.0,0.0,0.0,0.0,0.0,0.0,0.0,0.0,0.0,0.0,0.0,0.0,0.0,0.0,0.0,0.0,0.0,0.0,0.0,0.0,0.0,0.0,0.0,0.0,0.0,0.0,0.0,0.0,0.0,0.0,-4.6377,-4.6397,-4.5762,-4.6175,-4.6092,-4.5642,-4.4883,-4.4799,-4.4982,-4.3447,0.0,0.0,0.0,0.0,0.0,0.0,0.0,0.0,0.0,0.0,0.0,0.0,0.0,0.0,0.0,0.0,0.0,0.0,0.0,0.0,0.0,0.0,0.0,0.0,-3.7861,-3.7767,-3.5814,0.0,0.0,0.0,0.0,0.0,0.0,0.0,0.0,0.0,0.0,0.0,-3.5996,-3.7589,-3.8944,-4.001,-4.0708,-4.1317,-4.1904,-4.1452,-4.0394,-3.8606,-3.7698,-3.5,0.0,0.0,0.0,0.0,0.0,0.0,0.0,0.0,0.0,0.0,0.0,0.0,0.0,0.0,0.0,0.0,0.0,0.0,0.0,0.0,0.0,0.0,0.0,0.0,0.0,0.0,0.0,0.0,0.0,0.0,0.0,0.0,-3.8756,-4.051,0.0,0.0,0.0,0.0,0.0,0.0,0.0,0.0,0.0,0.0,0.0,0.0,0.0,-4.4077,-4.4688,-4.8138,-4.9517,-4.8875,-4.9785,-4.9848,-4.9028,-4.7955,-4.7767,-4.8266,-4.7649,0.0,-4.4982,-4.3447,0.0,0.0,0.0,0.0,0.0,0.0,0.0,0.0,0.0,0.0,0.0,0.0,0.0,0.0,0.0,0.0,0.0,0.0,0.0,0.0,0.0,0.0,-3.9528,-3.8901,-3.9308,-3.9545,0.0,-3.6766,-3.4961,-3.3865,-3.3089,0.0,0.0,0.0,0.0,0.0,0.0,0.0,-3.5593,-3.7036,-3.8746,-4.0749,-4.1056,-4.0954,-4.0583,-4.1034,-4.0293,-3.7827,-3.6667,-3.5244,-3.3235,-3.1951,0.0,0.0,0.0,0.0,0.0,0.0,0.0,0.0,0.0,0.0,0.0,0.0,0.0,0.0,0.0,0.0,0.0,0.0,0.0,0.0,0.0,0.0,0.0,0.0,0.0,0.0,0.0,0.0,0.0,-3.7094,-4.0294,-4.0544,-4.1036,-4.0557,0.0,0.0,0.0,0.0,0.0,0.0,0.0,0.0,0.0,-4.3673,-4.4923,-4.6112,-4.7275,-4.9199,-5.0417,-5.0894,-5.0903,-5.0771,-5.0459,-4.9449,-4.8953,-4.8924,-4.8616,-4.7792,-4.6559,-4.5043,-4.389,-4.2723,0.0,0.0,0.0,0.0,-3.8768,-3.9242,-4.0087,-4.0104,-3.9817,-4.0138,0.0,0.0,0.0,0.0,0.0,0.0,0.0,0.0,0.0,0.0,-3.9495,-3.958,-3.9834,-3.9986,-3.9681,-3.8418,-3.6973,0.0,-3.537,-3.4913,-3.401,-3.3161,0.0,0.0,0.0,-3.4888,-3.513,-3.6524,-3.7846,-3.8815,-3.9104,-3.9337,-3.9713,-3.9968,-3.9935,-3.9622,-3.8401,-3.7031,-3.549,-3.3687,-3.3226,0.0,0.0,0.0,0.0,0.0,0.0,0.0,0.0,0.0,0.0,0.0,0.0,0.0,0.0,0.0,0.0,0.0,0.0,0.0,0.0,0.0,0.0,0.0,0.0,0.0,0.0,0.0,0.0,-3.8861,-4.1395,-4.0721,-4.2038,-4.182,0.0,0.0,0.0,0.0,0.0,0.0,-4.4164,-4.4468,-4.5263,-4.6786,-4.7447,-4.8415,-4.9696,-5.0156,-5.0911,-5.2079,-5.1131,-5.0705,-5.077,-5.009,-4.9359,-4.8731,-4.8934,-4.8477,-4.7547,-4.643,-4.5432,-4.435,-4.1914,-4.117,-4.1322,-4.0037,-3.9901,-4.0527,-4.1627,-4.1542,-4.0984,-4.1356,-4.0849,-3.9868,-3.8582,0.0,0.0,0.0,0.0,-3.8582,-3.914,-3.9276,-3.9411,-3.9952,-4.007,-4.002,-3.9834,-3.9377,-3.8667,0.0,-3.7297,-3.6724,-3.5057,-3.4081,0.0,-3.3089,-3.3824,-3.4546,-3.4903,-3.6136,-3.7147,-3.7456,-3.7754,-3.8263,-3.9204,-3.9294,-3.9736,-4.0732,-3.9645,-3.8392,-3.7071,-3.5244,-3.4481,-3.4934,0.0,0.0,0.0,0.0,0.0,0.0,0.0,0.0,0.0,0.0,0.0,0.0,0.0,0.0,0.0,0.0,0.0,0.0,0.0,0.0,0.0,0.0,0.0,0.0,0.0,0.0,0.0,0.0,0.0,-4.2155,-4.3685,0.0,0.0,0.0,0.0,-4.172,-4.2538,-4.4062,-4.6473,-4.731,-4.8359,-4.9813,-5.0651,-5.1466,-5.2212,-5.2197,-5.2218,-5.2254,-5.0742,-5.0038,-5.0016,-4.9359,-4.8612,-4.8003,-4.8714,-4.8189,-4.6836,-4.6769,-4.5889,-4.4485,-4.3606,-4.2828,-4.2151,-4.1373,-4.1119,-4.117,-4.1238,-4.0764,-4.0375,-4.1779,-4.1255,-3.9935,-3.9174,-3.8937,0.0,0.0,-3.9428,-3.9969,-4.002,-4.002,-4.002,-4.007,-4.007,-3.9884,-3.9191,-3.9022,-3.8971,0.0,-3.7784,-3.6785,-3.6666,0.0,-3.3643,-3.4304,-3.388,-3.3919,-3.5117,-3.5954,-3.694,-3.8217,-3.8362,-3.8606,-3.9239,-3.959,-3.9725,-3.9697,-3.9007,-3.8413,-3.7853,-3.6323,-3.5518,-3.5545,-2.9708,0.0,0.0,0.0,0.0,0.0,0.0,0.0,0.0,0.0,0.0,0.0,0.0,0.0,0.0,0.0,0.0,0.0,0.0,0.0,0.0,0.0,0.0,0.0,0.0,0.0,0.0,0.0,0.0,-4.3206,-4.4957,0.0,-4.2865,-4.2354,-4.2663,-4.3746,-4.5098,-4.6946,-4.9227,-5.0236,-5.1217,-5.2266,-5.1622,-5.1569,-5.2337,-5.1342,-5.1084,-5.1511,-5.0474,-4.9976,-4.9959,-4.8822,-4.8173,-4.7902,-4.7682,-4.7276,-4.6786,-4.6786,-4.6194,-4.5179,-4.391,-4.2963,-4.2202,-4.1474,-4.0899,-4.0544,-4.1035,-4.0713,-4.0172,-4.0696,-4.051,-4.002,-3.9766,-3.9698,-3.9698,-3.9698,-3.9884,-3.9969,-3.9512,-3.9377,-3.9259,-3.8802,-3.8684,-3.8616,-3.8345,-3.8271,-3.8101,-3.7669,-3.7177,-3.662,-3.6129,-3.4962,-3.4032,-3.3829,-3.3964,-3.427,-3.4738,-3.5437,-3.6087,-3.6543,-3.6577,-3.6705,-3.6928,-3.7621,-3.8193,-3.8478,-3.8559,-3.8184,-3.7234,-3.5239,-3.4614,-3.5588,-3.1025,-2.848,0.0,0.0,0.0,0.0,0.0,0.0,0.0,0.0,0.0,0.0,0.0,0.0,0.0,0.0,0.0,0.0,0.0,0.0,0.0,0.0,0.0,0.0,0.0,0.0,0.0,-4.1244,-4.363,-4.3298,-4.5563,-4.6297,-4.4359,-4.439,-4.511,-4.6391,-4.7548,-4.9169,-5.1372,-5.2234,-5.2824,-5.3095,-5.1877,-5.132,-5.1554,-5.0299,-4.9879,-5.0369,-4.9879,-4.9543,-4.9286,-4.8345,-4.7648,-4.7158,-4.6904,-4.6515,-4.6058,-4.6329,-4.5991,-4.5246,-4.4485,-4.3572,-4.2591,-4.1844,-4.1084,-4.0493,-4.0747,-4.0663,-4.0409,-4.0155,-4.007,-4.007,-4.007,-4.007,-4.007,-4.007,-4.007,-3.9969,-3.9478,-3.9205,-3.888,-3.8362,-3.8091,-3.7773,-3.7246,-3.712,-3.6795,-3.5887,-3.629,-3.6488,-3.5459,-3.4864,-3.4432,-3.4214,-3.4358,-3.4675,-3.5199,-3.547,-3.5622,-3.5622,-3.5593,-3.5602,-3.5602,-3.6525,-3.7244,-3.7607,-3.8257,-3.7945,-3.6434,-3.4952,-3.4117,-3.4117,-3.1557,-2.9901,-2.9221,0.0,0.0,0.0,0.0,0.0,0.0,0.0,0.0,0.0,0.0,0.0,0.0,0.0,0.0,0.0,0.0,0.0,0.0,0.0,0.0,0.0,0.0,0.0,-3.8355,-4.1354,-4.3225,-4.2611,-4.5379,-4.6845,-4.5574,-4.6022,-4.7286,-4.9588,-4.9505,-5.0402,-5.2729,-5.3255,-5.3129,-5.2334,-5.1589,-5.0862,-5.0101,-4.9373,-4.9001,-4.9001,-4.9001,-4.8646,-4.7953,-4.7902,-4.7107,-4.5771,-4.643,-4.5906,-4.4637,-4.5365,-4.5229,-4.4621,-4.5348,-4.4705,-4.3263,-4.253,-4.1808,-4.1068,-4.0341,-4.0561,-4.1052,-4.0307,-4.007,-4.007,-4.007,-4.007,-4.007,-4.007,-4.007,-4.007,-4.002,-3.9504,-3.8948,-3.8933,-3.8345,-3.741,-3.596,-3.5663,-3.525,-3.3829,-3.5246,-3.6222,-3.4915,-3.4592,-3.4823,-3.5548,-3.4948,0.0,-3.6506,-3.6033,-3.5577,-3.5549,-3.558,-3.5589,-3.5605,-3.6499,-3.7017,-3.6992,-3.7908,-3.7558,-3.5656,-3.5545,-3.4151,-3.1247,-3.1201,-3.0714,-2.9763,0.0,0.0,0.0,0.0,0.0,0.0,0.0,0.0,0.0,0.0,0.0,0.0,0.0,0.0,0.0,0.0,0.0,0.0,0.0,0.0,0.0,-3.6108,-3.7976,-3.9721,-4.2761,-4.5244,-4.6501,-4.7459,-4.8237,-4.882,-4.8192,-4.8053,-4.8645,-4.8893,-4.9568,-5.0977,-5.1891,-5.2347,-5.2317,-5.1589,-5.0862,-5.0101,-4.9373,-4.9001,-4.9001,-4.9001,-4.89,-4.8663,-4.7597,-4.687,-4.6447,-4.5568,-4.4959,-4.4604,-4.4807,-4.4434,-4.3758,-4.3961,-4.3453,-4.2506,-4.176,-4.1017,-4.0358,-4.0155,-4.0206,-4.0358,-4.0155,-4.007,-4.007,-4.007,-4.007,-4.007,-4.007,-4.007,-3.9834,-3.8768,-3.8343,-3.7916,-3.6789,-3.64,-3.598,-3.5083,-3.4886,-3.4482,-3.3128,-3.3311,-3.3759,-3.3889,-3.3864,-3.3951,-3.4161,-3.4005,0.0,-3.4447,-3.4577,-3.4723,-3.4852,-3.5284,-3.5646,-3.5722,-3.5451,-3.51,-3.4601,-3.4775,-3.4793,-3.457,-3.4227,-3.3152,-3.1397,-3.1251,-3.106,0.0,0.0,0.0,0.0,0.0,0.0,0.0,0.0,0.0,0.0,0.0,0.0,0.0,0.0,0.0,0.0,0.0,0.0,0.0,0.0,0.0,0.0,-3.8277,-4.0043,-4.2033,-4.4516,-4.677,-4.8491,-4.894,-4.9508,-5.0556,-4.9464,-4.8805,-4.909,-4.8913,-4.9421,-5.0751,-5.1483,-5.1885,-5.1811,-5.1437,-5.071,-4.9644,-4.9221,-4.9001,-4.9001,-4.9001,-4.868,-4.8054,-4.7192,-4.6447,-4.5821,-4.4959,-4.4587,-4.4553,-4.4231,-4.3826,0.0,0.0,0.0,0.0,0.0,-4.046,-4.007,-4.007,-4.007,-4.007,-4.007,-4.007,-4.007,-4.007,-4.007,-4.007,-4.007,-4.007,-3.9884,-3.9039,-3.836,-3.7648,-3.6772,-3.6096,-3.5362,-3.4382,-3.4159,-3.3763,-3.2388,-3.2113,0.0,-3.2633,-3.2986,-3.3293,-3.363,-3.3618,-3.3694,-3.3998,-3.405,-3.4101,-3.4422,-3.4775,-3.4926,-3.4635,-3.4883,0.0,0.0,0.0,-3.3299,-3.2602,-3.258,0.0,0.0,0.0,-3.0344,-3.0203,0.0,0.0,0.0,-3.111,-3.1962,0.0,0.0,0.0,0.0,0.0,0.0,0.0,0.0,0.0,0.0,0.0,0.0,0.0,0.0,0.0,0.0,-4.0639,-4.2719,-4.4676,-4.6343,-4.7848,-4.9015,-4.9658,-5.0272,-5.093,-4.9883,-4.9389,-4.9972,-4.9108,-4.9334,-5.0978,-5.1496,0.0,0.0,0.0,-5.0507,-4.9018,-4.9001,-4.8968,-4.8883,-4.8883,-4.8156,-4.6786,-4.6701,-4.5957,-4.4705,-4.4621,-4.4536,-4.4401,-4.3707,-4.3318,-4.3166,-4.3166,-4.232,-4.1001,-4.0324,-4.007,-4.007,-4.007,0.0,0.0,-4.007,-4.007,-4.007,-4.007,-4.007,-4.007,-4.007,-4.002,-3.9935,-3.9851,-3.8814,-3.7742,-3.7635,-3.662,-3.5207,-3.3887,-3.3582,-3.3166,-3.1781,-3.1482,-3.1482,-3.1482,-3.2064,-3.2693,-3.3321,-3.3417,-3.3614,-3.4234,-3.3778,-3.3559,-3.4026,0.0,0.0,-3.2929,-3.4419,-3.4851,-3.3447,-3.3561,-3.2757,-3.0622,-3.1218,-3.1564,-3.1531,-3.0196,-2.9217,-2.8646,-3.0312,-3.0828,-3.04,-3.1115,-3.2369,0.0,0.0,0.0,0.0,0.0,0.0,0.0,0.0,0.0,0.0,0.0,0.0,0.0,0.0,0.0,-4.0689,-4.2461,-4.4151,-4.6443,-4.7581,-4.8192,-4.8446,-4.8596,-4.8925,-4.9583,-4.894,-4.8521,-4.8656,-4.7962,-4.8133,-4.9256,-5.0151,-5.0505,-5.0019,-5.0792,-5.0507,-4.9018,-4.9001,-4.8714,-4.8122,0.0,0.0,-4.6769,-4.6177,-4.5754,-4.5449,-4.484,-4.4215,-4.3639,-4.347,-4.2709,-4.1644,-4.1644,-4.1085,-4.0273,-4.0121,-4.007,-4.007,-4.007,-4.007,-4.007,-4.007,-4.007,-4.007,-4.007,-4.007,0.0,-4.007,-3.9648,-3.9073,-3.8481,-3.7699,-3.6852,-3.6197,-3.5842,-3.5207,-3.3887,-3.3582,-3.3166,-3.1781,-3.1482,-3.1482,-3.1482,-3.164,-3.1727,-3.1905,-3.1913,-3.194,-3.2118,-3.2011,-3.2127,-3.2783,-3.3003,-3.2967,-3.2591,-3.2894,-3.2772,-3.1933,-3.2609,-3.2786,-3.2093,-3.2239,-3.2077,-3.1607,-3.0672,-2.9407,-2.785,-2.9153,-2.9906,-3.0212,-3.2161,-3.3015,0.0,0.0,0.0,0.0,0.0,0.0,0.0,0.0,0.0,0.0,0.0,-3.4498,-3.6239,0.0,-4.1229,-4.3696,-4.4649,-4.5516,-4.7073,-4.7593,-4.7923,-4.8252,-4.8581,-4.891,-4.9239,-4.8671,-4.8282,-4.8282,-4.7683,-4.7764,-4.8759,-4.9296,-4.9665,-4.9674,-5.0207,-5.0005,-4.9018,-4.9001,-4.8832,-4.846,-4.8105,-4.7513,-4.6769,-4.6041,-4.55,-4.5111,-4.4333,-4.3775,-4.3369,-4.2608,-4.1644,-4.0646,-4.0646,-4.0409,-4.007,-3.9662,-3.9782,-4.002,-3.9662,-3.9782,-4.007,-4.007,-4.007,-4.007,-4.007,-4.007,-4.007,-4.007,-3.9546,-3.8903,-3.8548,-3.7618,-3.6624,-3.586,-3.5365,-3.4752,-3.3391,-3.3093,-3.2772,-3.1682,-3.1482,-3.1482,-3.1482,-3.1482,-3.1482,-3.1482,-3.1482,-3.1482,-3.1482,-3.1486,-3.1618,-3.1958,-3.2086,-3.2113,-3.2003,-3.2018,-3.167,-3.0904,-3.1074,-3.1197,-3.1068,-3.0742,-3.0392,-3.0114,-2.9362,-2.8519,-2.762,-2.8891,-2.9596,-2.9889,-3.0791,-3.155,0.0,0.0,0.0,0.0,0.0,0.0,0.0,-3.0236,-3.0851,-3.1655,-3.4537,-3.7345,-3.8893,-4.1575,-4.4206,-4.5983,-4.6426,-4.6696,-4.7234,-4.7309,-4.7504,-4.8027,-4.8566,-4.888,-4.888,-4.8401,-4.8102,-4.8102,-4.7608,-4.7694,-4.8444,-4.8553,-4.8749,-4.9131,-4.9407,-4.9293,-4.8736,-4.894,-4.8866,-4.8562,-4.7986,-4.7225,-4.6346,-4.5754,-4.5077,-4.4299,-4.3386,-4.298,-4.2878,-4.1367,-4.0389,-3.9833,-3.9731,-3.9679,-3.9558,-3.9086,-3.9209,-3.9558,-3.9086,-3.9315,-3.9901,-4.007,-4.007,-4.007,-4.007,-4.007,-4.0054,-3.9918,-3.9343,-3.8751,-3.8599,-3.7503,-3.6223,-3.5629,-3.4906,-3.4087,-3.2841,-3.2586,-3.2382,-3.164,-3.1482,-3.1482,-3.1482,-3.1482,-3.1482,-3.1482,-3.1482,-3.1482,-3.1482,-3.1482,-3.1482,-3.1482,-3.1482,-3.1482,-3.1482,-3.1482,-3.1198,-3.0499,-3.0003,-2.9759,-2.9759,-2.9229,-2.8884,-2.8892,-2.8211,-2.7787,-2.7614,-2.868,-2.9222,-2.9212,-2.8837,-2.9654,-2.6035,-2.5352,-2.5655,-2.7985,-2.8454,-2.9104,0.0,-3.3244,-3.3983,-3.5947,-3.7556,-3.9321,-4.1568,-4.3272,-4.4763,-4.6107,-4.6815,-4.7219,-4.7294,-4.7309,-4.7339,-4.7399,-4.7474,-4.7519,-4.7519,-4.7459,-4.7414,-4.7414,-4.7339,-4.7381,-4.7452,-4.7727,-4.765,-4.7029,-4.8181,-4.848,-4.7737,-4.8576,-4.8342,-4.7039,-4.6955,-4.6177,-4.4823,-4.4739,-4.4282,-4.347,-4.2066,-4.1457,-4.1321,-3.9781,-3.9098,-3.8978,-3.8318,-3.8035,-3.8149,-3.869,-3.8525,-3.8149,-3.869,-3.8962,-3.9139,-3.985,-4.007,-4.007,-4.007,-4.007,-3.9935,-3.9292,-3.8582,-3.7872,-3.7195,-3.5961,-3.482,-3.4756,-3.4202,-3.3495,-3.2734,-3.2586,-3.2382,-3.164,-3.1482,-3.1482,-3.1482,-3.1482,-3.1482,-3.1482,-3.1482,-3.1482,-3.1482,-3.1482,-3.1482,-3.1482,-3.1482,-3.1482,-3.1482,-3.1482,-3.1437,-3.1347,-3.0761,-3.0402,-3.0402,-3.0177,-3.0008,-3.0029,-2.9214,-2.8353,-2.7602,-2.7778,-2.7801,-2.7823,-2.7778,-2.8769,-2.5488,-2.6472,-2.764,-2.8299,-2.9229,-3.0549,-3.2818,-3.3755,-3.4654,-3.6752,-3.8652,-4.0549,-4.2286,-4.392,-4.5503,-4.721,-4.7698,-4.7878,-4.7878,-4.7878,-4.7593,-4.683,-4.707,-4.7309,-4.7309,-4.7309,-4.7309,-4.7309,-4.695,-4.6905,-4.7279,-4.6667,-4.6483,-4.6717,-4.6859,-4.6893,-4.6815,-4.6814,-4.6454,-4.5848,-4.5074,-4.4352,-4.3744,-4.3356,-4.2831,-4.21,-4.1474,-4.0709,-3.9818,-3.9148,-3.8635,-3.8262,-3.7921,-3.7515,-3.7144,-3.7424,-3.7674,-3.7748,-3.76,-3.8157,-3.8962,-3.9315,-3.9731,-4.007,-4.007,-4.007,-3.9868,-3.8757,-3.7853,-3.6987,-3.5843,-3.479,-3.3937,-3.3547,-3.3235,-3.2841,-3.2104,-3.1951,-3.1853,-3.1582,-3.1482,-3.1482,-3.1482,-3.1482,-3.1482,-3.1482,-3.1482,-3.1482,-3.1482,-3.1482,-3.1351,-3.0837,-3.1219,-3.1278,-3.0837,-3.1219,-3.1302,-3.0956,-3.0672,-3.0342,-2.9983,-3.0117,-2.9909,-2.9275,-2.9019,-2.8494,-2.7601,-2.7584,-2.7793,-2.8181,-2.7763,-2.8222,-2.5207,-2.6947,-2.8379,-2.7974,-2.9395,-3.1274,-3.2938,-3.4111,-3.5421,-3.7257,-3.9158,-4.0971,-4.2667,-4.3961,-4.5605,-4.7896,-4.8132,-4.8072,-4.8252,-4.8132,-4.7593,-4.6456,-4.6741,-4.695,-4.677,-4.692,-4.704,-4.704,-4.6591,-4.6456,-4.6741,-4.5828,-4.5514,-4.5981,-4.5511,-4.5251,-4.5548,-4.5128,-4.4802,-4.4609,-4.3568,-4.2879,-4.2527,-4.188,-4.1332,-4.0908,-4.0932,-4.0113,-3.8908,-3.869,-3.8133,-3.7456,-3.7235,-3.6814,-3.6275,-3.6275,-3.6646,-3.7115,-3.6737,-3.735,-3.827,-3.8525,-3.8978,-3.942,-3.9256,-3.9189,-3.8902,-3.7488,-3.6675,-3.5915,-3.4699,-3.3878,-3.3182,-3.2695,-3.2437,-3.216,-3.164,-3.1482,-3.1422,-3.1285,-3.124,-3.124,-3.124,-3.124,-3.1315,-3.1437,-3.1482,-3.1482,-3.1482,-3.1278,-3.0955,-3.038,-3.0597,-3.0553,-2.9988,-3.0334,-3.0441,-3.0119,-2.9662,-2.9322,-2.9237,-2.9381,-2.9139,-2.8323,-2.8449,-2.821,-2.7625,-2.7625,-2.7829,-2.8308,-2.785,-2.7844,-2.5548,-2.5779,-2.6206,-2.6408,-2.8076,-3.0387,-3.263,-3.4947,-3.706,-3.8591,-3.927,-4.0528,-4.2999,-4.349,-4.456,-4.7793,-4.7743,-4.7563,-4.8192,-4.7743,-4.7085,-4.6411,-4.6337,-4.6082,-4.5424,-4.5963,-4.6352,-4.6352,-4.6337,-4.6037,-4.5394,-4.5319,-4.5005,-4.4362,-4.4006,-4.3862,-4.3847,-4.4119,-4.3907,-4.3151,-4.3103,-4.2366,-4.102,-4.0451,-4.0133,-4.0106,-4.0135,-3.9679,-3.8854,-3.8149,-3.7381,-3.6554,-3.5846,-3.5554,-3.5504,-3.5504,-3.5569,-3.5683,-3.6384,-3.66,-3.6783,-3.7573,-3.7879,-3.7735,-3.7086,-3.6917,-3.6589,-3.5209,-3.4808,-3.4579,-3.3858,-3.3161,-3.2641,-3.2586,-3.2064,-3.1524,-3.1524,-3.1482,-3.1345,-3.0672,-3.0537,-3.0537,-3.0537,-3.0537,-3.0761,-3.1377,-3.1482,-3.1482,-3.1482,-3.0837,-3.0305,-3.0298,-2.9568,-2.9035,-2.9039,-2.8616,-2.8491,-2.8996,-2.745,-2.7074,-2.8297,-2.7919,-2.7661,-2.7604,-2.7655,-2.7655,-2.7625,-2.7625,-2.7625,-2.7655,-2.7625,-2.7625,-2.7128,-2.7377,-2.7639,-2.8435,-2.91,-3.0437,-3.3486,-3.5001,-3.6365,-3.8512,-3.8417,-3.8646,-4.0613,-4.1404,-4.2777,-4.5817,-4.7593,-4.8536,-4.8312,-4.8476,-4.7863,-4.5873,-4.6052,-4.5873,-4.4751,-4.5244,-4.5828,-4.6292,-4.5499,-4.5274,-4.5948,-4.4721,-4.4092,-4.4302,-4.3406,-4.2849,-4.2849,-4.2096,-4.1536,-4.1306,-4.0385,-3.957,-3.8733,-3.8555,-3.875,-3.9325,-3.9309,-3.9139,-3.8854,-3.8092,-3.7338,-3.6554,-3.5782,-3.5504,-3.5504,-3.5504,-3.5504,-3.5569,-3.5782,-3.6165,-3.6599,-3.6372,-3.6685,-3.7014,-3.6348,-3.614,-3.5838,-3.4423,-3.4062,-3.374,-3.2536,-3.2048,-3.1853,-3.1853,-3.1682,-3.1482,-3.1482,-3.1482,-3.133,-3.0642,-3.0507,-3.0372,-2.9968,-3.0223,-3.0731,-3.1377,-3.1482,-3.1278,-3.0777,-3.0464,-2.9884,-2.8695,-2.883,-2.8789,-2.8171,-2.8484,-2.845,-2.7842,-2.7668,-2.7232,-2.6386,-2.8035,-2.8291,-2.6907,-2.824,-2.848,-2.7625,-2.8165,-2.815,-2.7625,-2.7625,-2.7625,-2.9161,-2.9498,-2.9935,-3.0337,-3.0779,-3.1724,-3.4294,-3.5287,-3.6295,-3.8239,-3.7944,-3.7842,-3.9401,-4.0162,-4.1284,-4.3666,-4.5276,-4.6401,-4.6919,-4.677,-4.6344,-4.5744,-4.5598,-4.5335,-4.4684,-4.4825,-4.5125,-4.5574,-4.502,-4.484,-4.5229,-4.4257,-4.3673,-4.3614,-4.2566,-4.1893,-4.1669,-4.0591,-3.9933,-3.9664,-3.8347,-3.7511,-3.7223,-3.7264,-3.7553,-3.8101,-3.8398,-3.8342,-3.8044,-3.7557,-3.6919,-3.6165,-3.5668,-3.5504,-3.5504,-3.5504,-3.5504,-3.5504,-3.5504,-3.5846,-3.612,-3.5416,-3.5548,-3.5817,-3.4877,-3.4595,-3.4413,-3.3254,-3.29,-3.2695,-3.1745,-3.1482,-3.1482,-3.1482,-3.1482,-3.1482,-3.1482,-3.1345,-3.0971,-3.0298,-2.9983,-2.9774,-2.9609,-3.0298,-3.1016,-3.1407,-3.1482,-3.1219,-3.0389,-3.0011,-2.9317,-2.7855,-2.792,-2.7855,-2.7284,-2.7604,-2.7461,-2.6649,-2.672,-2.6404,-2.554,-2.662,-2.6933,-2.6103,-2.7946,-2.8422,-2.7539,-2.8135,-2.7974,-2.7047,-2.7047,-2.7047,-3.1348,-3.2031,-3.2571,-3.2025,-3.2825,-3.3967,-3.5017,-3.5884,-3.6879,-3.768,-3.7698,-3.7909,-3.9147,-3.9381,-3.9914,-4.1425,-4.1348,-4.1897,-4.4312,-4.3045,-4.3008,-4.5877,-4.5113,-4.4662,-4.5266,-4.4721,-4.4347,-4.4317,-4.487,-4.4661,-4.3449,-4.3943,-4.3673,-4.2402,-4.1728,-4.1055,-4.0352,-3.9664,-3.8975,-3.8287,-3.7075,-3.6477,-3.6484,-3.6503,-3.6554,-3.6661,-3.7397,-3.7338,-3.6661,-3.6615,-3.6165,-3.5554,-3.5504,-3.5504,-3.5504,-3.5504,-3.5504,-3.5504,-3.5504,-3.5504,-3.5385,-3.4666,-3.4427,-3.4188,-3.2856,-3.2467,-3.2332,-3.1704,-3.1482,-3.1482,-3.1482,-3.1482,-3.1482,-3.1482,-3.1482,-3.1482,-3.1482,-3.0986,-3.0313,-2.9699,-2.9056,-2.8801,-2.946,-3.0642,-3.1437,-3.1467,-3.1482,-3.1219,-3.0329,-2.9504,-2.862,-2.7736,-2.6973,-2.6533,-2.6533,-2.5963,-2.5624,-2.5586,-2.4734,-2.4628,-2.5521,-2.3962,-2.3793,-2.527,-2.6757,-2.7439,-2.7298,-2.7454,-2.7017,-2.6092,-2.598,-2.5966,-3.3121,-3.3247,-3.3398,-3.364,-3.3444,-3.3537,-3.4934,-3.5337,-3.5589,-3.6073,-3.5133,-3.456,-3.553,-3.6986,-3.8512,-3.9819,-4.2451,-4.4128,-4.384,-4.3801,-4.4093,-4.4834,-4.4644,-4.4662,-4.5266,-4.5155,-4.484,-4.4347,-4.4018,-4.3898,-4.4062,-4.3763,-4.321,-4.2387,-4.1728,-4.0831,-3.9679,-3.8512,-3.7599,-3.6971,-3.6641,-3.6237,-3.5759,-3.5744,-3.6054,-3.66,-3.6783,-3.7144,-3.7456,-3.6843,-3.6492,-3.6275,-3.5733,-3.5504,-3.5504,-3.5504,-3.5504,-3.5504,-3.5504,-3.5504,-3.531,-3.4128,-3.3739,-3.3499,-3.2183,-3.1779,-3.1691,-3.1526,-3.1482,-3.1482,-3.1482,-3.1482,-3.1482,-3.1482,-3.1482,-3.1482,-3.1482,-3.0986,-3.0313,-2.9699,-2.9056,-2.8801,-2.946,-3.0238,-3.0941,-3.1392,-3.1482,-3.097,-2.9504,-2.9129,-2.8427,-2.6973,-2.6589,-2.6533,-2.6533,-2.6395,-2.6038,-2.5494,-2.4971,-2.4368,-2.3791,-2.3331,-2.3308,-2.367,-2.5733,-2.6519,-2.5897,-2.6205,-2.6235,-2.6064,-2.4544,-2.4297,-3.4474,-3.4663,-3.4881,-3.5198,-3.4882,-3.456,-3.4908,-3.4907,-3.4805,-3.4495,-3.3652,-3.3079,-3.3574,-3.5027,-3.63,-3.6844,-3.9421,-4.1391,-4.1542,-4.1595,-4.2193,-4.3857,-4.3459,-4.3406,-4.4051,-4.4095,-4.3892,-4.3578,-4.37,-4.3793,-4.3883,-4.3254,-4.2596,-4.1953,-4.1294,-4.0307,-3.8975,-3.7659,-3.6836,-3.6492,-3.6193,-3.5863,-3.5504,-3.5504,-3.5733,-3.6117,0.0,-3.6352,-3.6784,-3.629,-3.6117,-3.6054,-3.5668,-3.5504,-3.5504,-3.5504,-3.5504,-3.5459,-3.516,-3.4861,-3.4565,-3.4122,-3.3949,-3.3737,-3.2368,-3.1951,-3.191,-3.1582,-3.1482,-3.1482,-3.1482,-3.1482,-3.1482,-3.1482,-3.1482,-3.1482,-3.1482,-3.0776,-2.9819,-2.8876,-2.8876,-2.9146,-2.952,-3.0342,-3.1091,-3.1422,-3.1482,-3.0911,-2.9198,-2.8983,-2.8363,-2.6658,-2.6533,-2.6533,-2.6533,-2.6533,-2.6189,-2.5415,-2.5464,-2.482,-2.3182,-2.307,-2.3084,-2.311,-2.4329,-2.479,-2.4373,-2.4554,-2.4708,-2.4784,-2.3636,-2.3417,-3.5391,-3.5943,-3.6345,-3.627,-3.6257,-3.5943,-3.4776,-3.45,-3.4173,-3.2993,-3.2667,-3.2542,-3.262,-3.3423,-3.4095,-3.3911,-3.526,-3.6878,-3.8766,-3.8543,-3.9445,-4.2794,-4.2266,-4.1843,-4.2661,-4.2523,-4.2363,-4.2353,-4.326,-4.3632,-4.3225,-4.2581,-4.1893,-4.1145,-4.0397,-3.9409,-3.8153,-3.6956,-3.6357,-3.6357,-3.5774,-3.5504,-3.5504,-3.5504,-3.5504,-3.5504,-3.5504,-3.5504,-3.5504,-3.5504,-3.5504,-3.5489,-3.54,-3.5429,-3.5489,-3.531,-3.5295,-3.5265,-3.4577,-3.3965,-3.3563,-3.3946,-3.4163,-3.3921,-3.2726,-3.2392,-3.2314,-3.1667,-3.1482,-3.1482,-3.1482,-3.1482,-3.1482,-3.1482,-3.1482,-3.1452,-3.1362,-3.0372,-2.9101,-2.7934,-2.8727,-2.9579,-2.9579,-3.0672,-3.1437,-3.1347,-3.1422,-3.0837,-2.9087,-2.8907,-2.8363,-2.6658,-2.6533,-2.6533,-2.6533,-2.6533,-2.6226,-2.5607,-2.6079,-2.5469,-2.3404,-2.3168,-2.3095,-2.3071,-2.3194,-2.3206,-2.3071,-2.3207,-2.3183,-2.3078,-2.3078,-2.3078,-3.5391,-3.5943,-3.6257,-3.5805,-3.5692,-3.5278,-3.3721,-3.337,-3.2918,-3.1361,-3.1044,-3.1123,-3.1425,-3.2505,-3.3754,-3.4813,-3.62,-3.7534,-3.8736,-3.8843,-3.9522,-4.1709,-4.169,-4.1843,-4.2661,-4.215,-4.1647,-4.1165,-4.121,-4.1617,-4.2536,-4.1908,-4.0995,-3.9798,-3.8571,-3.7569,-3.6821,-3.6058,-3.5669,-3.5669,-3.5564,-3.5504,-3.5504,-3.5504,-3.5504,-3.5504,-3.5504,0.0,-3.5504,-3.5504,-3.5504,-3.5444,-3.4876,-3.4996,-3.537,-3.4262,-3.4188,-3.4562,-3.3903,-3.3607,-3.3315,-3.2352,-3.1967,-3.1843,-3.1076,-3.1235,-3.1597,-3.1531,-3.1482,-3.1482,-3.1482,-3.1482,-3.1482,-3.1482,-3.1482,-3.1375,-3.0806,-2.9669,-2.8697,-2.8472,-2.9041,-2.9579,-2.9579,-3.0672,-3.1345,-3.0776,-3.1165,-3.069,-2.8441,-2.8657,-2.8363,-2.6658,-2.6533,-2.6533,-2.6533,-2.6533,-2.6483,-2.6302,-2.5967,-2.5347,-2.4516,-2.3607,-2.3103,-2.3117,-2.3691,-2.3703,-2.3092,-2.3579,-2.3603,-2.3078,-2.3078,-2.3078,-3.5391,-3.5943,-3.6295,-3.6031,-3.5328,-3.4412,-3.3319,-3.2416,-3.1486,-3.0407,-3.0181,-3.0249,-3.047,-3.1487,-3.2507,-3.3168,-3.4504,-3.6045,-3.7383,-3.7814,-3.8703,-4.0413,-4.0385,-4.0171,-4.0228,-3.9925,-3.9535,-3.9046,-3.8847,-3.955,-4.1339,-4.0753,-3.9903,-3.8916,-3.7614,-3.6791,-3.6492,-3.5833,-3.5504,-3.5504,-3.5504,-3.5504,-3.5504,-3.5504,-3.5504,-3.5504,-3.5504,-3.5504,-3.5504,-3.5504,-3.5295,-3.4936,-3.4607,-3.4472,-3.4382,-3.3739,-3.3694,-3.3873,-3.3215,-3.2764,-3.2239,-3.0934,-3.1459,-3.24,-3.182,-3.182,-3.1936,-3.1592,-3.1482,-3.1482,-3.1482,-3.1219,-3.0896,-3.0896,-3.0588,-3.0075,-2.9134,-2.8744,-2.8502,-2.8128,-2.8607,-2.9175,-2.952,-3.0372,-3.1001,-3.1031,-3.1315,-3.0793,-2.8764,-2.8789,-2.8363,-2.6658,-2.6533,-2.6533,-2.6533,-2.6533,-2.6533,-2.6533,-2.6201,-2.5917,-2.5699,-2.4785,-2.4072,-2.3701,-2.3929,-2.3779,-2.3078,-2.3414,-2.3401,-2.3078,-2.3078,-2.3078,-3.5366,-3.5943,-3.6332,-3.6219,-3.5027,-3.3696,-3.2893,-3.1625,-3.0419,-2.9741,-2.9704,-2.9792,-2.9792,-3.0482,-3.1122,-3.1348,-3.2503,-3.4022,-3.5918,-3.6659,-3.7588,-3.9145,-3.9057,-3.8592,-3.7902,-3.7839,-3.7546,-3.6934,-3.6744,-3.7448,-3.9534,-3.8993,-3.8266,-3.7573,-3.6468,-3.5819,-3.5686,-3.5318,-3.5213,-3.5213,-3.5424,-3.5504,-3.5504,-3.5504,-3.5504,-3.5504,-3.5504,-3.5504,-3.5489,-3.534,-3.5055,-3.4651,-3.4218,-3.3918,-3.3649,-3.323,-3.3155,-3.3185,-3.2527,-3.1958,-3.1345,-3.0163,-3.1127,-3.2621,-3.1935,-3.1936,-3.2037,-3.1426,-3.1362,-3.1437,-3.1287,-3.0793,-3.0225,-2.99,-2.9226,-2.8512,-2.7835,-2.8067,-2.8271,-2.7904,-2.8442,-2.9131,-2.952,-3.0223,-3.0851,-3.1255,-3.1217,-3.0587,-2.8998,-2.8573,-2.7958,-2.6645,-2.6533,-2.6533,-2.6533,-2.6533,-2.6533,-2.6533,-2.6533,-2.6425,-2.6302,-2.5728,-2.5056,-2.4318,-2.4254,-2.4063,-2.372,-2.3646,-2.3654,-2.3816,-2.3339,-2.317,-3.5253,-3.5943,-3.6245,-3.5742,-3.4751,-3.3495,-3.1901,-3.106,-3.0306,-2.9239,-2.9428,-2.9792,-2.9792,-2.988,-3.0256,-3.1235,-3.1524,-3.2554,-3.524,-3.6119,-3.6897,-3.8027,-3.858,-3.8442,-3.7362,-3.7262,-3.688,-3.5709,-3.5223,-3.537,-3.6526,-3.6045,-3.5453,-3.4813,-3.4217,-3.3603,-3.2974,-3.3768,-3.4163,-3.4177,-3.5067,-3.5504,-3.5504,-3.5504,-3.5504,-3.5504,-3.5504,-3.5504,0.0,-3.4831,-3.4906,-3.5235,-3.341,-3.338,-3.4173,-3.2377,-3.2093,-3.2512,-3.1795,-3.1526,-3.1347,-3.0657,-3.0152,-2.9763,-2.9146,-2.9763,-3.0658,-3.0584,-3.1046,-3.139,-3.0761,-3.0441,-3.0004,-2.868,-2.7482,-2.6974,-2.811,-2.7946,-2.7773,-2.8398,-2.949,-3.0163,-2.9669,-3.0612,-3.124,-3.0687,-3.0236,-2.949,-2.8263,-2.7269,-2.6655,-2.6496,-2.6533,-2.6533,-2.6533,-2.6533,-2.6533,-2.6533,-2.6533,-2.6282,-2.5728,-2.5598,-2.5322,-2.477,-2.489,-2.5266,-2.5849,-2.5422,-2.5505,-2.607,-2.4071,-2.3515,-3.397,-3.5203,-3.5893,-3.6006,-3.4449,-3.2805,-3.2478,-3.0947,-2.9566,-2.9465,-2.9628,-2.9792,-2.9792,-2.9792,-2.993,-3.0357,-3.0432,-3.116,-3.3244,-3.3734,-3.4663,-3.6759,-3.6935,-3.6948,-3.7161,-3.6584,-3.5742,-3.4638,-3.4296,-3.4298,-3.4674,-3.4457,-3.42,-3.3938,-3.3342,-3.2842,-3.2593,-3.3518,-3.4027,-3.4027,-3.4986,-3.5504,-3.5504,-3.5504,-3.5504,-3.5504,-3.5504,-3.5265,0.0,-3.4592,-3.4173,-3.3619,-3.2826,-3.2587,-3.2617,-3.1824,-3.1646,-3.1884,-3.1556,-3.127,-3.0806,-3.0163,-2.947,-2.9,-2.9162,-2.9825,-3.0477,-3.0488,-3.1001,-3.1245,-3.0131,-2.8836,-2.7407,-2.603,-2.5661,-2.5689,-2.5901,-2.6427,-2.7108,-2.7783,-2.8714,-2.952,-3.0043,-3.0567,-3.077,-3.0412,-3.0232,-2.9534,-2.8039,-2.7459,-2.7061,-2.6577,-2.6533,-2.6533,-2.6533,-2.6533,-2.6533,-2.6533,-2.6533,-2.642,-2.6126,-2.6113,-2.585,-2.5297,-2.5882,-2.6126,-2.6069,-2.6403,-2.6521,-2.641,-2.5497,-2.4811,-3.2413,-3.4167,-3.5592,-3.5818,-3.4161,-3.2528,-3.2767,-3.1149,-2.9706,-3.0126,-3.0419,-3.057,-3.0292,-3.0216,-3.0139,-2.9869,-2.9792,-3.0306,-3.1763,-3.2102,-3.3006,-3.514,-3.519,-3.5366,-3.6144,-3.5516,-3.4663,-3.3721,-3.3251,-3.2927,-3.2771,-3.2558,-3.2678,-3.3124,-3.2477,-3.2033,-3.1756,-3.2961,-3.3602,-3.3602,-3.492,-3.5504,-3.5504,-3.5213,-3.5213,-3.5504,-3.5213,-3.4812,0.0,-3.3995,-3.3232,-3.2374,-3.1718,-3.1352,-3.1131,-3.0939,-3.0865,-3.0865,-3.0865,-3.0424,-2.9737,-2.9359,-2.8779,-2.8358,-2.8853,-2.9564,-3.0223,-3.0223,-3.0582,-3.0639,-2.9361,-2.7492,-2.5561,-2.4278,-2.4272,-2.4497,-2.4326,-2.5424,-2.6683,-2.736,-2.838,-2.9445,-3.0357,-3.0488,-3.0411,-3.0317,-2.9889,-2.9066,-2.7855,-2.7484,-2.7095,-2.6589,-2.637,-2.6345,-2.6508,-2.6533,-2.6533,-2.6533,-2.6533,-2.6533,-2.6533,-2.6533,-2.6264,-2.585,-2.6764,-2.7033,-2.6693,-2.7318,-2.7456,-2.7045,-2.6624,-2.5911,-3.0699,-3.3125,-3.5416,-3.4876,-3.3897,-3.2918,-3.2353,-3.1679,-3.1167,-3.1167,-3.1888,-3.2321,-3.1389,-3.118,-3.0908,-2.9934,-2.9792,-3.0168,-3.1248,-3.1863,-3.2441,-3.3043,-3.3583,-3.3922,-3.3935,-3.3922,-3.3684,-3.3131,-3.2039,-3.1173,-3.0658,-3.0105,-3.0548,-3.1948,-3.147,-3.0758,-2.9869,-3.1696,-3.2593,-3.2664,-3.4558,-3.5504,-3.5439,-3.4461,-3.4543,-3.5424,-3.4461,-3.423,0.0,-3.2815,-3.2219,-3.2011,-2.9869,-2.958,-3.0257,-2.9563,-2.9333,-2.9333,-2.9333,-2.8845,-2.8237,-2.8296,-2.7965,-2.7549,-2.7631,-2.8532,-2.9594,-2.9594,-2.9594,-2.9385,-2.8436,-2.6823,-2.5184,-2.4211,-2.3565,-2.3318,-2.4118,-2.5412,-2.6637,-2.7336,-2.9142,-3.0492,-3.0507,-3.0382,-3.0315,-3.0329,-2.8812,-2.7736,-2.767,-2.6973,-2.6533,-2.6533,-2.595,-2.5837,-2.6483,-2.6533,-2.6533,-2.6533,-2.6533,-2.6533,-2.6533,-2.6533,-2.6533,-2.6521,-2.7477,-2.7982,-2.7968,-2.8414,-2.8607,-2.8525,-2.7147,-2.651,-2.8023,-3.0043,-3.177,-3.2342,-3.1944,-3.1436,-3.1612,-3.1113,-3.0731,-3.1101,-3.196,-3.2536,-3.2249,-3.2177,-3.2033,-3.1756,-3.1683,-3.1596,-3.1315,-3.2362,-3.3172,-3.3076,-3.4223,-3.4575,-3.3445,-3.3671,-3.3345,-3.2026,-3.2201,-3.2123,-3.1565,-3.1646,-3.136,-3.0535,-3.0924,-3.1044,-3.0758,-3.196,-3.2593,-3.2593,-3.3255,-3.3533,-3.3533,-3.3171,-3.3241,-3.3518,-3.279,-3.2269,-3.1914,-3.103,-3.0409,-2.9925,-2.9281,-2.8927,-2.8919,-2.9213,-2.9045,-2.8713,-2.9174,-2.8943,-2.8429,-2.831,-2.7952,-2.7573,-2.7584,-2.8517,-2.9669,-3.0088,-2.9168,-2.7882,-2.7151,-2.5378,-2.3747,-2.3485,-2.3565,-2.3777,-2.4022,-2.514,-2.6418,-2.7739,-2.8582,-2.9595,-3.0976,-3.0529,-2.9807,-2.949,-2.8427,-2.7484,-2.6973,-2.6658,-2.6533,-2.6533,-2.5937,-2.5674,-2.585,-2.5548,-2.5335,-2.5335,-2.5674,-2.5875,-2.5875,-2.6251,-2.6533,-2.6533,-2.7367,-2.7635,-2.7247,-2.8507,-2.8884,-2.8577,-2.7147,-2.6774,-2.6434,-2.8314,-2.9715,-3.062,-3.0543,-3.0387,-3.0728,-3.0714,-3.0705,-3.0837,-3.2099,-3.3031,-3.2664,-3.289,-3.289,-3.2177,-3.2105,-3.1969,-3.1633,-3.2401,-3.3064,-3.3083,-3.3781,-3.3796,-3.2566,-3.2943,-3.2667,-3.121,-3.1621,-3.1746,-3.1177,-3.1391,-3.0878,-2.9465,-3.0579,-3.1044,-3.0696,-3.1609,-3.2105,-3.2092,-3.2231,-3.2386,-3.2593,-3.2017,-3.2044,-3.2566,-3.1621,-3.1103,0.0,-2.9884,-2.9282,-2.8911,-2.8361,-2.8161,-2.8271,-2.8454,-2.8339,-2.8037,-2.8397,-2.815,-2.7737,-2.7893,-2.7764,-2.7715,-2.8225,-2.8742,-2.934,-2.9983,-2.9195,-2.7912,-2.6734,-2.5549,-2.4455,-2.3624,-2.374,-2.4054,-2.4268,-2.4983,-2.6134,-2.7878,-2.851,-2.9377,-3.1202,-3.0675,-2.9779,-2.9087,-2.8241,-2.7419,-2.6577,-2.6533,-2.6533,-2.6533,-2.5983,-2.5515,-2.5335,-2.5008,-2.482,-2.482,-2.5121,-2.531,-2.531,-2.5649,-2.5837,-2.5837,-2.6855,-2.701,-2.6219,-2.7605,-2.8265,-2.8203,-2.7343,-2.7152,0.0,-2.7453,-2.8683,-2.9327,-2.9486,-2.957,-2.9551,-3.0329,0.0,-3.0382,-3.2165,-3.3614,-3.2876,-3.338,-3.3449,-3.1756,-3.1536,-3.175,-3.2288,-3.2412,-3.2601,-3.3105,-3.2641,-3.2026,-3.1399,-3.1838,-3.1712,-3.0633,-3.0595,-3.0357,-2.9767,-2.9729,-2.9465,-2.8888,-3.0206,-3.0566,-2.982,-3.0641,-3.1048,-3.1048,-3.1466,-3.1832,-3.2242,-3.0922,-3.1034,0.0,-3.0828,-3.0325,0.0,-2.916,-2.8704,-2.8688,-2.7357,-2.7373,-2.8068,-2.7508,-2.7293,-2.7279,-2.7279,-2.6905,-2.6467,-2.7126,-2.7451,-2.785,-2.9056,-2.9086,-2.8801,-2.946,-2.9639,-2.9079,-2.6989,-2.6779,-2.6579,-2.4529,-2.4079,-2.4255,-2.4834,-2.5161,-2.5881,-2.7925,-2.8887,-2.9813,-3.1232,-3.0822,-2.9958,-2.9158,-2.8293,-2.7433,-2.6633,-2.6533,-2.6533,-2.6533,-2.5915,-2.5339,-2.4858,-2.4808,-2.4795,-2.4707,-2.4782,-2.4808,-2.4757,-2.4795,-2.482,-2.482,-2.6077,-2.6156,-2.5064,-2.5966,-2.6826,-2.7509,-2.7575,-2.7625,-2.3951,0.0,-2.54,-2.589,-2.6641,-2.7158,0.0,-2.8037,-2.9262,-2.9234,-3.0922,-3.2609,-3.3502,-3.3876,-3.4109,-3.4423,-3.4491,-3.4423,-3.4384,-3.4199,-3.426,-3.479,-3.3714,-3.2328,-3.0934,-3.1273,-3.1135,-3.0068,-3.0382,-3.0181,-2.9189,-2.9139,-2.8875,-2.8323,-2.8632,-2.9048,-2.9601,-2.9789,-2.9932,-2.986,-2.9684,-2.9464,-2.9194,-2.9208,-2.9196,-2.9143,-2.8388,-2.8068,-2.8099,-2.7983,-2.7643,-2.7267,-2.7588,-2.7262,-2.6719,-2.717,-2.7348,-2.7432,-2.7348,-2.765,-2.7998,-2.7639,-2.7578,-2.7685,-2.7949,-2.8652,-2.9475,-3.0103,-2.9862,-2.9045,-2.7432,-2.668,-2.6043,-2.49,-2.4933,-2.5443,-2.6207,-2.679,-2.7541,-2.913,-2.9537,-3.0057,-3.1291,-3.0601,-2.9693,-2.9069,-2.8293,-2.7433,-2.6633,-2.6533,-2.6533,-2.6533,-2.5594,-2.4971,-2.4785,-2.4784,-2.4456,-2.3516,-2.4343,-2.4632,-2.4205,-2.4594,-2.482,-2.482,-2.4709,-2.4553,-2.4429,-2.524,-2.6054,-2.6774,-2.7357,-2.7625,-2.2058,-2.2609,-2.3617,-2.4336,-2.5144,-2.5694,-2.5485,-2.6465,-2.7392,-2.7446,-2.8852,-3.0573,-3.2082,-3.268,-3.3123,-3.3504,-3.4149,-3.4704,-3.481,-3.4699,-3.4522,-3.4289,-3.3135,-3.1863,-3.0721,-3.0871,-3.0683,-2.9854,-2.9817,-2.9578,-2.8963,-2.8687,-2.8298,-2.7745,-2.772,-2.8109,-2.8841,-2.8853,-2.9054,-2.9451,-2.8558,-2.8353,-2.8638,-2.8353,-2.8147,-2.8072,-2.7519,0.0,-2.7289,-2.7232,-2.7404,-2.7719,-2.77,-2.774,-2.7751,-2.754,-2.748,-2.7563,-2.748,-2.7772,-2.8068,-2.7694,-2.7625,-2.7679,-2.8308,-2.8996,-2.9579,-2.9624,-2.9752,-2.9507,-2.7642,-2.7305,-2.7037,-2.5548,-2.5701,-2.6362,-2.7078,-2.7613,-2.8361,-2.9793,-3.0047,-3.036,-3.1336,-3.1013,-3.0352,-2.9623,-2.8574,-2.7538,-2.6699,-2.6553,-2.6533,-2.6533,-2.5925,-2.5476,-2.5216,-2.5413,-2.487,-2.3238,-2.4009,-2.4445,-2.415,-2.442,-2.4529,-2.4443,-2.3891,-2.3946,-2.4627,-2.478,-2.5453,-2.651,-2.693,-2.7306,-2.0311,-2.0893,-2.2235,-2.3439,-2.3988,-2.4303,-2.4592,-2.5112,-2.5565,-2.5784,-2.6944,-2.8527,-3.0217,-3.1159,-3.1662,-3.1456,-3.275,-3.3965,-3.4699,-3.4534,-3.3982,-3.3105,-3.1944,-3.1072,-3.0545,-3.0495,-3.0294,-2.9829,-2.9252,-2.8888,-2.88,-2.8285,-2.7682,-2.7042,-2.7017,-2.7205,-2.7595,-2.777,-2.8252,-2.9118,-2.7985,-2.8081,-2.9118,-2.7985,-2.7624,-2.7821,0.0,0.0,-2.7138,-2.6974,-2.7638,-2.8609,-2.784,-2.8272,-2.928,-2.809,-2.7805,-2.8008,-2.797,-2.779,-2.7625,-2.7625,-2.7685,-2.7934,-2.9086,-2.9564,-2.9579,-2.8936,-2.9669,-3.0169,-2.8203,-2.8413,-2.8675,-2.6595,-2.6674,-2.7386,-2.7944,-2.8334,-2.8932,-3.0257,-3.0491,-3.0729,-3.1366,-3.1482,-3.1228,-3.0481,-2.9114,-2.7836,-2.6947,-2.6567,-2.6408,-2.6521,-2.6445,-2.6138,-2.5636,-2.5975,-2.5464,-2.3685,-2.4203,-2.4522,-2.4465,-2.4452,-2.4269,-2.3901,-2.3472,-2.3773,-2.4779,-2.4471,-2.5007,-2.6351,-2.6568,-2.6989,-1.9426,-1.9392,-1.9727,-2.1377,-2.1771,-2.2058,-2.2745,-2.3597,-2.4577,-2.561,-2.6656,-2.8169,-3.0634,-3.1196,-3.1502,-3.2307,-3.3459,-3.4665,-3.5733,-3.4724,-3.3688,-3.3079,-3.1611,-3.052,-2.9967,-2.9917,-2.988,-2.9804,-2.9252,-2.8725,-2.826,-2.7708,-2.6929,-2.5887,-2.585,-2.5686,-2.5322,-2.6251,-2.7161,-2.7933,-2.8179,-2.8166,-2.7946,-2.8192,-2.7769,-2.6703,0.0,-2.6647,-2.6665,-2.745,-2.7598,-2.7359,-2.8094,-2.8547,-2.8652,-2.791,-2.8622,-2.9983,-2.946,-2.8532,-2.7625,-2.7625,-2.7964,-2.8472,-2.8682,-2.9505,-3.0238,-2.9609,-3.0372,-3.1099,-3.0069,-2.9929,-2.986,-2.8752,-2.8611,-2.8878,-2.9737,-2.9954,-3.0242,-3.1146,-3.1307,-3.1366,-3.1482,-3.1482,-3.1422,-3.1302,-2.9507,-2.7998,-2.7608,-2.6491,-2.5958,-2.6471,-2.6013,-2.5686,-2.5598,-2.5272,-2.523,-2.5647,-2.5656,-2.5508,-2.5216,-2.5231,-2.4617,-2.3282,-2.3839,-2.3865,-2.3432,-2.3982,-2.4738,-2.5577,-2.6841,-2.7476,-1.8172,-1.7855,-1.8081,-1.9971,-2.1013,-2.1761,-2.2389,-2.2839,-2.3577,-2.5079,-2.5722,-2.6884,-2.9516,-3.02,-3.107,-3.2943,-3.3715,-3.4082,-3.4402,-3.3514,-3.2476,-3.1423,-3.062,-3.0068,-2.9817,-2.9515,-2.9327,-2.9327,-2.8524,-2.7921,-2.767,-2.713,-2.6452,-2.5624,-2.5598,-2.5347,-2.4833,-2.5598,-2.6291,-2.6812,-2.692,-2.705,-2.7287,-2.7333,-2.6901,-2.6013,0.0,-2.6276,-2.6072,-2.7042,-2.7501,-2.7626,-2.8345,-2.8816,-2.9086,-2.8771,-2.9011,-2.943,-2.9146,-2.8652,-2.8128,-2.8128,-2.8577,-2.919,-2.9535,-2.9804,-3.0088,-3.0507,-3.1076,-3.1203,-3.0029,-3.0009,-3.0072,-2.9192,-2.938,-2.9827,-3.0208,-3.0644,-3.1087,-3.1409,-3.1482,-3.1482,-3.1482,-3.1482,-3.148,-3.1486,-2.958,-2.8074,-2.7917,-2.6843,-2.6181,-2.6496,-2.6214,-2.6063,-2.6063,-2.585,-2.5807,-2.6142,-2.6521,-2.6353,-2.5439,-2.5783,-2.5315,-2.3754,-2.4084,-2.4118,-2.3767,-2.4118,-2.4681,-2.5412,-2.6522,-2.7225,-1.6968,-1.6522,-1.6721,-1.8555,-2.0068,-2.1373,-2.2678,-2.3051,-2.3594,-2.5319,-2.5927,-2.6811,-2.8946,-2.9434,-3.0211,-3.2166,-3.2654,-3.2671,-3.2455,-3.1967,-3.1242,-3.0096,-2.9754,-2.9591,-2.9591,-2.9076,-2.8575,-2.8412,-2.7676,-2.7126,-2.66,-2.6407,-2.592,-2.5078,-2.5153,-2.4971,-2.4431,-2.4958,-2.5576,-2.6281,-2.6155,-2.6425,-2.709,-2.6902,-2.6405,-2.5824,-2.6264,-2.6214,-2.5883,-2.684,-2.7542,-2.8055,-2.8638,-2.9146,-2.9624,-2.9924,-2.952,-2.8846,-2.8996,-2.8846,-2.8622,-2.8786,-2.9175,-2.9699,-3.0313,-3.0283,-3.0178,-3.0881,-3.118,-3.1023,-3.0075,-3.0104,-3.0201,-2.9723,-3.0072,-3.0584,-3.0584,-3.1087,-3.1482,-3.1482,-3.1482,-3.1482,-3.1482,-3.1482,-3.1507,-3.1509,-2.96,-2.816,-2.8202,-2.7092,-2.6314,-2.6508,-2.6533,-2.6533,-2.6533,-2.6314,-2.618,-2.6131,-2.6835,-2.6775,-2.5701,-2.6014,-2.5728,-2.4567,-2.4567,-2.4483,-2.4372,-2.4372,-2.4743,-2.5438,-2.6105,-2.6849,-1.5843,-1.5433,-1.5404,-1.6647,-1.8049,-1.9911,-2.3448,-2.452,-2.5402,-2.7278,-2.8669,-2.9665,-3.0331,-2.9577,-2.8775,-2.8586,-2.9277,-3.0121,-3.0675,-3.0745,-3.0675,-3.057,-2.9628,-2.8988,-2.8988,-2.8499,-2.7767,-2.6812,-2.7077,-2.6516,-2.463,-2.5223,-2.4987,-2.3482,-2.3897,-2.3841,-2.3203,-2.3828,-2.5013,-2.6826,-2.7328,-2.7604,-2.7604,-2.7657,-2.7204,-2.6471,-2.6508,-2.6508,-2.6488,-2.7548,-2.7941,-2.8097,-2.9122,-2.9549,-2.9729,-3.0941,-3.0597,-2.9594,-3.0163,-2.9594,-2.8697,-2.931,-2.9549,-2.9699,-3.0313,-3.0911,-3.1165,-3.0043,-3.0133,-3.0717,-3.1185,-3.0902,-3.0619,-3.1187,-3.1351,-3.1409,-3.1409,-3.1467,-3.1482,-3.1482,-3.1482,-3.1482,-3.1482,-3.1482,-3.1524,-3.1509,-2.9602,-2.8387,-2.8864,-2.7026,-2.5862,-2.6471,-2.6533,-2.6533,-2.6533,-2.5862,-2.5639,-2.588,-2.6235,-2.6483,-2.6418,-2.5783,-2.5453,-2.5342,-2.5342,-2.5066,-2.4598,-2.4598,-2.4874,-2.5385,-2.5877,-2.6643,-1.5023,-1.4972,-1.5308,-1.6595,-1.727,-1.8571,-2.188,-2.3585,-2.501,-2.7037,-2.8924,-3.0277,-3.0094,-2.9725,-2.9103,-2.8264,-2.871,-2.9017,-2.8602,-2.9142,-2.9314,-2.8657,-2.8783,-2.88,-2.8448,-2.736,-2.6505,-2.6113,-2.5949,-2.5517,-2.4772,-2.5306,-2.5215,-2.4275,-2.4078,-2.3715,-2.3078,-2.3703,-2.4381,-2.5102,-2.5666,-2.5935,-2.5882,-2.6268,-2.6057,-2.5473,-2.6163,-2.6319,-2.6034,-2.7453,-2.7659,-2.7319,-2.8811,-2.9938,-3.0806,-3.0866,-3.0582,-3.0133,-2.9983,-2.9609,-2.925,-2.9505,-2.9849,-3.0193,-3.0432,-3.0687,-3.0881,-3.0806,-3.0088,-2.9475,-3.0148,-3.0417,-3.0672,-3.1317,-3.1482,-3.1482,-3.1482,-3.1482,-3.1482,-3.1482,-3.1482,-3.1482,-3.1482,-3.1482,-3.1482,-3.1482,-2.9872,-2.874,-2.8975,-2.7341,-2.6214,-2.6508,-2.5955,-2.5238,-2.4331,-2.3685,-2.3676,-2.4556,-2.5706,-2.6033,-2.5147,-2.5287,-2.5175,-2.4738,-2.4738,-2.4627,-2.442,-2.442,-2.4732,-2.5409,-2.6048,-2.6558,-1.4272,-1.4414,-1.496,-1.5987,-1.6514,-1.7548,-2.0413,-2.2984,-2.5197,-2.7236,-2.9382,-3.0543,-2.9482,-2.9113,-2.843,-2.6813,-2.7261,-2.7458,-2.6653,-2.7577,-2.8108,-2.7394,-2.7987,-2.826,-2.7883,-2.642,-2.5431,-2.5128,-2.5051,-2.4637,-2.3807,-2.4803,-2.4966,-2.4094,-2.3816,-2.354,-2.3078,-2.3703,-2.4004,-2.4004,-2.4381,-2.4657,-2.4845,-2.536,-2.5398,-2.5121,-2.605,-2.6239,-2.5996,-2.7628,-2.8257,-2.8353,-2.9547,-3.0631,-3.1422,-3.1001,-3.0687,-3.0477,-3.0268,-2.9789,-2.934,-2.9744,-2.9879,-2.9983,-3.0387,-3.0507,-3.0597,-3.1061,-3.0223,-2.9274,-2.9509,-2.9922,-3.0372,-3.1046,-3.1375,-3.1482,-3.1482,-3.1482,-3.1482,-3.1482,-3.1482,-3.1482,-3.1482,-3.1482,-3.1482,-3.1482,-3.0329,-2.9247,-2.8803,-2.7524,-2.6515,-2.6257,-2.5105,-2.4037,-2.3385,-2.2112,-2.1789,-2.2971,-2.4253,-2.4752,-2.4297,-2.454,-2.4567,-2.439,-2.4305,-2.4408,-2.4624,-2.4486,-2.448,-2.4722,-2.5671,-2.6408,-1.343,-1.3641,-1.4155,-1.4442,-1.5433,-1.7039,-1.9678,-2.3019,-2.6195,-2.8366,-3.0204,-3.0679,-2.8534,-2.7525,-2.6183,-2.3543,-2.4338,-2.5236,-2.485,-2.6255,-2.7299,-2.7299,-2.725,-2.7281,-2.7268,-2.5898,-2.4564,-2.3588,-2.4409,-2.389,-2.1376,-2.3494,-2.4082,-2.2586,-2.2911,-2.3078,-2.3078,-2.3703,-2.3991,-2.3991,-2.3991,-2.428,-2.4833,-2.536,-2.5586,-2.5624,-2.6214,-2.6533,-2.6658,-2.8298,-2.995,-3.1482,-3.1467,-3.1482,-3.1482,-3.1467,-3.1091,-3.0612,-3.1285,-3.0238,-2.8816,-3.0073,-2.9639,-2.8846,-3.0103,-3.0492,-3.0477,-3.0473,-3.0503,-3.0333,-2.9735,-2.9583,-2.9714,-3.0357,-3.1031,-3.1482,-3.1482,-3.1482,-3.1482,-3.1482,-3.1482,-3.1482,-3.1482,-3.1482,-3.1482,-3.1482,-3.0837,-2.9797,-2.8358,-2.7436,-2.6557,-2.5652,-2.3989,-2.328,-2.416,-2.1583,-2.0311,-2.133,-2.1719,-2.2615,-2.4209,-2.3526,-2.3582,-2.4598,-2.439,-2.4624,-2.5398,-2.486,-2.4106,-2.3168,-2.4653,-2.6157,-1.3017,-1.3474,-1.4108,-1.4195,-1.5604,-1.7412,-1.9085,-2.2124,-2.5627,-2.9334,-2.9535,-2.876,-2.7708,-2.7105,-2.5888,-2.3493,-2.3248,-2.3338,-2.3198,-2.3998,-2.4758,-2.5043,-2.5796,-2.621,-2.6095,-2.4779,-2.367,-2.2961,-2.3541,-2.3446,-2.2308,-2.3855,-2.4429,-2.3603,-2.3243,-2.3078,-2.3078,-2.3314,-2.3389,-2.3389,-2.3389,-2.369,-2.4268,-2.4808,-2.5059,-2.5109,-2.605,-2.6533,-2.6521,-2.704,-2.862,-3.0584,-2.995,-3.045,-3.1422,-3.0986,-3.0986,-3.112,-3.0417,-2.9789,-2.928,-2.919,-2.8906,-2.8667,-2.9056,-2.9471,-2.9863,-2.9879,-2.9537,-2.8984,-2.8297,-2.8144,-2.8502,-2.9958,-3.0914,-3.1248,-3.0483,-3.094,-3.1351,-3.0777,-3.1087,-3.1482,-3.1482,-3.1482,-3.1482,-3.1482,-3.0837,-2.96,-2.7566,-2.6922,-2.5942,-2.4202,-2.3857,-2.3075,-2.138,-2.0715,-2.036,-2.0369,-2.134,-2.2157,-2.2567,-2.2919,-2.3258,-2.3522,-2.3497,-2.3531,-2.3754,-2.3631,-2.369,-2.3962,-2.3853,-2.4579,-1.2946,-1.3494,-1.4311,-1.4956,-1.655,-1.845,-2.0298,-2.2823,-2.5802,-2.9523,-2.9308,-2.8175,-2.7408,-2.6891,-2.567,-2.3246,-2.2676,-2.2451,-2.2285,-2.2818,-2.3207,-2.334,-2.4079,-2.4661,-2.4737,-2.3677,-2.2737,-2.2436,-2.3047,-2.3072,-2.2157,-2.3646,-2.4243,-2.3665,-2.3314,-2.3078,-2.3078,-2.3078,-2.3078,-2.3078,-2.3078,-2.3314,-2.3678,-2.4469,-2.482,-2.4883,-2.5988,-2.6473,-2.6398,-2.7168,-2.847,-2.9894,-2.9652,-3.0133,-3.0911,-3.0192,-3.0032,-3.0188,-2.9658,-2.9198,-2.8771,-2.8614,-2.8442,-2.8269,-2.8538,-2.8861,-2.9277,-2.9514,-2.9337,-2.8764,-2.7741,-2.7667,-2.8027,-2.8548,-2.9486,-3.0026,-2.9023,-2.9768,-3.0412,-2.964,-3.029,-3.094,-3.066,-3.1102,-3.1422,-3.1157,-3.016,-2.8769,-2.6952,-2.6337,-2.539,-2.3758,-2.396,-2.3388,-2.1185,-2.0981,-2.0636,-1.9948,-2.1385,-2.2093,-2.1609,-2.28,-2.3364,-2.3078,-2.3078,-2.3078,-2.3078,-2.3078,-2.3365,-2.3826,-2.3326,-2.3806,-1.3093,-1.3601,-1.4514,-1.63,-1.8065,-1.9981,-2.2503,-2.4277,-2.613,-2.8827,-2.8881,-2.8209,-2.7217,-2.6657,-2.5435,-2.2899,-2.2451,-2.2266,-2.1875,-2.2169,-2.2293,-2.2027,-2.2371,-2.2889,-2.3278,-2.2434,-2.1887,-2.1842,-2.257,-2.2509,-2.1263,-2.2919,-2.3666,-2.309,-2.3078,-2.3078,-2.3078,-2.3078,-2.3078,-2.3078,-2.3078,-2.3078,-2.3115,-2.4255,-2.477,-2.487,-2.5875,-2.6242,-2.6211,-2.8007,-2.8965,-2.945,-2.988,-3.0093,-3.0194,-2.9191,-2.8601,-2.8355,-2.8943,-2.8481,-2.7703,-2.8293,-2.8077,-2.7685,-2.8299,-2.8447,-2.8554,-2.917,-2.925,-2.8922,-2.7584,-2.7619,-2.7726,-2.6408,-2.7243,-2.8074,-2.7176,-2.813,-2.8921,-2.8213,-2.9148,-2.9854,-2.944,-3.0396,-3.1053,-3.0482,-2.9095,-2.7714,-2.662,-2.581,-2.5014,-2.4116,-2.4176,-2.3835,-2.2803,-2.2021,-2.1174,-2.0249,-2.1885,-2.2462,-2.1404,-2.3026,-2.3665,-2.3078,-2.3078,-2.3078,-2.3078,-2.3078,-2.3078,-2.3078,-2.3078,-2.3641,-1.2903,-1.328,-1.4117,-1.5959,-1.8671,-2.1203,-2.2746,-2.3378,-2.4048,-2.5573,-2.5752,-2.5602,-2.5359,-2.4986,-2.4241,-2.2774,-2.1953,-2.1475,-2.1387,-2.084,-2.0742,-2.1439,-2.1392,-2.1413,-2.1799,-2.1355,-2.0866,-2.0413,-2.0952,-2.1297,-2.1197,-2.2315,-2.3006,-2.309,-2.3078,-2.3078,-2.3078,-2.3078,-2.3078,0.0,-2.3078,-2.3078,-2.3103,-2.3853,-2.4406,-2.4833,-2.5071,-2.5448,-2.5994,-2.6357,-2.7638,-2.9216,-2.8271,-2.8842,-3.0079,-2.8334,-2.7885,-2.8208,-2.7968,-2.7755,-2.7564,-2.7765,-2.7709,-2.764,-2.7765,-2.7425,-2.6997,-2.7122,-2.6746,-2.6076,-2.5241,-2.5102,-2.4965,-2.4038,-2.5743,-2.7048,-2.5253,-2.6356,-2.7621,-2.7265,-2.7561,-2.8324,-2.9502,-2.9334,-2.9212,-2.9714,-2.844,-2.7374,-2.7256,-2.5921,-2.4722,-2.4314,-2.4137,-2.3715,-2.2805,-2.2835,-2.2722,-2.2252,-2.3644,-2.403,-2.2889,-2.3105,-2.3203,-2.3078,-2.3078,-2.3078,-2.3078,-2.3078,-2.3078,-2.3078,-2.3078,-2.3543,-1.2824,-1.3287,-1.4468,-1.717,-1.9592,-2.1612,-2.2611,-2.2832,-2.2945,-2.3301,-2.3991,-2.4482,-2.4251,-2.4019,-2.341,-2.1804,-2.1211,-2.0771,-2.0361,-1.9902,-1.9752,-2.0031,-1.987,-1.9903,-2.0356,-2.0215,-1.9823,-1.9285,-1.994,-2.0139,-1.9715,-2.1135,-2.2029,-2.2187,-2.2807,-2.3078,-2.3078,-2.3078,-2.3078,-2.3078,-2.3078,-2.3078,-2.309,-2.3728,-2.4155,-2.4443,-2.4707,-2.4684,-2.4597,-2.5572,-2.6533,-2.7266,-2.6849,-2.7338,-2.8124,-2.6626,-2.6363,-2.6674,-2.6459,-2.6399,-2.6519,-2.6558,-2.6538,-2.6563,-2.6572,-2.629,-2.5974,-2.5987,-2.5683,-2.5218,-2.4502,-2.4302,-2.4118,-2.3296,-2.4498,-2.5464,-2.4016,-2.5017,-2.6096,-2.5634,-2.6156,-2.6875,-2.7448,-2.7778,-2.8204,-2.9009,-2.8307,-2.7584,-2.7061,-2.6775,-2.6073,-2.482,-2.5136,-2.4975,-2.3813,-2.4116,-2.4164,-2.3537,-2.464,-2.4682,-2.3353,-2.3441,-2.3427,-2.3078,-2.3078,-2.3078,-2.3078,-2.3078,-2.3078,-2.3078,-2.3078,-2.3531,-1.2968,-1.368,-1.5163,-1.8192,-2.0056,-2.1277,-2.194,-2.2165,-2.2168,-2.1748,-2.2848,-2.3639,-2.3265,-2.3137,-2.2467,-2.083,-2.0439,-2.0098,-1.9385,-1.9219,-1.9043,-1.8682,-1.8516,-1.8547,-1.8895,-1.8923,-1.8716,-1.8331,-1.8921,-1.8935,-1.8068,-1.9886,-2.0985,-2.1069,-2.2357,-2.3088,-2.2927,-2.3027,-2.3078,-2.3078,-2.3078,-2.3078,-2.309,-2.3627,-2.3853,-2.3879,-2.433,-2.4054,-2.3441,-2.5248,-2.5828,-2.5612,-2.5908,-2.6142,-2.6166,-2.4963,-2.4657,-2.4909,-2.4925,-2.5083,-2.5259,-2.5354,-2.5383,-2.5384,-2.5408,-2.5326,-2.5231,-2.5204,-2.5106,-2.4838,-2.4221,-2.4118,-2.3943,-2.3245,-2.3631,-2.3929,-2.322,-2.3961,-2.4611,-2.409,-2.4929,-2.5621,-2.5058,-2.6095,-2.7252,-2.8098,-2.7969,-2.751,-2.6799,-2.7541,-2.744,-2.5468,-2.6206,-2.6356,-2.5075,-2.5319,-2.5283,-2.462,-2.5303,-2.5112,-2.3587,-2.3952,-2.3816,-2.309,-2.3078,-2.3078,-2.3078,-2.3078,-2.3078,-2.3078,-2.3078,-2.3543,-1.3353,-1.4506,-1.5808,-1.6513,-1.8564,-2.0349,-2.0464,-2.0974,-2.1279,-2.083,-2.1548,-2.2192,-2.2132,-2.149,-2.0918,-2.0664,-1.9941,-1.9424,-1.9307,-1.8965,-1.8701,-1.8643,-1.7988,-1.7586,-1.7658,-1.7313,-1.6992,-1.6933,-1.705,-1.7397,-1.7996,-1.9337,-2.0197,-2.0485,-2.2159,-2.2912,-2.2422,-2.2899,-2.3078,-2.3078,-2.3078,-2.3078,-2.3078,-2.3153,-2.3251,-2.319,-2.3265,-2.3624,-2.4189,-2.5127,-2.6176,-2.7058,-2.5924,-2.6109,-2.6772,-2.4227,-2.3689,-2.4164,-2.436,-2.4403,-2.4567,-2.519,-2.5425,-2.5412,-2.5384,-2.4921,-2.4439,-2.4433,-2.3955,-2.3352,-2.3305,-2.3245,-2.3245,-2.3138,-2.3173,-2.3233,-2.3125,-2.3248,-2.3482,-2.3892,-2.4249,-2.4463,-2.4426,-2.4724,-2.5397,-2.6597,-2.6198,-2.6184,-2.7321,-2.6995,-2.6519,-2.6079,-2.6143,-2.5994,-2.5532,-2.5548,-2.5757,-2.6189,-2.6289,-2.5862,-2.4653,-2.4655,-2.4217,-2.309,-2.3078,-2.3078,-2.3078,-2.3078,-2.3078,-2.3078,-2.3078,-2.3628,-1.3855,-1.399,-1.4496,-1.5733,-1.6925,-1.7904,-1.8365,-1.8692,-1.8777,-1.8353,-1.8551,-1.897,-1.9547,-1.9324,-1.8835,-1.8058,-1.8036,-1.7794,-1.6829,-1.6959,-1.7133,-1.7201,-1.71,-1.7119,-1.7363,-1.6992,-1.6631,-1.6377,-1.6357,-1.6424,-1.6517,-1.7807,-1.8566,-1.8697,-2.0593,-2.1492,-2.1247,-2.191,-2.2372,-2.2673,-2.2987,-2.3078,-2.3065,-2.2811,-2.2836,-2.3078,-2.3078,-2.3305,-2.3649,-2.3989,-2.4469,-2.4958,-2.4358,-2.4465,-2.4726,-2.3542,-2.3301,-2.3538,-2.3573,-2.3662,-2.3708,-2.3989,-2.4092,-2.4092,-2.4092,-2.3872,-2.3649,-2.3644,-2.3374,-2.3078,-2.3078,-2.3078,-2.3078,-2.3078,-2.3078,-2.3078,-2.3078,-2.3078,-2.3283,-2.404,-2.4522,-2.4973,-2.5273,-2.5135,-2.5149,-2.5399,-2.5774,-2.6229,-2.6878,-2.738,-2.7396,-2.6751,-2.6971,-2.6884,-2.6164,-2.6118,-2.6189,-2.6508,-2.6533,-2.6143,-2.5275,-2.4946,-2.4443,-2.364,-2.3301,-2.3078,-2.3078,-2.3078,-2.3078,-2.3078,-2.3078,-2.378,-1.3866,-1.3333,-1.33,-1.4525,-1.5262,-1.5763,-1.6296,-1.6528,-1.6556,-1.628,-1.5939,-1.5848,-1.6707,-1.7329,-1.7449,-1.6619,-1.6794,-1.6599,-1.5386,-1.5709,-1.608,-1.6039,-1.6438,-1.6816,-1.7031,-1.665,-1.626,-1.5928,-1.5898,-1.5752,-1.543,-1.6677,-1.7334,-1.717,-1.909,-2.0192,-2.0423,-2.1403,-2.2046,-2.2322,-2.2736,-2.2862,-2.2698,-2.2284,-2.2322,-2.2711,-2.2711,-2.2874,-2.3125,-2.3141,-2.3297,-2.3424,-2.3424,-2.3424,-2.3365,-2.3198,-2.3078,-2.3078,-2.3078,-2.3078,-2.3078,-2.3078,-2.3078,-2.3078,-2.3078,-2.3078,-2.3078,-2.3078,-2.3078,-2.3078,-2.3078,-2.3078,-2.3078,-2.3078,-2.3078,-2.3138,-2.3365,-2.3263,-2.3331,-2.415,-2.4989,-2.5592,-2.5632,-2.537,-2.5038,-2.4847,-2.56,-2.6283,-2.6457,-2.7741,-2.8194,-2.7167,-2.7483,-2.7436,-2.6637,-2.6375,-2.637,-2.6521,-2.6533,-2.6231,-2.5643,-2.5059,-2.4556,-2.4004,-2.3427,-2.3078,-2.3078,-2.3078,-2.3078,-2.3078,-2.3078,-2.4015,-1.3153,-1.3101,-1.3281,-1.2326,-1.3493,-1.4842,-1.4585,-1.5065,-1.5551,-1.5796,-1.4545,-1.3573,-1.3882,-1.5719,-1.7495,-1.8341,-1.7418,-1.6576,-1.654,-1.6531,-1.6387,-1.5941,-1.6373,-1.6572,-1.6172,-1.5732,-1.5469,-1.5449,-1.5449,-1.5439,-1.541,-1.6677,-1.7138,-1.6534,-1.8386,-1.9714,-2.0366,-2.2157,-2.2799,-2.2309,-2.2347,-2.2083,-2.1568,-2.1543,-2.1543,-2.1568,-2.1568,-2.2171,-2.3088,-2.3332,-2.3708,-2.4234,-2.4234,-2.4234,-2.4176,-2.3365,-2.3078,-2.3078,-2.3078,-2.3078,-2.3078,-2.3078,-2.3078,-2.3078,-2.3078,-2.3078,-2.3078,-2.3078,-2.3078,-2.3078,-2.3078,-2.3078,-2.3078,-2.3078,-2.3078,-2.3305,-2.406,-2.3636,-2.3327,-2.4142,-2.5246,-2.569,-2.457,-2.4353,-2.4589,-2.5243,-2.5429,-2.5728,-2.6404,-2.7741,-2.8261,-2.7391,-2.7269,-2.7121,-2.6698,-2.6074,-2.5875,-2.6496,-2.6533,-2.6269,-2.5611,-2.5096,-2.4556,-2.4004,-2.3427,-2.3078,-2.3078,-2.3078,-2.3078,-2.3078,-2.3078,-2.4151,-1.409,-1.351,-1.2947,-1.2684,-1.282,-1.2886,-1.2853,-1.2792,-1.2862,-1.298,-1.2643,-1.26,-1.3338,-1.4268,-1.4856,-1.4623,-1.4665,-1.4656,-1.4501,-1.4955,-1.5446,-1.5981,-1.6192,-1.6357,-1.6484,-1.584,-1.541,-1.541,-1.541,-1.541,-1.541,-1.584,-1.6024,-1.5816,-1.7359,-1.8777,-2.0015,-2.1056,-2.1443,-2.1255,-2.1606,-2.1681,-2.1481,-2.1117,-2.1154,-2.1443,-2.0727,-2.1041,-2.2058,-2.2127,-2.2334,-2.2565,-2.2866,-2.3007,-2.3045,-2.3059,-2.3078,-2.3078,-2.3078,-2.3078,-2.3078,-2.3078,-2.3078,-2.3078,-2.3078,-2.3078,-2.3078,-2.3078,-2.3078,-2.3078,-2.3078,-2.3078,-2.3078,-2.3078,-2.3078,-2.3305,-2.4118,-2.4089,-2.3966,-2.4253,-2.503,-2.5632,-2.5472,-2.4815,-2.4182,-2.3956,-2.4794,-2.5508,-2.5728,-2.6658,-2.7268,-2.7305,-2.6417,-2.5839,-2.5896,-2.5699,-2.585,-2.6496,-2.6533,-2.6433,-2.6163,-2.5611,-2.5209,-2.4906,-2.4405,-2.3866,-2.3078,-2.359,-2.3884,-2.3884,-2.4394,-2.5216,-1.4538,-1.3946,-1.3294,-1.2803,-1.247,-1.2164,-1.1686,-1.1496,-1.1312,-1.1127,-1.1147,-1.1475,-1.2301,-1.2573,-1.2858,-1.323,-1.3528,-1.367,-1.3454,-1.4182,-1.4957,-1.551,-1.5991,-1.6348,-1.6494,-1.584,-1.541,-1.541,-1.541,0.0,-1.541,-1.541,-1.541,-1.541,-1.7016,-1.8377,-1.9376,-2.0424,-2.0907,-2.0718,-2.084,-2.0828,-2.0652,-2.0288,-2.0313,-2.0627,-2.0049,-2.0439,-2.1481,-2.1292,-2.133,-2.1531,-2.1895,-2.2033,-2.2083,-2.2447,-2.2698,-2.2862,-2.2862,-2.2975,-2.3078,-2.3078,-2.3078,-2.3078,-2.3078,-2.3078,-2.3078,-2.3078,-2.3078,-2.3078,-2.3078,-2.3078,-2.3078,-2.3078,-2.3078,-2.3258,-2.3767,-2.391,-2.3974,-2.4266,-2.4724,-2.5201,-2.5431,-2.4847,-2.4106,-2.3566,-2.4372,-2.5007,-2.5007,-2.5673,-2.6386,-2.6949,-2.5884,-2.5353,-2.5887,-2.5702,-2.585,-2.6496,-2.6533,-2.6533,-2.6533,-2.6123,-2.5728,-2.5469,-2.5006,-2.457,-2.4093,-2.4439,-2.4593,-2.4681,-2.5175,-2.5895,0.0,0.0,0.0,-1.2352,-1.2527,-1.2742,-1.1329,-1.1223,-1.122,-1.0551,-1.0119,-1.0096,-1.0598,-1.0765,-1.1723,-1.4577,-1.4314,-1.3673,-1.3673,-1.4522,-1.5031,-1.4539,-1.5796,-1.651,-1.6143,-1.5703,-1.5449,-1.543,-1.543,-1.542,-1.541,-1.541,-1.541,-1.541,-1.7374,-1.843,-1.8487,-2.0419,-2.1099,-2.0614,-2.0049,-1.9459,-1.8983,-1.8958,-1.902,-1.9008,-1.9547,-2.0376,-2.1355,-2.0907,-2.0953,-2.1443,-2.1455,-2.1481,-2.1493,-2.1506,-2.1845,-2.2309,-2.2309,-2.2661,-2.3053,-2.3053,-2.3065,-2.3078,-2.3078,-2.3078,-2.3078,-2.3078,-2.3078,-2.3078,-2.3078,-2.3078,-2.3078,-2.3078,-2.3078,-2.3078,-2.3078,-2.3098,-2.3354,-2.4097,-2.4425,-2.4474,-2.4279,-2.4283,-2.4283,-2.4283,-2.4282,-2.4292,-2.4292,-2.4894,-2.5673,-2.6404,-2.5652,-2.5602,-2.6859,-2.6128,-2.585,-2.6496,-2.6533,-2.6533,-2.6533,-2.6489,-2.6197,-2.5624,-2.5121,-2.5282,-2.6158,-2.5514,-2.5284,-2.5481,-2.5481,-2.6244,-1.5796,0.0,0.0,0.0,0.0,0.0,-1.2289,-1.1777,-1.1109,-1.0089,-0.9949,-0.9863,-0.9285,-1.003,-1.0943,-1.1851,-1.2418,-1.2952,-1.36,-1.3954,-1.4347,-1.4952,-1.5648,-1.6103,-1.5983,-1.6214,-1.623,0.0,-1.5889,-1.5742,-1.543,-1.541,-1.5633,-1.6208,-1.6779,-1.7296,-1.7846,-1.8426,-1.8677,-1.8694,-1.8485,-1.8619,-1.902,-1.8618,-1.8643,-1.902,-1.8756,-1.8832,-1.9158,-1.9786,-2.0137,-2.0313,-2.0727,-2.1142,-2.1543,-2.1933,-2.2184,-2.2309,-2.2309,-2.241,-2.2535,-2.2535,-2.2811,-2.3078,-2.3078,-2.3078,-2.3078,-2.3078,-2.3078,-2.3078,-2.3078,-2.3078,-2.3078,-2.3078,-2.3078,-2.3078,-2.3078,-2.311,-2.3191,-2.3412,-2.3471,-2.3497,-2.3432,-2.3457,-2.3457,-2.3457,-2.3949,-2.4292,-2.4292,-2.4452,-2.4908,-2.5618,-2.4866,-2.479,-2.61,-2.582,-2.585,-2.6496,-2.6533,-2.6533,-2.6533,-2.6514,-2.6425,-2.6214,-2.6088,-2.6491,-2.7489,-2.6889,-2.6699,-2.6899,-2.7472,-2.7909,-1.6321,-1.6066,-1.5557,-1.5585,0.0,0.0,-1.258,-1.2006,-1.131,-0.994,-0.9423,-0.9146,-0.8679,-0.8943,-0.9536,-1.0516,-1.123,-1.1932,-1.3004,-1.3455,-1.3882,-1.4522,-1.5386,-1.5896,-1.5896,-1.6364,-1.6543,-1.6154,-1.6125,-1.5879,-1.5439,-1.541,-1.5584,-1.6036,-1.6322,-1.6708,-1.7146,-1.7268,-1.7558,-1.7879,-1.749,-1.7654,-1.8342,-1.8242,-1.8254,-1.8355,-1.8493,-1.8417,-1.8279,-1.9133,-1.9472,-1.9535,-2.0087,-2.0501,-2.0828,-2.1142,-2.1418,-2.1656,-2.1895,-2.1865,-2.1854,-2.2455,-2.2623,-2.2628,-2.3017,-2.3078,-2.3078,-2.3078,-2.3078,-2.3078,-2.3078,-2.3078,-2.3078,-2.3078,-2.3078,-2.3078,-2.3078,-2.3078,-2.3078,-2.3078,-2.3078,-2.3078,-2.3078,-2.3078,-2.3078,-2.3078,-2.3484,-2.3826,-2.3826,-2.3826,-2.4197,-2.5189,-2.4706,-2.4849,-2.6159,-2.6074,-2.6101,-2.6508,-2.6533,-2.6533,-2.6533,-2.6533,-2.6533,-2.6533,-2.6533,-2.7128,-2.8415,-2.7809,-2.7806,-2.8414,-2.9109,-2.9574,-1.6545,-1.6754,-1.6622,-1.5879,-1.5704,0.0,-1.2784,-1.2294,-1.179,-1.0025,-0.903,-0.8487,-0.8553,-0.8042,-0.8264,-1.0228,-1.0737,-1.113,-1.2191,-1.3025,-1.3528,-1.3528,-1.4796,-1.5689,-1.5824,-1.6347,-1.6553,-1.624,-1.6184,-1.5889,-1.5508,-1.5439,-1.541,-1.541,-1.6036,-1.6379,-1.6379,-1.6667,-1.7085,-1.7682,-1.6799,-1.6759,-1.7488,-1.7852,-1.7815,-1.7513,-1.838,-1.8505,-1.8154,-1.8706,-1.897,-1.9033,-1.9597,-1.9849,-1.9899,-1.9899,-2.0225,-2.074,-2.1162,-2.1113,-2.1045,-2.2392,-2.2335,-2.1908,-2.2772,-2.294,-2.2902,-2.2965,-2.3027,-2.3078,-2.3078,-2.3078,-2.3078,-2.3078,-2.3078,-2.3078,-2.3078,-2.3078,-2.3078,-2.3078,-2.3078,-2.3078,-2.3078,-2.3078,-2.3078,-2.3078,-2.3078,-2.3078,-2.3078,-2.3078,-2.358,-2.4857,-2.4848,-2.5268,-2.6466,-2.6506,-2.6533,-2.6533,-2.6533,-2.6533,-2.6533,-2.6533,-2.6533,-2.6533,-2.6589,-2.7391,-2.8906,-2.8367,-2.8665,-2.9738,-3.0406,-3.1027,-1.7353,-1.7224,-1.7006,-1.7855,-1.661,0.0,-1.5032,-1.3947,-1.2572,-1.0987,-1.0462,-0.9952,-0.8555,-0.8992,-0.9757,-1.0366,-1.1319,-1.2011,-1.2298,-1.2445,-1.2592,-1.2592,-1.3469,-1.4419,-1.5267,-1.6102,-1.6738,-1.7093,-1.6527,-1.6086,-1.5998,-1.5605,-1.541,-1.541,-1.5526,-1.5633,-1.5633,-1.5668,-1.5904,-1.6351,-1.616,-1.6771,-1.8016,-1.7212,-1.7287,-1.8003,-1.7313,-1.7212,-1.7589,-1.8141,-1.8631,-1.9033,-1.9597,-2.0087,-2.0542,-2.0542,-2.0618,-2.0623,-2.0153,-1.9917,-1.9972,-2.0682,-2.0792,-2.0935,-2.2101,-2.2159,-2.1895,-2.2347,-2.2786,-2.3078,-2.3078,-2.3078,-2.3078,-2.3078,-2.3078,-2.3078,-2.3078,-2.3078,-2.3078,-2.3078,-2.3078,-2.3078,-2.3078,-2.3078,-2.3078,-2.3078,-2.3078,-2.3078,-2.3078,-2.3078,-2.3412,-2.4102,-2.4545,-2.5008,-2.5605,-2.6156,-2.6533,-2.6533,-2.6533,-2.6533,-2.6533,-2.6533,-2.6533,-2.6533,-2.7162,-2.7694,-2.8209,-2.8768,-2.9493,-3.0328,-3.106,-3.1492,-1.7695,-1.7701,-1.7642,-1.8152,-1.7614,0.0,0.0,-1.4653,-1.383,-1.2296,-1.1587,-1.0921,-0.9778,-0.9714,-1.0,-1.042,-1.0922,-1.1461,-1.2191,-1.2305,-1.2305,-1.2305,-1.3091,-1.389,-1.4378,-1.572,-1.6834,-1.7346,-1.6562,-1.6125,-1.6125,-1.5644,-1.541,-1.541,-1.541,-1.541,-1.541,-1.5585,-1.5896,-1.6421,-1.658,-1.7181,-1.8191,-1.7614,-1.7513,-1.7777,-1.7488,-1.7375,-1.7451,-1.8279,-1.8781,-1.9033,-1.9597,-1.9974,-2.0238,-2.0238,-2.0238,-2.0223,-2.0163,-1.9634,-1.9157,-2.0483,-2.0423,-1.9995,-2.1453,-2.1707,-2.1606,-2.2159,-2.251,-2.2786,-2.3002,-2.3078,-2.3078,-2.3078,-2.3078,-2.3078,-2.3078,-2.3078,-2.3078,-2.3078,-2.3078,-2.3078,-2.3078,-2.3078,-2.3078,-2.3078,-2.3078,-2.3078,-2.3078,-2.3078,-2.3464,-2.4318,-2.4657,-2.5134,-2.5845,-2.6276,-2.6533,-2.6533,-2.6533,-2.6533,-2.6533,-2.6533,-2.6533,-2.6533,-2.6905,-2.734,-2.7867,-2.8733,-2.9462,-3.0043,-3.0791,-3.1259,-1.7702,-1.7909,-1.8024,-1.798,-1.8211,-1.7891,0.0,0.0,0.0,-1.3912,-1.2987,-1.2189,-1.1596,-1.0954,-1.0581,-1.0829,-1.0847,-1.116,-1.2085,-1.2265,-1.2325,-1.2378,-1.2882,-1.3417,-1.3747,-1.5396,-1.6624,-1.7063,-1.6446,-1.6046,-1.6074,-1.5644,-1.541,-1.541,-1.541,-1.541,-1.541,-1.566,-1.6137,-1.6788,-1.7062,-1.7581,-1.8355,-1.8254,-1.8028,-1.7714,-1.794,-1.7852,-1.7614,-1.8505,-1.8932,-1.9033,-1.9597,-1.9798,-1.9798,-1.9798,-1.9798,-1.9861,-2.022,-1.9479,-1.8657,-2.0507,-2.0325,-1.9657,-2.0779,-2.1242,-2.143,-2.187,-2.2146,-2.241,-2.2802,-2.293,-2.2884,-2.3078,-2.3005,-2.2884,-2.3078,-2.3078,-2.3078,-2.3078,-2.3078,-2.3078,-2.3078,-2.3078,-2.3078,-2.3078,-2.3078,-2.3078,-2.3078,-2.3078,-2.3527,-2.4556,-2.4757,-2.5234,-2.6388,-2.6483,-2.6533,-2.6533,-2.6533,-2.6483,-2.6302,-2.6302,-2.6352,-2.6533,-2.6533,-2.6854,-2.7499,-2.8379,-2.9072,-2.9595,-3.0584,-3.1224,-1.744,-1.7468,-1.7601,-1.8059,-1.7824,-1.7454,-1.7517,0.0,-1.6656,-1.6125,0.0,-1.4653,-1.3862,0.0,0.0,-1.2196,-1.2727,-1.2985,-1.2087,-1.2138,-1.2398,-1.2741,-1.2069,-1.2318,-1.3948,-1.5128,-1.5774,-1.6026,-1.5882,-1.5864,-1.6103,-1.5644,-1.541,-1.541,-1.541,-1.541,-1.541,-1.5419,-1.591,-1.6788,-1.6838,-1.7552,-1.887,-1.843,-1.8442,-1.8794,-1.7877,-1.7714,-1.8129,-1.8242,-1.8581,-1.9033,-1.9597,-1.9798,-1.9798,-1.9798,-1.9798,-1.9708,-1.9117,-1.881,-1.8785,-1.955,-2.0129,-2.0436,-2.0097,-2.0351,-2.0819,-2.084,-2.1556,-2.2322,-2.2385,-2.2212,-2.2199,-2.2944,-2.2567,-2.2261,-2.2957,-2.3078,-2.3078,-2.3078,-2.3078,-2.3078,-2.3078,-2.3078,-2.3078,-2.3078,-2.3078,-2.3078,-2.3078,-2.3078,-2.3315,-2.4017,-2.4531,-2.5239,-2.637,-2.6511,-2.6533,-2.6533,-2.6533,-2.6226,-2.5711,-2.5686,-2.5937,-2.6521,-2.6533,-2.6582,-2.6803,-2.7691,-2.8559,-2.9421,-3.1622,-3.2244,-1.7848,-1.7632,-1.7438,-1.7664,-1.8001,-1.813,-1.7563,-1.7697,-1.7806,-1.7225,0.0,0.0,0.0,0.0,0.0,0.0,-1.3439,-1.3128,-1.2256,-1.1931,-1.1964,-1.2432,-1.2311,-1.2631,-1.3785,-1.4625,-1.5265,-1.5674,-1.6039,-1.6256,-1.6094,-1.5644,-1.541,-1.541,-1.541,-1.541,-1.541,-1.5806,-1.6434,-1.7265,-1.7695,-1.8446,-1.9459,-1.8932,-1.8807,-1.8945,-1.853,-1.8468,-1.8706,-1.9007,-1.9271,-1.9497,-1.971,-1.9798,-1.9798,-1.9798,-1.9798,-1.9747,-1.9423,-1.9044,-1.875,-1.8988,-1.9556,-2.0125,-1.9874,-1.9974,-2.0173,-2.0067,-2.0523,-2.1052,-2.0938,-2.1032,-2.1227,-2.1542,-2.1416,-2.1365,-2.2187,-2.2384,-2.2567,-2.3017,-2.3078,-2.3078,-2.3078,-2.3078,-2.3078,-2.3078,-2.3078,-2.3078,-2.3078,-2.3078,-2.3364,-2.3941,-2.4494,-2.51,-2.5818,-2.5937,-2.5912,-2.5892,-2.6294,-2.642,-2.6101,-2.6101,-2.6214,-2.6521,-2.6533,-2.6531,-2.6601,-2.7954,-2.8581,-2.861,-2.9962,-3.0655,-1.7967,-1.7552,-1.7149,-1.7149,-1.8105,-1.8801,-1.787,-1.8487,-1.9089,-1.8424,-1.8042,0.0,0.0,0.0,-1.6412,-1.4768,0.0,-1.3493,-1.2402,-1.185,-1.1764,-1.2358,-1.2612,-1.2893,-1.315,-1.4041,-1.4676,-1.5041,-1.5901,-1.6325,-1.6094,-1.5762,-1.5586,-1.5586,-1.5586,-1.5527,-1.541,-1.5921,-1.6595,-1.7302,-1.807,-1.8768,-1.9515,-1.9308,-1.9246,-1.9221,-1.8932,-1.8833,-1.8995,-1.9271,-1.9459,-1.9597,-1.953,-1.9631,-1.9798,-1.9798,-1.9798,-1.9798,-1.9798,-1.9475,-1.898,-1.898,-1.9371,-1.9798,-1.9798,-1.9798,-1.9756,-1.9588,-1.9835,-2.017,-1.9889,-2.002,-2.0333,-2.0526,-2.0398,-2.0462,-2.1365,-2.1553,-2.1815,-2.2628,-2.2763,-2.2823,-2.3078,-2.3078,-2.3078,-2.3078,-2.3078,-2.3078,-2.3078,-2.3078,-2.3301,-2.3715,-2.4393,-2.4885,-2.5013,-2.5355,-2.5582,-2.5451,-2.5954,-2.6332,-2.6521,-2.6345,-2.6345,-2.6533,-2.6533,-2.6533,-2.6533,-2.8332,-2.9127,-2.8843,-2.9363,-2.9823,-1.7449,-1.6947,-1.6547,-1.6547,-1.7828,-1.9099,-1.9041,-1.9916,-2.0593,-2.0046,-1.9274,-1.8499,-1.7966,-1.8064,-1.7586,-1.5594,-1.5179,0.0,0.0,-1.2039,-1.2071,-1.2735,-1.2815,-1.2593,-1.2009,-1.3338,-1.4168,-1.3965,-1.5065,-1.5816,-1.6103,-1.6115,-1.6105,-1.6105,-1.6105,-1.584,-1.542,-1.541,-1.5806,-1.6539,-1.7302,-1.8004,-1.8768,-1.9463,-1.9773,-1.9723,-1.8681,-1.853,-1.8933,-1.8468,-1.8568,-1.8996,-1.8799,-1.915,-1.9798,-1.9798,-1.9798,-1.9798,-1.9798,-1.9798,-1.9747,-1.9747,-1.9798,-1.9798,-1.9798,-1.9798,-1.9756,-1.9467,-1.9767,-2.01,-1.9756,-1.9511,-1.9562,-2.0398,-1.9955,-1.9562,-2.0462,-2.0655,-2.091,-2.1753,-2.1939,-2.2199,-2.2944,-2.3078,-2.3078,-2.3078,-2.3078,-2.3078,-2.3078,-2.3078,-2.3078,-2.3103,-2.4155,-2.4593,-2.4091,-2.5026,-2.5589,-2.562,-2.5605,-2.5908,-2.6508,-2.5958,-2.5921,-2.6508,-2.6533,-2.6533,-2.6533,-2.8825,-3.0313,-3.1025,-3.1307,-3.1001,0.0,0.0,-1.6951,-1.6595,0.0,-1.9118,-1.9118,-1.9994,-2.0763,-2.0579,-1.9946,-1.9371,-1.919,-1.9105,-1.8453,-1.6626,-1.614,-1.5213,0.0,-1.2172,-1.2017,-1.2405,-1.2285,-1.2164,-1.2158,-1.3046,-1.3659,-1.3558,-1.5061,-1.5976,-1.6084,-1.6338,-1.6504,-1.6504,-1.6221,-1.5986,-1.584,-1.5557,-1.5748,-1.6492,-1.6765,-1.7523,-1.8715,-1.898,-1.9135,-1.9271,-1.8907,-1.8643,-1.8419,-1.7811,-1.7848,-1.8232,-1.7781,-1.7889,-1.8394,-1.8874,-1.9359,-1.9798,-1.9798,-1.9798,-1.9798,-1.9798,-1.9475,-1.9105,-1.9468,-1.9183,-1.8723,-1.8427,-1.867,-1.896,-1.8319,-1.8329,-1.8529,-1.8787,-1.8654,-1.8654,-1.9562,-1.9759,-2.0009,-2.0846,-2.1491,-2.2013,-2.2261,-2.2763,-2.3078,-2.3078,-2.3078,-2.3078,-2.3078,-2.3078,-2.3305,-2.3826,-2.4971,-2.5612,-2.5587,-2.6091,-2.6193,-2.5668,-2.5967,-2.6294,-2.6521,-2.6307,-2.6294,-2.6521,-2.6533,-2.664,-2.7005,-2.836,-2.9645,-3.0904,-3.1108,-3.1442,-1.8496,-1.7867,0.0,-1.6879,-1.7822,0.0,-1.9064,-1.9683,-2.0191,-2.0191,-1.983,-1.9394,-1.9011,-1.9271,-1.9024,-1.749,-1.6748,-1.5538,0.0,-1.2419,-1.2353,-1.2757,-1.2356,-1.2155,-1.2342,-1.3362,-1.39,-1.3638,-1.5436,-1.6465,-1.6309,0.0,-1.6963,-1.6963,-1.6689,-1.6439,-1.6125,-1.5781,-1.5791,-1.6093,-1.6379,-1.6978,-1.7961,-1.8167,-1.8441,-1.8585,-1.8388,-1.8264,-1.8144,-1.7327,-1.7349,-1.7828,-1.6957,-1.6992,-1.7688,-1.8112,-1.8768,-1.9423,-1.9695,-1.9798,-1.9747,-1.9475,-1.923,-1.8951,-1.9004,-1.8783,-1.8449,-1.8152,-1.826,-1.8338,-1.7757,-1.7803,-1.8008,-1.8008,-1.8008,-1.8134,-1.8721,-1.8854,-1.911,-1.9944,-2.0846,-2.1553,-2.1815,-2.2567,-2.3078,-2.3078,-2.3078,-2.3078,-2.3078,-2.3078,-2.3305,-2.3826,-2.5201,-2.6357,-2.7017,-2.6972,-2.6658,-2.6101,-2.6342,-2.6533,-2.6533,-2.6533,-2.6622,-2.6753,-2.6753,-2.7005,-2.7435,-2.8584,-2.9742,-3.0758,-3.1604,-3.1999]},{"header":{"parameterUnit":"m.s-1","parameterCategory":1,"la1":30.6,"la2":29.2853,"lo1":-89.7004,"lo2":-87.6739,"dy":0.0162,"dx":0.0183,"nx":112,"ny":82,"refTime":"2023-06-05T18:00:00:Z","depth":0,"parameterNumber":3,"parameterNumberName":"V-component_of_WINDS"},"data":[0.0,0.0,0.0,0.0,0.0,0.0,0.0,0.0,0.0,0.0,0.0,0.0,0.0,0.0,0.0,0.0,0.0,0.0,0.0,0.0,0.0,0.0,0.0,0.0,0.0,0.0,0.0,0.0,0.0,0.0,0.0,0.0,0.0,0.0,0.0,0.0,0.0,0.0,0.0,0.0,0.0,0.0,0.0,0.0,0.0,0.0,0.0,0.0,0.0,0.0,0.0,0.0,0.0,0.0,0.0,0.0,0.0,0.0,0.0,0.0,0.0,0.0,0.0,0.0,0.0,0.0,0.0,0.0,0.0,0.0,0.0,0.0,0.0,0.0,0.0,0.0,0.0,0.0,0.0,0.0,0.0,0.0,0.0,0.0,0.0,0.0,0.0,0.0,0.0,0.0,1.8108,1.4393,1.108,0.7844,0.4884,0.3084,0.1632,0.0298,0.0,0.0,0.0,0.0,0.0,0.0,0.0,0.0,0.0,0.0,0.0,0.0,0.0,0.0,0.0,0.0,0.0,0.0,0.0,0.0,0.0,0.0,0.0,0.0,0.0,0.0,0.0,0.0,0.0,0.0,0.0,0.0,0.0,0.0,0.0,0.0,0.0,0.0,0.0,0.0,0.0,0.0,0.0,0.0,0.0,0.0,0.0,0.0,0.0,0.0,0.0,0.0,0.0,0.0,0.0,0.0,0.0,0.0,0.0,0.0,0.0,0.0,0.0,0.0,0.0,0.0,0.0,0.0,0.0,0.0,0.0,0.0,0.0,0.0,0.0,0.0,0.0,0.0,0.0,0.0,0.0,0.0,0.0,0.0,0.0,0.0,0.0,0.0,0.0,0.0,0.0,0.0,0.0,0.0,0.0,0.0,0.0,0.0,0.0,0.0,0.0,0.0,0.0,0.0,1.6555,1.3196,1.0314,0.7486,0.4494,0.2916,0.1869,0.1409,0.0,0.0,0.0,0.0,0.0,0.0,0.0,0.0,0.0,0.0,0.0,0.0,0.0,0.0,0.0,0.0,0.0,0.0,0.0,0.0,0.0,0.0,0.0,0.0,0.0,0.0,0.0,0.0,0.0,0.0,0.0,0.0,0.0,0.0,0.0,0.0,0.0,0.0,0.0,0.0,0.0,0.0,0.0,0.0,0.0,0.0,0.0,0.0,0.0,0.0,0.0,0.0,0.0,0.0,0.0,0.0,0.0,0.0,0.0,0.0,0.0,0.0,0.0,0.0,0.0,0.0,0.0,0.0,0.0,0.0,0.0,0.0,0.0,0.0,0.0,0.0,0.0,0.0,0.0,0.0,0.0,0.0,0.0,0.0,0.0,0.0,0.0,0.0,0.0,0.0,0.0,0.0,0.0,0.0,0.0,0.0,0.0,0.0,0.0,0.0,0.0,0.0,0.0,1.6904,1.5378,1.2903,1.1525,0.9293,0.5638,0.4738,0.3844,0.2795,0.3177,0.0,0.0,0.0,0.0,0.0,0.0,0.0,0.0,0.0,0.0,0.0,0.0,0.0,0.0,0.0,0.0,0.0,0.0,0.0,0.0,0.0,0.0,0.0,0.0,0.0,0.0,0.0,0.0,0.0,0.0,0.0,0.0,0.0,0.0,0.0,0.0,0.0,0.0,0.0,0.0,0.0,0.0,0.0,0.0,0.0,0.0,0.0,0.0,0.0,0.0,0.0,0.0,0.0,0.0,0.0,0.0,0.0,0.0,0.0,0.0,0.0,0.0,0.0,0.0,0.0,0.0,0.0,0.0,0.0,0.0,0.0,0.0,0.0,0.0,0.0,0.0,0.0,0.0,0.0,0.0,0.0,0.0,0.0,0.0,0.0,0.0,0.0,0.0,0.0,0.0,0.0,0.0,0.0,0.0,0.0,0.0,0.0,0.0,0.0,0.0,0.0,0.0,1.6769,1.4709,1.2765,1.2521,1.0874,0.6642,0.622,0.5525,0.4019,0.4765,0.0,0.0,0.0,0.0,0.0,0.0,0.0,0.0,0.0,0.0,0.0,0.0,0.0,0.0,0.0,0.0,0.0,0.0,0.0,0.0,0.0,0.0,0.0,0.0,0.0,0.0,0.0,0.0,0.0,0.0,0.0,0.0,0.0,0.0,0.0,0.0,0.0,0.0,0.0,0.0,0.0,0.0,0.0,0.0,0.0,0.0,0.0,0.0,0.0,0.0,0.0,0.0,0.0,0.0,0.0,0.0,0.0,0.0,0.0,0.0,0.0,0.0,0.0,0.0,0.0,0.0,0.0,0.0,0.0,0.0,0.0,0.0,0.0,0.0,0.0,0.0,0.0,0.0,0.0,0.0,0.0,0.0,0.0,0.0,0.0,0.0,0.0,0.0,0.0,0.0,0.0,0.0,0.0,0.0,0.0,0.0,0.0,0.0,0.0,0.0,0.0,0.0,1.5923,1.4948,1.2673,1.2399,1.0698,0.6355,0.5817,0.5503,0.5041,0.5541,0.0,0.0,0.0,0.0,0.0,0.0,0.0,0.0,0.0,0.0,0.0,0.0,0.0,0.0,0.0,0.0,0.0,0.0,0.0,0.0,0.0,0.0,0.0,0.0,0.0,0.0,0.0,0.0,0.0,0.0,0.0,0.0,0.0,0.0,0.0,0.0,0.0,0.0,0.0,0.0,0.0,0.0,0.0,0.0,0.0,0.0,0.0,0.0,0.0,0.0,0.0,0.0,0.0,0.0,0.0,0.0,0.0,0.0,0.0,0.0,0.0,0.0,0.0,0.0,0.0,0.0,0.0,0.0,0.0,0.0,0.0,0.0,0.0,0.0,0.0,0.0,0.0,0.0,0.0,0.0,0.0,0.0,0.0,0.0,0.0,0.0,0.0,0.0,0.0,0.0,0.0,0.0,0.0,0.0,0.0,0.0,0.0,0.0,0.0,0.0,0.0,0.0,1.5283,1.4603,1.3477,1.2562,1.109,0.8721,0.7662,0.688,0.6371,0.0,0.0,0.0,0.0,0.0,0.0,0.0,0.0,0.0,0.0,0.0,0.0,0.0,0.0,0.0,0.0,0.0,0.0,0.0,0.0,0.0,0.0,0.0,0.0,0.0,0.0,0.0,0.0,0.0,0.0,0.0,0.0,0.0,0.0,0.0,0.0,0.0,0.0,0.0,0.0,0.0,0.0,0.0,0.0,0.0,0.0,0.0,0.0,0.0,0.0,0.0,0.0,0.0,0.0,0.0,0.0,0.0,0.0,0.0,0.0,0.0,0.0,0.0,0.0,0.0,0.0,0.0,0.0,0.0,0.0,0.0,0.0,0.0,0.0,0.0,0.0,0.0,0.0,0.0,0.0,0.0,0.0,0.0,0.0,0.0,0.0,0.0,0.0,0.0,0.0,0.0,0.0,0.0,0.0,0.0,0.0,0.0,0.0,0.0,0.0,0.0,0.0,1.5039,1.484,1.4501,1.3993,1.3113,1.196,1.0699,0.9604,0.8771,0.8261,0.0,0.0,0.0,0.0,0.0,0.0,0.0,0.0,0.0,0.0,0.0,0.0,0.0,0.0,0.0,0.0,0.0,0.0,0.0,0.0,0.0,0.0,0.0,0.0,0.0,0.0,0.0,0.0,0.0,0.0,0.0,0.0,0.0,0.0,0.0,0.0,0.0,0.0,0.0,0.0,0.0,0.0,0.0,0.0,0.0,0.0,0.0,0.0,0.0,0.0,0.0,0.0,0.0,0.0,0.0,0.0,0.0,0.0,0.0,0.0,0.0,0.0,0.0,0.0,0.0,0.0,0.0,0.0,0.0,0.0,0.0,0.0,0.0,0.0,0.0,0.0,0.0,0.0,0.0,0.0,0.0,0.0,0.0,0.0,0.0,0.0,0.0,0.0,0.0,0.0,0.0,0.0,0.0,0.0,0.0,0.0,0.0,0.0,0.0,0.0,0.0,0.0,1.4212,1.4596,1.4715,1.4011,1.3908,1.3357,1.2021,1.1467,1.1,0.0,0.0,0.0,0.0,0.0,0.0,0.0,0.0,0.0,0.0,0.0,0.0,0.0,0.0,0.0,0.0,0.0,0.0,0.0,0.0,0.0,0.0,0.0,0.0,0.0,0.0,0.0,0.0,0.0,0.0,0.0,0.0,0.0,0.0,0.0,0.0,0.0,0.0,0.0,0.0,0.0,0.0,0.0,0.0,0.0,0.0,0.0,0.0,0.0,0.0,0.0,0.0,0.0,0.0,0.0,0.0,0.0,0.0,0.0,0.0,0.0,0.0,0.0,0.0,0.0,0.0,0.0,0.0,0.0,0.0,0.0,0.0,0.0,0.0,0.0,0.0,0.0,0.0,0.0,0.0,0.0,0.0,0.0,0.0,0.0,0.0,0.0,0.0,0.0,0.0,0.0,0.0,0.0,0.0,0.0,0.0,0.0,0.0,0.0,0.0,0.0,0.0,0.0,1.3818,1.4469,1.5013,1.5006,1.4361,1.3703,1.3318,1.2152,1.1146,1.0621,0.0,0.0,0.0,0.0,0.0,0.0,0.0,0.0,0.0,0.0,0.0,0.0,0.0,0.0,0.0,0.0,0.0,0.0,0.0,0.0,0.0,0.0,0.0,0.0,0.0,0.0,0.0,0.0,0.0,0.0,0.0,0.0,0.0,0.0,0.0,0.0,0.0,0.0,0.0,0.0,0.0,0.0,0.0,0.0,0.0,0.0,0.0,0.0,0.0,0.0,0.0,0.0,0.0,0.0,0.0,0.0,0.0,0.0,0.0,0.0,0.0,0.0,0.0,0.0,0.0,0.0,0.0,0.0,0.0,0.0,0.0,0.0,0.0,0.0,0.0,0.0,0.0,0.0,0.0,0.0,0.0,0.0,0.0,0.0,0.0,0.0,0.0,0.0,0.0,0.0,0.0,0.0,0.0,0.0,0.0,0.0,0.0,0.0,0.0,0.0,0.0,0.0,1.3676,1.4315,1.4943,1.5351,1.498,1.4657,1.4657,1.3584,1.2569,1.186,0.0,0.0,0.0,0.0,0.0,0.0,0.0,0.0,0.0,0.0,0.0,0.0,0.0,0.0,0.0,0.0,0.0,0.0,0.0,0.0,0.0,0.0,0.0,0.0,0.0,0.0,0.0,0.0,0.0,0.0,0.0,0.0,0.0,0.0,0.0,0.0,0.0,0.0,0.0,0.0,0.0,0.0,0.0,0.0,0.0,0.0,0.0,0.0,0.0,0.0,0.0,0.0,0.0,0.0,0.0,0.0,0.0,0.0,0.0,0.0,0.0,0.0,0.0,0.0,0.0,0.0,0.0,0.0,0.0,0.0,0.0,0.0,0.0,0.0,0.0,0.0,0.0,0.0,0.0,0.0,0.0,0.0,0.0,0.0,0.0,0.0,0.0,0.0,0.0,0.0,0.0,0.0,0.0,0.0,0.0,0.0,0.0,0.0,0.0,0.0,0.0,0.0,1.3541,1.4142,1.4736,1.5297,1.5618,1.5798,1.5825,1.5339,1.4602,1.3728,0.0,0.0,0.0,0.0,0.0,0.0,0.0,0.0,0.0,0.0,0.0,0.0,0.0,0.0,0.0,0.0,0.0,0.0,0.0,0.0,0.0,0.0,0.0,0.0,0.0,0.0,0.0,0.0,0.0,0.0,0.0,0.0,0.0,0.0,0.0,0.0,0.0,0.0,0.0,0.0,0.0,0.0,0.0,0.0,0.0,0.0,0.0,0.0,0.0,0.0,0.0,0.0,0.0,0.0,0.0,0.0,0.0,0.0,0.0,0.0,1.5205,1.4414,0.0,0.0,0.0,0.0,0.0,0.0,0.0,0.0,0.0,0.0,0.0,0.0,0.0,0.0,0.0,0.0,0.0,0.0,0.0,0.0,0.0,0.0,0.0,0.0,0.0,0.0,0.0,0.0,0.0,0.0,0.0,0.0,0.0,0.0,0.0,0.0,0.0,0.0,0.0,0.0,1.3312,1.4015,1.4656,1.5017,1.5317,1.5578,1.5812,1.5355,1.4737,1.4035,1.3328,0.0,0.0,0.0,0.0,0.0,0.0,0.0,0.0,0.0,0.0,0.0,0.0,0.0,0.0,0.0,0.0,0.0,0.0,0.0,0.0,0.0,0.0,0.0,0.0,0.0,0.0,0.0,0.0,0.0,0.0,0.0,0.0,0.0,0.0,0.0,0.0,0.0,0.0,0.0,0.0,0.0,0.0,0.0,0.0,0.0,0.0,0.0,0.0,0.0,0.0,0.0,0.0,0.0,0.0,0.0,0.0,0.0,0.0,0.0,1.8365,1.7834,0.0,0.0,0.0,0.0,0.0,0.0,0.0,0.0,0.0,0.0,0.0,0.0,0.0,0.0,0.0,0.0,0.0,0.0,0.0,0.0,0.0,0.0,0.0,0.0,0.0,0.0,0.0,0.0,0.0,0.0,0.0,0.0,0.0,0.0,0.0,0.0,0.0,0.0,0.0,0.0,1.3232,1.3854,1.4422,1.4723,1.501,1.5304,1.5591,1.5217,1.471,1.4122,1.3536,0.0,0.0,0.0,0.0,0.0,0.0,0.0,0.0,0.0,0.0,0.0,0.0,0.0,0.0,0.0,0.0,0.0,0.0,0.0,0.0,0.0,0.0,0.0,0.0,0.0,0.0,0.0,0.0,0.0,0.0,0.0,0.0,0.0,0.0,0.0,0.0,0.0,0.0,0.0,0.0,0.0,0.0,0.0,0.0,0.0,0.0,0.0,0.0,0.0,0.0,0.0,0.0,0.0,1.7225,1.8159,1.9307,2.0078,2.1127,2.2261,2.2256,2.185,2.1335,2.0607,0.0,0.0,0.0,0.0,0.0,0.0,0.0,0.0,0.0,0.0,0.0,0.0,0.0,0.0,0.0,0.0,0.0,0.0,0.0,0.0,0.0,0.0,0.0,0.0,2.153,2.1259,1.8248,0.0,0.0,0.0,0.0,0.0,0.0,0.0,0.0,0.0,0.0,0.0,1.3369,1.396,1.4464,1.4563,1.4816,1.514,1.5355,1.5395,1.5103,1.453,1.4282,1.3787,0.0,0.0,0.0,0.0,0.0,0.0,0.0,0.0,0.0,0.0,0.0,0.0,0.0,0.0,0.0,0.0,0.0,0.0,0.0,0.0,0.0,0.0,0.0,0.0,0.0,0.0,0.0,0.0,0.0,0.0,0.0,0.0,2.2715,2.3506,0.0,0.0,0.0,0.0,0.0,0.0,0.0,0.0,0.0,0.0,0.0,0.0,0.0,2.032,2.072,1.8962,1.8023,1.7789,1.9736,2.052,2.0559,2.3131,2.4602,2.5126,2.6277,0.0,2.1335,2.0607,0.0,0.0,0.0,0.0,0.0,0.0,0.0,0.0,0.0,0.0,0.0,0.0,0.0,0.0,0.0,0.0,0.0,0.0,0.0,0.0,0.0,0.0,2.2707,2.2347,2.258,2.2716,0.0,1.9962,1.8199,1.7723,1.6408,0.0,0.0,0.0,0.0,0.0,0.0,0.0,1.4562,1.5058,1.536,1.4932,1.4943,1.5109,1.5376,1.6371,1.669,1.6057,1.6421,1.6154,1.5146,1.4142,0.0,0.0,0.0,0.0,0.0,0.0,0.0,0.0,0.0,0.0,0.0,0.0,0.0,0.0,0.0,0.0,0.0,0.0,0.0,0.0,0.0,0.0,0.0,0.0,0.0,0.0,0.0,0.0,0.0,2.432,2.4331,2.3526,2.3335,2.2713,0.0,0.0,0.0,0.0,0.0,0.0,0.0,0.0,0.0,2.5215,2.351,2.2366,2.1919,2.0505,1.9353,1.8524,2.0308,2.1551,2.2466,2.4654,2.6166,2.7119,2.7786,2.6902,2.4886,2.4076,2.3706,2.3682,0.0,0.0,0.0,0.0,2.2383,2.2656,2.3144,2.3154,2.2988,2.3174,0.0,0.0,0.0,0.0,0.0,0.0,0.0,0.0,0.0,0.0,2.2803,2.2852,2.2998,2.3086,2.291,2.1736,2.06,0.0,1.8806,1.7693,1.7142,1.6084,0.0,0.0,0.0,1.5992,1.5549,1.6166,1.6554,1.6277,1.6498,1.6799,1.7062,1.7795,1.8199,1.7849,1.7703,1.7268,1.6644,1.5798,1.488,0.0,0.0,0.0,0.0,0.0,0.0,0.0,0.0,0.0,0.0,0.0,0.0,0.0,0.0,0.0,0.0,0.0,0.0,0.0,0.0,0.0,0.0,0.0,0.0,0.0,0.0,0.0,0.0,2.6212,2.6626,2.4832,2.5259,2.5128,0.0,0.0,0.0,0.0,0.0,0.0,2.5498,2.5674,2.6133,2.7012,2.5628,2.4536,2.3837,2.2331,2.1218,2.0253,2.1704,2.3108,2.4488,2.5936,2.722,2.8135,2.8252,2.7988,2.7451,2.6807,2.623,2.5605,2.4199,2.3769,2.3857,2.3115,2.3037,2.3398,2.4033,2.3984,2.3662,2.3877,2.3584,2.3018,2.2275,0.0,0.0,0.0,0.0,2.2275,2.2598,2.2676,2.2754,2.3066,2.3135,2.3105,2.2998,2.2734,2.2324,0.0,2.078,1.9836,1.8935,1.7647,0.0,1.6408,1.6772,1.6942,1.6742,1.7333,1.7619,1.7466,1.7705,1.8046,1.8385,1.9059,1.9488,1.9538,1.9229,1.8725,1.8181,1.7381,1.6447,1.5462,0.0,0.0,0.0,0.0,0.0,0.0,0.0,0.0,0.0,0.0,0.0,0.0,0.0,0.0,0.0,0.0,0.0,0.0,0.0,0.0,0.0,0.0,0.0,0.0,0.0,0.0,0.0,0.0,0.0,2.8837,2.9189,0.0,0.0,0.0,0.0,2.7094,2.7231,2.7266,2.6967,2.7314,2.792,2.876,2.7216,2.6507,2.6891,2.5036,2.4073,2.4089,2.5299,2.5909,2.6036,2.7501,2.8066,2.7715,2.8125,2.7822,2.7041,2.7002,2.6494,2.5684,2.5176,2.4727,2.4336,2.3887,2.374,2.3769,2.3809,2.3535,2.331,2.4121,2.3818,2.3057,2.2617,2.248,0.0,0.0,2.2764,2.3076,2.3105,2.3105,2.3105,2.3135,2.3135,2.3027,2.2627,2.2529,2.25,0.0,2.1705,2.1131,2.1063,0.0,1.9228,1.9606,1.9364,1.8898,1.8281,1.8617,1.8619,1.7821,1.7787,1.8003,1.8402,1.9739,2.0679,2.0775,2.14,2.1183,2.0127,1.9009,1.7708,1.6199,1.5219,0.0,0.0,0.0,0.0,0.0,0.0,0.0,0.0,0.0,0.0,0.0,0.0,0.0,0.0,0.0,0.0,0.0,0.0,0.0,0.0,0.0,0.0,0.0,0.0,0.0,0.0,0.0,0.0,3.0676,3.1479,0.0,3.0717,3.1055,3.0996,3.0348,2.985,2.9764,3.0463,2.9739,2.957,3.0176,2.9058,2.8146,2.7245,2.6019,2.4915,2.402,2.5441,2.6155,2.6145,2.7342,2.7812,2.7656,2.7529,2.7295,2.7012,2.7012,2.667,2.6084,2.5352,2.4805,2.4365,2.3945,2.3613,2.3408,2.3691,2.3506,2.3193,2.3496,2.3389,2.3105,2.2959,2.292,2.292,2.292,2.3027,2.3076,2.2812,2.2734,2.2666,2.2402,2.2334,2.2295,2.2139,2.2882,2.3463,2.3084,2.2008,2.1143,2.0859,2.0185,1.9648,1.9531,1.9609,1.9587,1.9355,1.9744,1.9901,1.9635,1.986,2.0033,2.0155,2.0961,2.1499,2.1549,2.1484,2.1275,2.0852,1.9937,1.8892,1.7743,1.7109,1.6609,0.0,0.0,0.0,0.0,0.0,0.0,0.0,0.0,0.0,0.0,0.0,0.0,0.0,0.0,0.0,0.0,0.0,0.0,0.0,0.0,0.0,0.0,0.0,0.0,0.0,3.2514,3.3935,3.2925,3.4334,3.5046,3.3884,3.3908,3.3993,3.4171,3.2679,3.2084,3.2885,3.1385,3.0498,3.0654,2.9951,2.9036,2.7846,2.7168,2.6381,2.5388,2.6381,2.676,2.6621,2.7353,2.751,2.7226,2.708,2.6855,2.6592,2.6748,2.6553,2.6123,2.5684,2.5156,2.459,2.4281,2.384,2.3379,2.3525,2.3477,2.333,2.3184,2.3135,2.3135,2.3135,2.3135,2.3135,2.3135,2.3135,2.3076,2.2793,2.2407,2.2109,2.2148,2.1992,2.1918,2.2159,2.297,2.3668,2.3417,2.3008,2.2469,2.1943,2.1156,2.0587,2.0456,2.0137,2.0019,2.0322,2.0478,2.0566,2.0566,2.0966,2.1181,2.1181,2.173,2.2048,2.1932,2.1425,2.1142,2.1035,2.0281,1.95,1.862,1.8036,1.735,1.6533,0.0,0.0,0.0,0.0,0.0,0.0,0.0,0.0,0.0,0.0,0.0,0.0,0.0,0.0,0.0,0.0,0.0,0.0,0.0,0.0,0.0,0.0,0.0,3.247,3.47,3.627,3.5755,3.8078,3.9308,3.8241,3.8617,3.8807,3.8395,3.5967,3.4318,3.3916,3.1999,3.0674,3.0215,2.9785,2.9365,2.8926,2.8506,2.8291,2.8291,2.8291,2.8086,2.7685,2.7656,2.7197,2.6426,2.6807,2.6504,2.5771,2.6191,2.6113,2.5762,2.6182,2.581,2.5104,2.4927,2.4382,2.3711,2.3291,2.3418,2.3701,2.3271,2.3135,2.3135,2.3135,2.3135,2.3135,2.3135,2.3135,2.3135,2.3105,2.2236,2.1589,2.2252,2.2139,2.2036,2.2579,2.272,2.2892,2.3468,2.4679,2.5363,2.4334,2.3005,2.2185,2.2646,2.1207,0.0,2.1183,2.0909,2.0644,2.0731,2.1063,2.1278,2.1288,2.2039,2.2352,2.1899,2.1447,2.1034,2.0586,2.011,1.9519,1.8682,1.7833,1.7025,1.616,0.0,0.0,0.0,0.0,0.0,0.0,0.0,0.0,0.0,0.0,0.0,0.0,0.0,0.0,0.0,0.0,0.0,0.0,0.0,0.0,0.0,3.5483,3.5881,3.5922,3.6845,3.7965,3.9019,3.9823,4.0475,4.0965,4.0438,3.9965,3.9922,3.7857,3.6179,3.5035,3.3378,3.1765,3.0205,2.9785,2.9365,2.8926,2.8506,2.8291,2.8291,2.8291,2.8232,2.8096,2.748,2.706,2.6816,2.6309,2.5957,2.5752,2.5869,2.5654,2.5264,2.5381,2.5088,2.4541,2.4232,2.38,2.3301,2.3184,2.3213,2.3301,2.3184,2.3135,2.3135,2.3135,2.3135,2.3135,2.3135,2.3135,2.2998,2.2383,2.2026,2.1671,2.124,2.1016,2.1194,2.2029,2.3091,2.4033,2.4513,2.5792,2.6139,2.4062,2.3383,2.3117,2.326,2.2829,0.0,2.28,2.2134,2.2014,2.3178,2.2804,2.2709,2.342,2.3688,2.3122,2.1621,2.1415,2.1009,2.0161,1.9662,1.9528,1.9524,1.8408,1.7842,0.0,0.0,0.0,0.0,0.0,0.0,0.0,0.0,0.0,0.0,0.0,0.0,0.0,0.0,0.0,0.0,0.0,0.0,0.0,0.0,0.0,0.0,3.6642,3.7504,3.8516,3.8697,3.9245,4.0689,4.1065,4.1543,4.2421,4.1505,4.0953,4.1191,3.8907,3.6904,3.5702,3.4076,3.2107,3.0064,2.9697,2.9277,2.8662,2.8418,2.8291,2.8291,2.8291,2.8105,2.7744,2.7246,2.6816,2.6455,2.5957,2.5742,2.5723,2.5537,2.5303,0.0,0.0,0.0,0.0,0.0,2.3359,2.3135,2.3135,2.3135,2.3135,2.3135,2.3135,2.3135,2.3135,2.3135,2.3135,2.3135,2.3135,2.3027,2.2539,2.2035,2.1627,2.123,2.084,2.0934,2.2328,2.3367,2.4306,2.5419,2.6355,0.0,2.504,2.4409,2.4189,2.4322,2.3869,2.3593,2.3806,2.3075,2.3001,2.388,2.3677,2.3558,2.3916,2.4312,0.0,0.0,0.0,2.1521,2.0471,2.0063,0.0,0.0,0.0,1.9145,1.9149,0.0,0.0,0.0,1.8417,1.8546,0.0,0.0,0.0,0.0,0.0,0.0,0.0,0.0,0.0,0.0,0.0,0.0,0.0,0.0,0.0,0.0,3.7896,3.8634,4.0226,4.0108,4.0149,4.1128,4.1668,4.2183,4.2735,4.1856,4.1442,4.1932,3.9414,3.7345,3.6362,3.4408,0.0,0.0,0.0,2.916,2.8301,2.8291,2.8271,2.8223,2.8223,2.7803,2.7012,2.6963,2.6533,2.581,2.5762,2.5713,2.5635,2.5234,2.501,2.4922,2.4922,2.4434,2.3672,2.3281,2.3135,2.3135,2.3135,0.0,0.0,2.3135,2.3135,2.3135,2.3135,2.3135,2.3135,2.3135,2.3105,2.3057,2.3008,2.2184,2.1462,2.1728,2.1143,2.1155,2.3073,2.3514,2.4097,2.6082,2.6533,2.6533,2.6533,2.5734,2.5314,2.5683,2.4615,2.3977,2.4419,2.3982,2.3717,2.3936,0.0,0.0,2.3925,2.4664,2.463,2.3638,2.3066,2.2303,2.1442,2.1057,2.0892,2.087,2.0753,2.0553,2.0245,2.093,2.1386,2.1385,1.9349,1.8972,0.0,0.0,0.0,0.0,0.0,0.0,0.0,0.0,0.0,0.0,0.0,0.0,0.0,0.0,0.0,3.7612,3.8569,3.9407,3.9842,4.0102,4.0438,4.0651,4.0777,4.1053,4.1605,4.1065,4.0714,4.0827,3.989,3.8631,3.7286,3.5772,3.3746,3.1407,3.0218,2.916,2.8301,2.8291,2.8125,2.7783,0.0,0.0,2.7002,2.666,2.6416,2.624,2.5889,2.5527,2.5195,2.5098,2.4658,2.4043,2.4043,2.3721,2.3252,2.3164,2.3135,2.3135,2.3135,2.3135,2.3135,2.3135,2.3135,2.3135,2.3135,2.3135,0.0,2.3135,2.2891,2.2559,2.2217,2.1656,2.117,2.0898,2.0693,2.1155,2.3073,2.3514,2.4097,2.6082,2.6533,2.6533,2.6533,2.6314,2.627,2.63,2.6074,2.598,2.6009,2.5235,2.5214,2.6429,2.5901,2.5757,2.651,2.6756,2.6068,2.4283,2.3367,2.2744,2.2576,2.2469,2.2565,2.2754,2.1777,2.1562,2.2153,2.1181,2.1136,2.185,2.1086,2.0731,0.0,0.0,0.0,0.0,0.0,0.0,0.0,0.0,0.0,0.0,0.0,3.5105,3.5768,0.0,3.6961,3.8152,3.8812,3.9392,3.9674,3.9936,4.0212,4.0488,4.0764,4.104,4.1317,4.084,4.0513,4.0513,4.0011,3.9025,3.7583,3.6811,3.4937,3.1951,3.1069,2.9898,2.8301,2.8291,2.8193,2.7978,2.7773,2.7432,2.7002,2.6582,2.6269,2.6045,2.5596,2.5273,2.5039,2.46,2.4043,2.3467,2.3467,2.333,2.3135,2.3714,2.3551,2.3222,2.3714,2.3551,2.3135,2.3135,2.3135,2.3135,2.3135,2.3135,2.3135,2.3135,2.2832,2.2461,2.2256,2.1719,2.1252,2.1547,2.146,2.1821,2.3818,2.4264,2.4696,2.6233,2.6533,2.6533,2.6533,2.6533,2.6533,2.6533,2.6533,2.6533,2.6533,2.6071,2.6064,2.6816,2.6449,2.6355,2.6854,2.6866,2.6339,2.5025,2.4278,2.3831,2.3839,2.3589,2.3532,2.3634,2.3043,2.2786,2.287,2.2471,2.271,2.3352,2.268,2.1989,0.0,0.0,0.0,0.0,0.0,0.0,0.0,3.6355,3.6604,3.7228,3.7361,3.7508,3.7888,3.7599,3.7589,3.8755,3.8956,3.9182,3.9634,3.9697,3.986,4.03,4.0752,4.1015,4.1015,4.0614,4.0362,4.0362,3.9948,3.9141,3.8019,3.7594,3.5908,3.2674,3.1932,3.0653,2.8708,2.8398,2.8213,2.8037,2.7705,2.7266,2.6758,2.6416,2.6025,2.5576,2.5049,2.4814,2.4756,2.4246,2.3791,2.3464,2.3637,2.3724,2.3887,2.4542,2.4382,2.3887,2.4542,2.4211,2.3387,2.3135,2.3135,2.3135,2.3135,2.3135,2.3125,2.3047,2.2715,2.2373,2.2285,2.1762,2.155,2.2372,2.2453,2.2776,2.4636,2.5004,2.53,2.6314,2.6533,2.6533,2.6533,2.6533,2.6533,2.6533,2.6533,2.6533,2.6533,2.6533,2.6533,2.6533,2.6533,2.6533,2.6533,2.6533,2.6294,2.582,2.5287,2.4971,2.4971,2.4417,2.4129,2.4029,2.3988,2.3733,2.3273,2.3642,2.4089,2.462,2.3666,2.2858,3.7182,3.6206,3.647,3.9415,3.8278,3.7589,0.0,4.1237,3.9966,4.0275,4.1165,4.1255,3.9275,3.9651,3.9953,3.9032,3.9283,3.9622,3.9685,3.9697,3.9722,3.9772,3.9835,3.9873,3.9873,3.9823,3.9785,3.9785,3.9722,3.9581,3.9465,3.7794,3.6398,3.56,3.2652,3.0736,3.012,2.89,2.791,2.7158,2.7109,2.666,2.5879,2.583,2.5566,2.5098,2.4287,2.3935,2.3977,2.4497,2.4669,2.4713,2.5724,2.6141,2.5975,2.5126,2.5378,2.5975,2.5126,2.4702,2.4457,2.3474,2.3135,2.3135,2.3135,2.3135,2.3057,2.2685,2.2275,2.1865,2.1475,2.1607,2.197,2.2035,2.2745,2.3672,2.4779,2.5004,2.53,2.6314,2.6533,2.6533,2.6533,2.6533,2.6533,2.6533,2.6533,2.6533,2.6533,2.6533,2.6533,2.6533,2.6533,2.6533,2.6533,2.6533,2.6496,2.642,2.5812,2.5511,2.5511,2.4987,2.4517,2.3993,2.3976,2.4002,2.3888,2.3412,2.3536,2.408,2.3412,2.3193,3.9061,3.9062,3.9658,4.0793,4.1358,4.2047,4.355,4.3399,4.2986,4.2841,4.3306,4.3105,4.1374,4.1136,4.0971,3.9966,4.0023,4.0174,4.0174,4.0174,3.9936,3.9295,3.9496,3.9697,3.9697,3.9697,3.9697,3.9697,3.9396,3.9358,3.9672,3.8299,3.6974,3.6009,3.4358,3.2835,3.1429,3.0547,3.0024,2.9632,2.8993,2.8528,2.8137,2.696,2.5608,2.4307,2.3945,2.3979,2.44,2.47,2.521,2.5808,2.6307,2.6883,2.736,2.6942,2.6625,2.6554,2.6696,2.5859,2.4702,2.4211,2.3637,2.3135,2.3135,2.3135,2.3134,2.3287,2.3083,2.2777,2.2945,2.2918,2.2999,2.3599,2.4036,2.4636,2.5652,2.5873,2.6025,2.6383,2.6533,2.6533,2.6533,2.6533,2.6533,2.6533,2.6533,2.6533,2.6533,2.6533,2.6658,2.7162,2.6782,2.6714,2.7162,2.6782,2.6382,2.5975,2.5737,2.546,2.5159,2.4937,2.4546,2.4025,2.4028,2.3804,2.347,2.3248,2.3424,2.3963,2.3399,2.3368,4.0144,4.0906,4.1876,4.2264,4.3993,4.5504,4.4921,4.5266,4.5542,4.4995,4.5047,4.4712,4.3041,4.2453,4.1789,4.0727,4.0388,4.0337,4.0488,4.0388,3.9936,3.8981,3.922,3.9396,3.9245,3.9371,3.9471,3.9471,3.9094,3.8981,3.922,3.8454,3.7519,3.6412,3.5238,3.4099,3.2639,3.1746,3.1225,3.1091,3.0365,2.9885,2.9502,2.7457,2.5702,2.4217,2.3751,2.4102,2.4787,2.5126,2.5964,2.6964,2.7302,2.7867,2.8597,2.8597,2.8119,2.7464,2.7936,2.7012,2.5692,2.5378,2.4713,2.4039,2.3821,2.378,2.3839,2.3998,2.3817,2.3659,2.396,2.3942,2.4108,2.4862,2.5229,2.5581,2.6314,2.6533,2.6483,2.6251,2.6214,2.6214,2.6214,2.6214,2.6276,2.6496,2.6533,2.6533,2.6533,2.6714,2.7146,2.7961,2.7549,2.751,2.821,2.7433,2.6814,2.653,2.6013,2.5602,2.5192,2.4873,2.4342,2.3766,2.3766,2.3566,2.3078,2.3078,2.3351,2.3753,2.3265,2.3364,3.9719,4.0661,4.1939,4.4832,4.6041,4.6568,4.7036,4.7444,4.7434,4.6401,4.68,4.6418,4.3948,4.349,4.2844,4.0819,4.0061,3.991,4.0438,4.0061,3.9509,3.8944,3.8881,3.8668,3.8115,3.8567,3.8894,3.8894,3.8881,3.863,3.809,3.8027,3.7764,3.7224,3.4847,3.3505,3.3493,3.1615,3.0459,3.0075,3.0041,2.9527,2.8589,2.6395,2.5445,2.5305,2.3759,2.3724,2.4872,2.5975,2.7035,2.8176,2.9287,2.9702,2.9792,2.9792,2.9714,2.9546,2.8426,2.8084,2.7844,2.6801,2.64,2.63,2.5728,2.5491,2.5383,2.4425,2.4147,2.41,2.3597,2.4204,2.4933,2.5004,2.5734,2.6452,2.6452,2.6533,2.6302,2.5737,2.5624,2.5624,2.5624,2.5624,2.5812,2.6445,2.6533,2.6533,2.6533,2.7162,2.8014,2.8878,2.893,2.9162,2.968,2.8616,2.8243,2.887,2.7212,2.6145,2.6043,2.4918,2.394,2.3163,2.3103,2.3103,2.3078,2.3078,2.3078,2.3103,2.3078,2.3078,3.9656,4.1559,4.3806,4.5727,4.7955,4.9427,4.8723,4.9069,4.8921,4.6719,4.5783,4.4457,4.1691,4.1404,4.095,3.9132,3.9936,4.0727,4.0538,4.0676,4.0162,3.8492,3.8642,3.8492,3.755,3.7965,3.8454,3.8843,3.8178,3.799,3.8555,3.7525,3.6998,3.7174,3.5623,3.4854,3.4854,3.3484,3.2744,3.2563,3.1837,3.0501,2.8792,2.8012,2.6757,2.4932,2.4444,2.4457,2.4872,2.6058,2.7128,2.8176,2.9365,2.9792,2.9792,2.9792,2.9792,2.9714,2.9365,2.8767,2.7956,2.7284,2.6531,2.5797,2.5216,2.5071,2.5094,2.5125,2.5089,2.5195,2.542,2.5721,2.6025,2.6025,2.6233,2.6533,2.6533,2.6533,2.6289,2.5711,2.5598,2.5485,2.5146,2.536,2.5787,2.6445,2.6533,2.6714,2.7229,2.755,2.8235,2.9715,2.9338,2.9296,3.0078,2.924,2.845,2.7842,2.7547,2.6877,2.5704,2.5577,2.5029,2.391,2.4226,2.4003,2.3078,2.3528,2.3516,2.3078,2.3078,2.3078,3.9771,4.1933,4.4172,4.5618,4.8082,4.9796,4.8302,4.8792,4.8827,4.6388,4.4623,4.2772,4.0446,3.9467,3.8836,3.8126,3.9013,3.9981,4.0428,4.1016,4.0642,3.8554,3.9117,3.9064,3.766,3.7613,3.7864,3.8241,3.7776,3.7626,3.7952,3.7136,3.6646,3.6596,3.5717,3.5152,3.4964,3.406,3.3508,3.3282,3.2177,3.0922,2.9476,2.8853,2.7661,2.5942,2.5535,2.5619,2.6025,2.6789,2.7695,2.8767,2.9534,2.9792,2.9792,2.9792,2.9792,2.9792,2.9792,2.9287,2.8603,2.8045,2.74,2.6624,2.5925,2.5716,2.5698,2.5865,2.5937,2.6007,2.6402,2.6533,2.6533,2.6533,2.6533,2.6533,2.6533,2.6302,2.5988,2.5423,2.5159,2.4983,2.4845,2.5423,2.6025,2.6471,2.6533,2.6782,2.7604,2.7986,2.8684,3.0133,3.0072,3.0133,3.0703,2.9992,2.9192,2.8453,2.828,2.7582,2.6218,2.6274,2.5896,2.5097,2.5384,2.5146,2.4258,2.4674,2.4532,2.3929,2.3929,2.3929,4.0124,4.1744,4.3223,4.4691,4.6662,4.784,4.605,4.6764,4.7204,4.5507,4.3366,4.1371,4.0011,3.803,3.6896,3.7793,3.7558,3.8057,4.025,4.1207,4.0992,3.9182,4.0089,4.0037,3.8151,3.7525,3.7211,3.7186,3.7651,3.7475,3.6458,3.6872,3.6646,3.5579,3.5014,3.4449,3.3859,3.3282,3.2704,3.2127,3.111,3.0608,3.0478,2.8906,2.8176,2.8004,2.7046,2.7128,2.8004,2.8096,2.8767,2.9702,2.9792,2.9792,2.9792,2.9792,2.9792,2.9792,2.9792,2.9792,2.9691,2.9089,2.8888,2.8687,2.757,2.7243,2.713,2.6603,2.6533,2.6533,2.6533,2.6533,2.6533,2.6533,2.6533,2.6533,2.6533,2.6,2.5435,2.4921,2.4381,2.4167,2.472,2.5711,2.6496,2.6521,2.6533,2.6782,2.767,2.8492,2.938,3.0269,3.1029,3.1482,3.1482,3.0941,3.0537,3.0492,2.9346,2.8331,2.7609,2.6966,2.6541,2.6397,2.6524,2.6497,2.6362,2.6397,2.609,2.5418,2.542,2.5406,4.0179,4.1985,4.3723,4.4642,4.6244,4.7235,4.5941,4.6052,4.5758,4.3566,4.1501,3.9235,3.6473,3.6346,3.6707,3.697,3.8899,4.097,4.2521,4.3232,4.2766,4.0546,4.0552,4.0037,3.8151,3.7889,3.7626,3.7211,3.6935,3.6835,3.6973,3.6722,3.6257,3.5567,3.5014,3.4261,3.3294,3.2315,3.1549,3.1022,3.0746,3.0407,3.0005,2.9596,2.8937,2.8084,2.7844,2.736,2.6964,2.7763,2.8255,2.8597,2.9456,2.9792,2.9792,2.9792,2.9792,2.9792,2.9792,2.9792,2.9628,2.8637,2.831,2.8109,2.7005,2.6666,2.671,2.6571,2.6533,2.6533,2.6533,2.6533,2.6533,2.6533,2.6533,2.6533,2.6533,2.6,2.5435,2.4921,2.4381,2.4167,2.472,2.5372,2.5963,2.6458,2.6533,2.704,2.8492,2.8876,2.9566,3.1029,3.1409,3.1482,3.1482,3.1317,3.1031,3.0518,2.9759,2.9041,2.8353,2.8177,2.7533,2.652,2.7838,2.7581,2.5672,2.655,2.6465,2.539,2.5416,2.5381,4.1085,4.2425,4.3655,4.4052,4.4848,4.5244,4.4083,4.3884,4.3366,4.1475,3.9401,3.7389,3.5534,3.5489,3.5984,3.6684,3.9078,4.1391,4.2831,4.4024,4.4075,4.2167,4.2521,4.21,4.0189,4.0053,3.952,3.8049,3.7159,3.6747,3.6822,3.6295,3.5742,3.5203,3.465,3.3822,3.2704,3.1599,3.0909,3.062,3.0369,3.0093,2.9792,2.9792,2.9456,2.8858,0.0,2.853,2.7971,2.8609,2.8858,2.8937,2.9534,2.9792,2.9792,2.9792,2.9792,2.9754,2.9503,2.9252,2.8875,2.7755,2.7004,2.6358,2.5978,2.5873,2.5955,2.6383,2.6533,2.6533,2.6533,2.6533,2.6533,2.6533,2.6533,2.6533,2.6533,2.5824,2.5021,2.423,2.423,2.4456,2.477,2.546,2.6088,2.6483,2.6533,2.6989,2.8443,2.8856,2.9628,3.1351,3.1482,3.1482,3.1482,3.1482,3.121,3.0558,3.0212,2.9579,2.8627,2.8617,2.8253,2.7419,2.8485,2.8267,2.6833,2.7511,2.7321,2.6346,2.6366,2.6353,4.2177,4.2836,4.3314,4.3225,4.321,4.2836,4.1444,4.1115,4.0726,3.932,3.7414,3.5983,3.5754,3.522,3.5307,3.7008,3.8818,4.0778,4.2678,4.4339,4.4978,4.3929,4.4734,4.4676,4.2661,4.2523,4.163,3.9322,3.7938,3.6938,3.627,3.573,3.5152,3.4525,3.3897,3.3068,3.2014,3.1009,3.0507,3.0507,3.0018,2.9792,2.9792,2.9792,2.9792,2.9792,2.9792,2.9792,2.9792,2.9792,2.9792,2.9779,2.9704,2.9729,2.9779,2.9628,2.9616,2.9591,2.9013,2.8374,2.7667,2.6881,2.5511,2.442,2.4886,2.4968,2.5133,2.622,2.6533,2.6533,2.6533,2.6533,2.6533,2.6533,2.6533,2.6508,2.6433,2.5485,2.4418,2.3439,2.4104,2.482,2.482,2.5737,2.6496,2.642,2.6483,2.6925,2.7967,2.8656,2.9628,3.1351,3.1482,3.1482,3.1482,3.1482,3.1255,3.0653,3.0535,2.9952,2.8773,2.8738,2.8647,2.849,2.8642,2.8657,2.849,2.8531,2.8248,2.7625,2.7625,2.7625,4.2177,4.2836,4.321,4.2671,4.2536,4.2043,4.0187,3.9768,3.923,3.7375,3.6671,3.5961,3.4596,3.501,3.6196,3.8326,3.9679,4.1686,4.5154,4.5883,4.5868,4.5121,4.5298,4.4676,4.2661,4.215,4.1465,4.0453,3.8429,3.6819,3.5692,3.5165,3.4399,3.3395,3.2365,3.1524,3.0896,3.0256,2.993,2.993,2.9842,2.9792,2.9792,2.9792,2.9792,2.9792,2.9792,0.0,2.9792,2.9792,2.9792,2.9741,2.9264,2.9365,2.9679,2.875,2.8687,2.9001,2.8448,2.7336,2.6263,2.6433,2.5542,2.4434,2.5277,2.4957,2.4687,2.6108,2.6533,2.6533,2.6533,2.6533,2.6533,2.6533,2.6533,2.6327,2.585,2.4895,2.4079,2.3891,2.4368,2.482,2.482,2.5737,2.6302,2.5824,2.6151,2.6915,2.8071,2.8657,2.9628,3.1351,3.1482,3.1482,3.1482,3.1482,3.1422,3.1345,3.081,3.0208,2.9477,2.9413,2.8915,2.7795,2.8867,2.8882,2.7765,2.8351,2.8255,2.7625,2.7625,2.7625,4.2177,4.2836,4.3254,4.294,4.2102,4.101,3.9709,3.8631,3.7524,3.6237,3.5968,3.5732,3.4898,3.5746,3.6904,3.7987,3.9517,4.1465,4.4355,4.5065,4.5516,4.6285,4.605,4.5405,4.4094,4.3762,4.2768,4.0788,3.9704,3.836,3.6573,3.4806,3.3483,3.2654,3.1562,3.0871,3.062,3.0068,2.9792,2.9792,2.9792,2.9792,2.9792,2.9792,2.9792,2.9792,2.9792,2.9792,2.9792,2.9792,2.9616,2.9315,2.9038,2.8925,2.885,2.831,2.8273,2.8423,2.7871,2.7008,2.6107,2.5727,2.48,2.4084,2.4972,2.4972,2.4951,2.6158,2.6533,2.6533,2.6533,2.6782,2.7095,2.7095,2.6943,2.6491,2.555,2.4658,2.3916,2.3602,2.4004,2.4481,2.477,2.5485,2.6013,2.6038,2.6276,2.6886,2.8021,2.8663,2.9628,3.1351,3.1482,3.1482,3.1482,3.1482,3.1482,3.1482,3.1225,3.075,3.0089,3.0066,2.9463,2.8121,2.8771,2.8591,2.7625,2.7904,2.7889,2.7625,2.7625,2.7625,4.2147,4.2836,4.3299,4.3165,4.1743,4.0157,3.92,3.7689,3.6252,3.5444,3.54,3.5504,3.5504,3.6327,3.709,3.736,3.8736,4.0546,4.2806,4.3688,4.4796,4.6651,4.6546,4.5992,4.517,4.5095,4.3961,4.12,4.0452,3.929,3.719,3.4803,3.3264,3.2662,3.1701,3.1137,3.1022,3.0432,3.0075,3.0075,2.9856,2.9792,2.9792,2.9792,2.9792,2.9792,2.9792,2.9792,2.9779,2.9654,2.9415,2.9076,2.8712,2.8461,2.8235,2.7883,2.7821,2.7846,2.7293,2.6816,2.6302,2.531,2.421,2.3484,2.4505,2.4728,2.4917,2.6021,2.6433,2.6496,2.637,2.7005,2.7696,2.7761,2.7253,2.6472,2.5506,2.4722,2.4039,2.3414,2.3866,2.4443,2.477,2.536,2.5887,2.6226,2.6544,2.7061,2.8003,2.8823,2.985,3.1336,3.1482,3.1482,3.1482,3.1482,3.1482,3.1482,3.1482,3.1215,3.0524,3.0526,2.9993,2.8853,2.8524,2.8174,2.7773,2.7321,2.7211,2.7277,2.7327,2.7369,4.2013,4.2836,4.3195,4.2596,4.1414,3.9918,3.8018,3.7015,3.6118,3.4846,3.507,3.5504,3.5504,3.5609,3.6058,3.7225,3.7569,3.8796,4.1998,4.3045,4.3973,4.5319,4.5978,4.5813,4.4526,4.4407,4.3758,4.2369,3.9638,3.7599,3.6367,3.5576,3.484,3.421,3.3479,3.2878,3.2403,3.1489,3.1031,3.1044,3.0216,2.9792,2.9792,2.9792,2.9792,2.9792,2.9792,2.9792,0.0,2.9227,2.9289,2.9566,2.8034,2.8009,2.8674,2.7168,2.6929,2.7281,2.6798,2.6571,2.642,2.5724,2.4308,2.2941,2.3813,2.3888,2.3953,2.5324,2.605,2.6339,2.5812,2.6696,2.7735,2.7939,2.7124,2.6163,2.5871,2.5384,2.4788,2.404,2.4745,2.531,2.4895,2.5686,2.6214,2.5749,2.6751,2.7742,2.814,2.9371,3.0528,3.1437,3.1482,3.1482,3.1482,3.1482,3.1482,3.1482,3.1482,3.1183,3.0526,3.0507,3.0178,2.952,2.8257,2.7816,2.8209,2.6441,2.5841,2.6299,2.65,2.6579,4.0845,4.1953,4.2776,4.291,4.1055,3.9095,3.8706,3.6881,3.5235,3.5115,3.531,3.5504,3.5504,3.5504,3.5669,3.6178,3.6267,3.7135,3.9619,4.0202,4.1309,4.3808,4.4018,4.4032,4.4287,4.3599,4.2596,4.128,3.8764,3.7103,3.6699,3.5063,3.4052,3.379,3.3197,3.2842,3.2593,3.1669,3.118,3.118,3.0279,2.9792,2.9792,2.9792,2.9792,2.9792,2.9792,2.9591,0.0,2.9026,2.8674,2.821,2.7544,2.7344,2.7369,2.6703,2.6672,2.6753,2.6596,2.6239,2.585,2.531,2.4402,2.3589,2.4254,2.4586,2.49,2.5469,2.6013,2.6451,2.6308,2.7126,2.8134,2.8282,2.7639,2.6835,2.6357,2.5409,2.4623,2.4689,2.4633,2.477,2.5209,2.5649,2.6164,2.6788,2.7341,2.815,2.929,2.9966,3.0587,3.1394,3.1482,3.1482,3.1482,3.1482,3.1482,3.1482,3.1482,3.1347,3.1135,3.112,3.0806,3.0148,2.9126,2.8512,2.8325,2.6986,2.629,2.618,2.6287,2.6375,3.9849,4.1265,4.2417,4.2686,4.0711,3.8766,3.905,3.6633,3.4475,3.4963,3.4839,3.4706,3.5001,3.5067,3.5133,3.5439,3.5504,3.6118,3.7853,3.8257,3.9334,4.1878,4.1938,4.2147,4.3075,4.2327,4.1309,4.0187,3.8251,3.7054,3.6879,3.5067,3.3987,3.3854,3.3339,3.3171,3.3463,3.2249,3.1609,3.1609,3.0355,2.9792,2.9792,3.0075,3.0075,2.9792,3.0075,2.9732,0.0,2.9035,2.8635,2.7895,2.7816,2.7374,2.6824,2.6659,2.6595,2.6595,2.6595,2.6447,2.6194,2.5409,2.4797,2.4327,2.4318,2.4808,2.536,2.536,2.5661,2.6168,2.6905,2.7253,2.7652,2.8426,2.8045,2.7326,2.6664,2.5647,2.4882,2.5071,2.4779,2.4707,2.5473,2.5924,2.6552,2.7538,2.8117,2.8939,3.0133,3.0524,3.0896,3.1409,3.1287,3.1258,3.1452,3.1482,3.1482,3.1482,3.1482,3.1482,3.1482,3.1482,3.13,3.0806,2.9595,2.8736,2.8251,2.6845,2.5942,2.5553,2.5598,2.5685,3.9293,4.0906,4.2207,4.1564,4.0397,3.923,3.8556,3.6123,3.4013,3.4013,3.331,3.289,3.3808,3.4027,3.4327,3.5359,3.5504,3.5953,3.724,3.7973,3.8661,3.9379,4.0023,4.0427,4.0442,4.0427,4.0142,3.9484,3.8182,3.715,3.6537,3.5878,3.5296,3.5018,3.4344,3.4461,3.5439,3.3547,3.2593,3.2522,3.0709,2.9792,2.9869,3.0758,3.0696,2.9856,3.0758,3.0284,0.0,2.9288,2.9394,2.9333,2.9097,2.8441,2.7604,2.709,2.6878,2.6878,2.6878,2.7373,2.7749,2.6502,2.5625,2.4805,2.3495,2.3941,2.4833,2.4833,2.4833,2.532,2.7461,2.6707,2.5965,2.8098,2.8083,2.7423,2.6669,2.6315,2.5949,2.5269,2.5333,2.5586,2.5598,2.6762,2.7657,2.767,2.9192,3.0269,3.0329,3.1029,3.1482,3.1482,3.0926,3.0791,3.1422,3.1482,3.1482,3.1482,3.1482,3.1482,3.1482,3.1482,3.1482,3.1467,2.9337,2.8227,2.8213,2.5361,2.4004,2.4041,2.4229,2.4292,3.857,3.933,3.994,4.0659,3.9098,3.7464,3.7674,3.5477,3.3537,3.3941,3.3241,3.2678,3.2961,3.3031,3.3171,3.3463,3.3533,3.3882,3.4932,3.5009,3.6043,3.9071,4.0786,4.1205,3.9858,4.0127,3.9738,3.8167,3.7043,3.6149,3.5521,3.4235,3.4074,3.5281,3.4496,3.4177,3.4461,3.3241,3.2593,3.2593,3.1974,3.1683,3.1683,3.2033,3.196,3.1669,3.1527,3.1026,3.0153,2.9835,2.9494,2.9152,2.9027,2.8551,2.7805,2.7123,2.6614,2.6311,2.6733,2.6175,2.5374,2.5942,2.5058,2.3653,2.3248,2.3929,2.4895,2.5247,2.5806,2.6344,2.6681,2.686,2.7078,2.7742,2.8083,2.8211,2.8002,2.7799,2.7596,2.7141,2.677,2.6414,2.6223,2.7009,2.7918,2.8478,2.9566,3.0524,3.1029,3.1351,3.1482,3.1482,3.0911,3.0597,3.0806,3.0447,3.0193,3.0193,3.0597,3.0836,3.0836,3.1285,3.1482,3.1482,3.0261,2.9377,2.8964,2.6934,2.5331,2.3979,2.4229,2.4002,3.7927,3.8793,3.9433,3.9725,3.857,3.7192,3.6783,3.5022,3.3509,3.3653,3.2807,3.2177,3.2522,3.2321,3.2321,3.3031,3.3101,3.3395,3.422,3.4144,3.4995,3.7724,3.9728,4.0277,3.8811,3.926,3.8931,3.7195,3.6537,3.5883,3.5239,3.4257,3.4143,3.5115,3.4412,3.4177,3.4543,3.3602,3.3101,3.3087,3.2513,3.2386,3.2593,3.2723,3.2751,3.2566,3.2318,3.165,0.0,3.0411,2.9798,2.9038,2.9114,2.8407,2.7182,2.6534,2.5968,2.5691,2.6136,2.5682,2.4975,2.5559,2.4563,2.3153,2.3578,2.4117,2.4619,2.5159,2.5716,2.6142,2.6157,2.6806,2.7521,2.7906,2.8293,2.8667,2.8921,2.8488,2.8026,2.8,2.7412,2.6801,2.6531,2.7139,2.7891,2.8584,2.9501,3.0451,3.1394,3.1482,3.1482,3.1482,3.1102,3.0679,3.0193,2.9804,2.9579,2.9579,2.9939,3.0163,3.0163,3.0567,3.0791,3.0791,3.0221,2.9477,2.8613,2.6775,2.5117,2.3665,2.3769,2.3603,0.0,3.9026,4.0213,3.8918,3.8601,3.8018,3.6008,3.4736,0.0,3.3301,3.2165,3.1483,3.2307,3.1815,3.1742,3.3463,3.3671,3.3899,3.4625,3.491,3.5267,3.5812,3.7384,3.8167,3.7419,3.7943,3.7793,3.6507,3.6462,3.6178,3.5474,3.5429,3.5115,3.4427,3.4142,3.4397,3.5225,3.433,3.3883,3.3883,3.2442,3.2111,3.2667,3.3015,3.299,0.0,3.2915,3.2236,0.0,3.0998,3.0247,2.9066,2.9209,2.7977,2.606,2.5428,2.523,2.5216,2.5216,2.5643,2.6123,2.5295,2.418,2.3265,2.4381,2.4406,2.4167,2.472,2.487,2.5167,2.6063,2.6779,2.7523,2.8468,2.8697,2.8906,2.9465,2.8565,2.7754,2.7925,2.7413,2.6844,2.6557,2.7149,2.7814,2.8035,2.9044,3.0201,3.1321,3.1482,3.1482,3.1482,3.1438,3.0875,2.9624,2.9564,2.9549,2.9445,2.9535,2.9564,2.9505,2.9549,2.9579,2.9579,2.9345,2.867,2.7472,2.5406,2.3943,2.3185,2.3138,2.3078,3.6705,0.0,3.8557,3.8748,3.8402,3.7725,0.0,3.5248,3.411,3.3928,3.2585,3.149,3.1516,3.1315,3.1119,3.0859,3.0784,3.1268,3.2487,3.526,3.6739,3.5557,3.7608,3.8527,3.6866,3.727,3.7105,3.5833,3.6207,3.5968,3.4786,3.4726,3.4412,3.3754,3.3672,3.3416,3.2875,3.2652,3.2522,3.2587,3.3404,3.3598,3.3289,3.3898,3.3883,3.3231,3.28,3.2431,3.2041,3.0942,3.0036,2.924,2.8693,2.7621,2.6257,2.5448,2.517,2.5137,2.517,2.4896,2.4445,2.3815,2.3346,2.3128,2.3452,2.4042,2.4732,2.5259,2.5844,2.6382,2.684,2.7507,2.8297,2.9154,2.9714,2.9922,2.9491,2.9493,2.9277,2.8008,2.7664,2.7302,2.6607,2.7193,2.7811,2.8071,2.9044,3.0201,3.1321,3.1482,3.1482,3.1482,3.0638,2.9759,2.9149,2.9406,2.9146,2.815,2.9011,2.9355,2.8846,2.931,2.9579,2.9579,2.9059,2.837,2.7491,2.591,2.4724,2.4002,2.3365,2.3078,3.7261,3.8002,3.8351,3.8385,3.8351,3.7915,3.6565,3.5765,3.506,3.4045,3.3044,3.2217,3.2082,3.1697,3.1433,3.1656,3.1567,3.18,3.289,3.4851,3.6062,3.5662,3.7288,3.7973,3.6611,3.6791,3.6567,3.5579,3.5534,3.525,3.4517,3.4188,3.3724,3.3066,3.3036,3.2911,3.2742,3.2757,3.2553,3.2141,3.3143,3.3344,3.2945,3.3344,3.3544,3.3455,3.2796,0.0,3.2378,3.0645,2.9645,2.9082,2.7459,2.6324,2.554,2.458,2.4206,2.4172,2.4206,2.393,2.3552,2.3238,2.3078,2.3226,2.3753,2.433,2.482,2.4858,2.5523,2.6336,2.7045,2.7907,2.8867,2.9781,2.9959,2.9928,2.9811,2.9611,2.9114,2.7904,2.7775,2.7577,2.6645,2.6841,2.709,2.6908,2.8574,2.9921,3.0178,3.0952,3.1482,3.1482,3.0896,3.0227,2.9654,3.0152,2.9639,2.7694,2.7988,2.7998,2.7659,2.7968,2.8468,2.9131,2.8472,2.7913,2.7472,2.6458,2.5342,2.4292,2.3826,2.3424,3.7998,3.8883,3.9101,3.8437,3.8764,3.8705,3.6632,3.6538,3.6342,3.4373,3.3722,3.3401,3.3266,3.2549,3.236,3.3585,3.3619,3.3817,3.4548,3.4685,3.5036,3.5812,3.6748,3.703,3.6402,3.6342,3.6103,3.5549,3.4861,3.4427,3.4322,3.3709,3.2991,3.2228,3.2198,3.2422,3.2886,3.3095,3.2788,3.1916,3.2193,3.2161,3.1916,3.2193,3.2631,3.3155,0.0,0.0,3.2198,3.0089,2.8997,2.8484,2.5961,2.4903,2.4569,2.3466,2.3228,2.3502,2.3366,2.3215,2.3078,2.3078,2.3128,2.3439,2.4406,2.4808,2.482,2.428,2.4895,2.5996,2.6999,2.8044,2.9053,3.0061,2.9755,2.9368,2.9836,2.9086,2.8184,2.7604,2.7696,2.7548,2.6671,2.6533,2.6319,2.569,2.7628,2.9078,2.8897,3.0294,3.1332,3.1467,3.1377,3.115,3.0552,3.0956,3.0212,2.7854,2.7117,2.6644,2.6351,2.6336,2.6953,2.8234,2.7727,2.7469,2.752,2.6823,2.5783,2.4465,2.4345,2.3878,3.7317,3.9108,4.0446,4.0417,4.0517,4.0206,3.8806,3.8133,3.7486,3.6406,3.5696,3.4942,3.4022,3.3747,3.3488,3.2876,3.3605,3.4665,3.5889,3.6273,3.6284,3.5942,3.6365,3.6372,3.5714,3.5654,3.5609,3.5519,3.4861,3.4233,3.3679,3.3021,3.2093,3.0851,3.0806,3.0612,3.0178,3.1285,3.1383,3.0618,3.1159,3.1145,3.0632,3.1174,3.1526,3.1824,0.0,3.1616,3.1498,2.9309,2.8084,2.7359,2.5075,2.4166,2.4042,2.3315,2.4017,2.5159,2.472,2.3941,2.3078,2.3078,2.3464,2.3891,2.4067,2.4757,2.5372,2.4845,2.5485,2.6561,2.7433,2.7787,2.809,2.9004,2.9115,2.8878,2.822,2.7933,2.7591,2.6837,2.6739,2.6671,2.6533,2.6533,2.6483,2.6382,2.6336,2.7155,2.9348,3.0075,3.0663,3.1407,3.1001,3.0612,3.0507,3.0118,2.9411,2.8235,2.8121,2.7354,2.566,2.5563,2.5941,2.6783,2.6709,2.6974,2.7556,2.687,2.6068,2.5245,2.4596,2.3885,3.7053,3.8954,4.061,4.1174,4.1464,4.1142,3.9372,3.8773,3.81,3.649,3.5895,3.5354,3.4406,3.4589,3.4811,3.4867,3.5373,3.5914,3.6094,3.5939,3.5753,3.5673,3.5852,3.5833,3.5534,3.5175,3.4951,3.4951,3.3993,3.3275,3.2976,3.2332,3.1524,3.0537,3.0507,3.0208,2.9594,3.0507,3.0378,2.9261,3.0294,3.044,2.9779,3.0894,3.122,3.1001,0.0,3.1315,3.0798,2.8621,2.7742,2.7506,2.4968,2.418,2.4406,2.4142,2.4343,2.4695,2.4456,2.4042,2.3602,2.3602,2.3979,2.4494,2.4782,2.5008,2.5247,2.5598,2.6076,2.665,2.7157,2.7499,2.792,2.8812,2.862,2.8182,2.7802,2.7351,2.6905,2.6589,2.6533,2.6533,2.6533,2.6533,2.6414,2.6071,2.6868,2.7831,2.8783,3.0075,3.1063,3.1437,3.124,3.1061,3.1061,3.0806,2.9687,2.7428,2.687,2.6238,2.5439,2.5007,2.5315,2.6497,2.6515,2.6669,2.6982,2.6669,2.6122,2.5412,2.4625,2.3875,3.7019,3.8924,4.0619,4.1189,4.1604,4.1499,4.0084,3.9328,3.8502,3.7012,3.6517,3.6068,3.5115,3.5548,3.6325,3.7331,3.7399,3.7254,3.6846,3.5974,3.5468,3.5708,3.5459,3.5265,3.5265,3.4651,3.4358,3.4467,3.3276,3.2616,3.2996,3.1892,3.1027,3.0558,3.0243,2.9759,2.9116,2.9744,2.9551,2.8555,2.9824,3.0132,2.9563,3.0676,3.1053,3.0776,3.13,3.124,3.0574,2.8408,2.7783,2.7933,2.5226,2.4456,2.4858,2.5109,2.477,2.4205,2.433,2.4205,2.4017,2.4155,2.4481,2.4921,2.5435,2.541,2.5322,2.5912,2.6163,2.638,2.6726,2.6987,2.7433,2.8206,2.792,2.7417,2.7417,2.6905,2.6533,2.6533,2.6533,2.6533,2.6533,2.6533,2.6321,2.5859,2.7482,2.8655,2.8449,3.0089,3.136,3.1452,3.1482,3.1482,3.1482,3.136,2.9984,2.7059,2.5914,2.5298,2.5147,2.4794,2.5063,2.6229,2.6229,2.6254,2.625,2.625,2.5847,2.5108,2.4557,2.3859,3.7324,3.9431,4.0928,4.0438,4.0538,4.1051,4.1869,4.0408,3.893,3.9505,3.8921,3.7969,3.6631,3.7018,3.8013,3.9345,3.9029,3.8727,3.9262,3.7631,3.6395,3.6432,3.531,3.4547,3.4547,3.3963,3.3834,3.4472,3.3288,3.3038,3.4371,3.1995,3.0582,3.0603,2.9379,2.8412,2.7775,2.8397,2.8902,2.9275,2.9954,3.0257,3.0257,3.0315,3.0748,3.1407,3.1452,3.1452,3.1289,2.9029,2.8185,2.7974,2.5652,2.4795,2.4946,2.5963,2.5674,2.4833,2.531,2.4833,2.4079,2.4594,2.4795,2.4921,2.5435,2.5937,2.6151,2.5209,2.5285,2.5774,2.64,2.616,2.5921,2.6519,2.6658,2.6589,2.6589,2.6521,2.6533,2.6533,2.6533,2.6533,2.6533,2.6533,2.6452,2.644,2.7364,2.8264,2.8864,2.9885,3.0821,3.1407,3.1482,3.1482,3.1482,3.0821,2.9755,2.8367,2.6931,2.5575,2.4421,2.5007,2.5342,2.5453,2.5453,2.5507,2.5472,2.5472,2.5092,2.4407,2.4343,2.3884,3.6269,3.8751,4.0943,4.0312,4.0686,4.1225,4.1367,4.0645,3.983,3.9339,3.9267,3.8928,3.8004,3.8046,3.8621,3.9624,3.9881,3.9755,3.9188,3.7979,3.6853,3.6027,3.5072,3.4322,3.3903,3.3637,3.3621,3.3877,3.3064,3.2807,3.3325,3.153,3.0318,2.9978,2.9079,2.8263,2.7625,2.8248,2.8672,2.8876,2.9525,2.9835,2.9906,3.0218,3.0374,3.0357,3.118,3.1228,3.0753,2.893,2.8517,2.8788,2.6867,2.6024,2.585,2.59,2.5661,2.5285,2.5159,2.4845,2.4544,2.4757,2.5046,2.5335,2.5536,2.5749,2.5912,2.585,2.5247,2.4732,2.5297,2.5523,2.5737,2.6395,2.6533,2.6533,2.6533,2.6533,2.6533,2.6533,2.6533,2.6533,2.6533,2.6533,2.6533,2.6533,2.7734,2.874,2.8975,3.0232,3.124,3.1452,3.191,3.2158,3.2142,3.1431,3.0304,2.8625,2.7088,2.6033,2.5701,2.5508,2.5618,2.6068,2.6068,2.6065,2.6073,2.6073,2.5723,2.497,2.4503,2.4124,3.5774,3.8045,4.028,4.0073,4.0366,4.0843,4.1393,4.0831,4.0128,3.9629,3.9169,3.8918,3.8947,3.881,3.8951,3.9752,4.0227,4.0139,3.8963,3.7783,3.6631,3.5701,3.4562,3.3679,3.323,3.3215,3.3293,3.3498,3.2944,3.2694,3.2918,3.1182,3.0018,2.9622,2.8763,2.8053,2.7625,2.8248,2.8607,2.8607,2.9056,2.9385,2.9609,3.0223,3.0268,2.9939,3.1046,3.127,3.0708,2.9114,2.8504,2.8353,2.7194,2.6627,2.6483,2.6013,2.5749,2.5573,2.5398,2.4996,2.4619,2.4958,2.5071,2.5159,2.5498,2.5598,2.5674,2.6063,2.536,2.4455,2.4325,2.4775,2.5485,2.605,2.6327,2.6533,2.6533,2.6533,2.6533,2.6533,2.6533,2.6533,2.6533,2.6533,2.6533,2.6533,2.767,2.8616,2.8677,2.9906,3.0908,3.1153,3.1989,3.2484,3.2187,3.1726,3.0831,2.9269,2.7777,2.6777,2.64,2.6201,2.6229,2.65,2.6525,2.6404,2.6176,2.6144,2.5909,2.5378,2.4898,2.4518,3.6161,3.7477,3.8891,3.968,3.9431,3.9659,4.22,4.1103,3.9764,4.07,3.9009,3.7886,3.9454,3.931,3.9186,3.9968,4.0107,3.9803,3.9007,3.6979,3.5577,3.5577,3.3802,3.2512,3.2497,3.2558,3.2895,3.3531,3.2986,3.2882,3.3554,3.1036,2.9607,2.9568,2.8293,2.7625,2.7625,2.8248,2.8592,2.8592,2.8592,2.8936,2.9594,3.0223,3.0492,3.0537,3.124,3.1482,3.1351,2.969,2.8051,2.6533,2.6521,2.6533,2.6533,2.6521,2.6088,2.5686,2.6251,2.5372,2.418,2.5234,2.487,2.4205,2.5259,2.5586,2.5573,2.5457,2.5482,2.5228,2.3547,2.3956,2.4933,2.5473,2.6038,2.6533,2.6533,2.6533,2.6533,2.6533,2.6533,2.6533,2.6533,2.6533,2.6533,2.6533,2.7162,2.7786,2.7989,2.8785,2.9624,3.0436,3.169,3.219,3.1486,3.1404,3.1127,3.0462,2.9218,2.7803,2.6189,2.7063,2.7248,2.6494,2.65,2.6176,2.5398,2.5408,2.5402,2.5394,2.5418,2.504,3.5522,3.7019,3.8762,3.9001,3.9868,4.0773,4.1162,4.0748,4.0226,4.0007,3.8317,3.7312,3.8845,3.8531,3.8561,3.9884,3.9665,3.9227,3.8992,3.7488,3.6023,3.5109,3.3923,3.2658,3.1237,3.2439,3.3185,3.2944,3.3157,3.3176,3.2919,3.0809,2.9372,2.8888,2.8071,2.7625,2.7625,2.7784,2.7874,2.7874,2.7874,2.8233,2.8921,2.9564,2.9864,2.9924,3.1046,3.1482,3.1467,3.097,2.938,2.7417,2.8051,2.7537,2.6483,2.6,2.6,2.6113,2.5523,2.4996,2.4569,2.4494,2.4255,2.4054,2.4381,2.4949,2.5393,2.5071,2.5563,2.5983,2.4816,2.4037,2.3916,2.525,2.6055,2.6688,2.7207,2.6896,2.6658,2.7229,2.6905,2.6533,2.6533,2.6533,2.6533,2.6533,2.7162,2.7967,2.8796,3.0031,3.078,3.0562,3.1374,3.176,3.1401,3.1446,3.1654,3.1973,3.105,2.9671,2.7868,2.768,2.7473,2.7299,2.7269,2.7188,2.6967,2.6946,2.6659,2.615,2.6145,2.5788,3.5569,3.7074,3.8792,3.9217,4.0203,4.0958,4.049,4.0339,4.0114,3.9357,3.8023,3.7389,3.8603,3.8227,3.8237,3.9463,3.9276,3.8886,3.8599,3.7236,3.5907,3.4767,3.3757,3.2431,3.0684,3.1851,3.2624,3.2191,3.231,3.2196,3.179,3.013,2.8891,2.8203,2.7784,2.7625,2.7625,2.7625,2.7625,2.7625,2.7625,2.7784,2.8218,2.916,2.9579,2.9654,3.0971,3.0995,3.0234,3.044,2.9226,2.7393,2.8139,2.7855,2.6989,2.6947,2.6687,2.6242,2.5781,2.4938,2.4142,2.4117,2.3866,2.3616,2.3629,2.4217,2.4785,2.4655,2.5167,2.5673,2.5088,2.4585,2.4471,2.5592,2.5859,2.6101,2.7183,2.7039,2.6906,2.764,2.7393,2.7015,2.7126,2.6799,2.6483,2.6493,2.7275,2.7903,2.8032,2.9637,3.0528,2.9867,3.0529,3.0896,3.0681,3.1105,3.1475,3.1616,3.0971,3.0131,2.9203,2.8408,2.7844,2.7625,2.7625,2.7625,2.7625,2.7625,2.7357,2.693,2.6952,2.6556,3.5973,3.7367,3.8821,3.9842,4.0339,4.0517,4.0182,4.0007,3.9667,3.878,3.8153,3.7949,3.869,3.8248,3.8066,3.8874,3.8886,3.8565,3.7889,3.6534,3.5332,3.4576,3.3324,3.1942,3.0612,3.1163,3.155,3.1486,3.1065,3.0698,3.0509,2.9335,2.8329,2.764,2.7625,2.7625,2.7625,2.7625,2.7625,2.7625,2.7625,2.7625,2.767,2.8906,2.952,2.9639,3.0836,3.0188,2.8355,2.875,2.8094,2.675,2.738,2.7696,2.7789,2.8561,2.774,2.6326,2.6638,2.5198,2.3349,2.3952,2.3664,2.3128,2.3121,2.3555,2.4066,2.4153,2.4544,2.4811,2.4619,2.5308,2.6082,2.6293,2.5627,2.5389,2.6823,2.7047,2.7207,2.7968,2.7904,2.7839,2.7937,2.7129,2.6405,2.6381,2.725,2.7473,2.6274,2.8166,2.9287,2.8487,2.9328,2.9831,2.945,3.0449,3.0808,3.0162,2.9848,2.9808,3.0147,2.9077,2.8203,2.7625,2.7625,2.7625,2.7625,2.7625,2.7625,2.7625,2.7625,2.7196,3.521,3.6486,3.801,3.901,4.004,4.073,4.0203,4.0087,3.9826,3.9005,3.8723,3.8681,3.8864,3.8292,3.8051,3.8857,3.8024,3.7195,3.7043,3.5734,3.4521,3.3815,3.2941,3.1897,3.0561,3.1512,3.1978,3.1434,3.1805,3.1575,3.0555,2.9748,2.8793,2.764,2.7625,2.7625,2.7625,2.7625,2.7625,0.0,2.7625,2.7625,2.7655,2.8427,2.9086,2.9594,2.9879,2.9404,2.8368,2.8512,2.788,2.6889,2.7182,2.749,2.7683,2.7482,2.7522,2.7359,2.5967,2.5101,2.4494,2.3609,2.3251,2.309,2.3092,2.3735,2.4308,2.3577,2.4294,2.5181,2.4696,2.5881,2.7245,2.729,2.6891,2.6813,2.7801,2.7412,2.7262,2.8732,2.8665,2.8078,2.7271,2.6529,2.5845,2.5266,2.6405,2.69,2.5528,2.7797,2.8946,2.7123,2.8136,2.8897,2.8928,2.9227,2.9881,3.1053,3.1094,3.0896,3.0514,2.8789,2.7775,2.7625,2.7625,2.7625,2.7625,2.7625,2.7625,2.7625,2.7625,2.7203,3.4761,3.6505,3.8442,3.9964,4.0619,4.0647,3.9763,3.9546,3.9345,3.8589,3.8394,3.8245,3.7883,3.7521,3.7283,3.7388,3.6738,3.5977,3.5267,3.4472,3.37,3.3011,3.2584,3.1851,3.0465,3.098,3.1116,3.0417,3.0413,3.0141,2.9367,2.8824,2.8196,2.7522,2.7545,2.7625,2.7625,2.7625,2.7625,2.7625,2.7625,2.7625,2.764,2.8278,2.8786,2.9131,2.9445,2.9029,2.8047,2.8277,2.7838,2.7148,2.7561,2.7819,2.8002,2.8181,2.8025,2.7621,2.6574,2.583,2.5056,2.4124,2.4,2.4234,2.4456,2.4731,2.4865,2.434,2.4801,2.5439,2.5483,2.6289,2.7141,2.7518,2.7089,2.6833,2.775,2.7541,2.7499,2.872,2.867,2.8321,2.7931,2.6708,2.5507,2.4558,2.5713,2.6176,2.4905,2.6893,2.8083,2.7086,2.8039,2.8857,2.9146,2.978,3.0243,3.0536,3.0838,3.0754,3.016,2.8819,2.7919,2.7625,2.7625,2.7625,2.7625,2.7625,2.7625,2.7625,2.7625,2.7188,3.4227,3.6589,3.8991,4.086,4.0894,4.0227,3.9177,3.8781,3.8396,3.7669,3.7653,3.7647,3.7051,3.667,3.6306,3.5717,3.5402,3.481,3.3575,3.3288,3.2983,3.2357,3.207,3.1486,3.0385,3.0137,2.9806,2.9194,2.8722,2.8338,2.8089,2.7751,2.7472,2.7211,2.7485,2.7515,2.7445,2.7565,2.7625,2.7625,2.7625,2.7625,2.764,2.8158,2.8427,2.8457,2.8996,2.854,2.7446,2.7674,2.7456,2.6989,2.7541,2.7912,2.8183,2.8971,2.8616,2.7665,2.744,2.6548,2.5481,2.4915,2.5053,2.5495,2.5855,2.5772,2.5563,2.5536,2.5659,2.5946,2.6549,2.6669,2.6826,2.7458,2.6946,2.6576,2.7429,2.7565,2.7696,2.833,2.8301,2.8206,2.8448,2.6904,2.5302,2.4211,2.5184,2.5542,2.4236,2.5795,2.7083,2.7311,2.8226,2.9016,2.962,3.0714,3.0945,2.9999,3.0423,3.0328,2.9653,2.9056,2.8382,2.764,2.7625,2.7625,2.7625,2.7625,2.7625,2.7625,2.7625,2.7203,3.3259,3.5679,3.8164,3.914,3.9141,3.8884,3.8691,3.7837,3.6857,3.6079,3.6949,3.7862,3.7761,3.6666,3.5689,3.5611,3.4539,3.3643,3.344,3.2848,3.2391,3.229,3.1157,3.0306,3.0128,2.9538,2.9138,2.9036,2.8945,2.867,2.8112,2.8136,2.7671,2.6576,2.7243,2.7305,2.6722,2.729,2.7625,2.7625,2.7625,2.7625,2.7625,2.7715,2.7709,2.776,2.785,2.7417,2.663,2.602,2.5611,2.5453,2.5699,2.6453,2.7363,2.7748,2.8106,2.8292,2.7055,2.6515,2.6229,2.5522,2.5315,2.5412,2.5495,2.592,2.6322,2.6087,2.6605,2.7342,2.7408,2.7458,2.7458,2.7575,2.7494,2.7444,2.756,2.7584,2.7616,2.7728,2.7651,2.7409,2.6891,2.6054,2.5177,2.4371,2.497,2.4956,2.3437,2.5063,2.6403,2.6538,2.7669,2.8869,3.0026,3.0447,3.0833,3.121,3.133,3.0821,2.9642,2.9514,2.8861,2.764,2.7625,2.7625,2.7625,2.7625,2.7625,2.7625,2.7625,2.7181,3.3244,3.5066,3.6567,3.7984,3.8238,3.7962,3.7241,3.6684,3.6069,3.5255,3.5636,3.6056,3.5814,3.5223,3.4689,3.4506,3.3744,3.2943,3.2327,3.1728,3.1391,3.1353,3.0224,2.9651,3.0074,2.9431,2.8805,2.8366,2.8332,2.8022,2.7353,2.7421,2.7268,2.6702,2.6838,2.6778,2.6473,2.6462,2.6662,2.7021,2.7395,2.7625,2.761,2.7186,2.7215,2.7625,2.7625,2.7408,2.7086,2.6759,2.6587,2.6531,2.6582,2.6934,2.7461,2.7565,2.7769,2.7927,2.7358,2.71,2.7034,2.6759,2.664,2.664,2.664,2.6864,2.7086,2.696,2.7246,2.7625,2.7625,2.7625,2.7625,2.7625,2.7625,2.7625,2.7625,2.7625,2.7503,2.7053,2.6644,2.6087,2.5384,2.5356,2.5149,2.442,2.4565,2.4567,2.3884,2.4437,2.5435,2.6751,2.7687,2.8956,3.077,3.0989,3.121,3.1452,3.1482,3.1019,2.9988,2.9729,2.9131,2.8173,2.7769,2.7625,2.7625,2.7625,2.7625,2.7625,2.7625,2.6997,3.2667,3.4066,3.4874,3.6177,3.6847,3.6912,3.5759,3.5243,3.4906,3.4518,3.4181,3.3986,3.3878,3.3827,3.3699,3.3333,3.296,3.2402,3.1545,3.1167,3.0889,3.0647,2.9655,2.9127,2.9499,2.8839,2.8163,2.7588,2.7537,2.7283,2.6725,2.6819,2.682,2.6693,2.664,2.6554,2.6377,2.6196,2.6273,2.6602,2.7096,2.7245,2.7051,2.6557,2.6602,2.7066,2.7066,2.726,2.756,2.7214,2.7157,2.7306,2.7306,2.7306,2.7357,2.7524,2.7625,2.7625,2.7625,2.7625,2.7625,2.7625,2.7625,2.7625,2.7625,2.7625,2.7625,2.7625,2.7625,2.7625,2.7625,2.7625,2.7625,2.7625,2.7625,2.7575,2.7357,2.7238,2.7077,2.6587,2.599,2.548,2.5189,2.537,2.5479,2.5174,2.483,2.4509,2.435,2.4115,2.4725,2.6581,2.7483,2.8785,3.0777,3.1155,3.1287,3.1467,3.1482,3.1123,3.0291,2.9864,2.9265,2.8607,2.7919,2.7625,2.7625,2.7625,2.7625,2.7625,2.7625,2.6788,3.0614,3.2224,3.3288,3.2966,3.4255,3.5393,3.4569,3.3443,3.2788,3.3493,3.2862,3.2367,3.3105,3.3141,3.2904,3.2417,3.208,3.1842,3.1773,3.1756,3.1478,3.0786,2.9691,2.8704,2.801,2.7249,2.6793,2.6759,2.6759,2.6742,2.6691,2.6819,2.6644,2.6079,2.6752,2.6887,2.6421,2.7119,2.7171,2.6587,2.6632,2.6318,2.5704,2.5674,2.5674,2.5704,2.5704,2.6422,2.7515,2.6141,2.5986,2.6563,2.6563,2.6563,2.6616,2.7357,2.7625,2.7625,2.7625,2.7625,2.7625,2.7625,2.7625,2.7625,2.7625,2.7625,2.7625,2.7625,2.7625,2.7625,2.7625,2.7625,2.7625,2.7625,2.7625,2.7408,2.6721,2.6366,2.625,2.6462,2.6258,2.6372,2.7287,2.6693,2.6369,2.7308,2.6217,2.5063,2.4408,2.4115,2.4351,2.521,2.6448,2.7841,2.9392,3.0127,3.0836,3.1437,3.1482,3.1168,3.0522,2.9909,2.9265,2.8607,2.7919,2.7625,2.7625,2.7625,2.7625,2.7625,2.7625,2.6823,2.9048,3.0523,3.1844,3.2201,3.2966,3.3569,3.3267,3.2474,3.1836,3.2125,3.2301,3.2402,3.2401,3.2813,3.3173,3.3234,3.2938,3.2535,3.2005,3.1709,3.132,3.0699,2.9211,2.8332,2.8552,2.7435,2.6691,2.6691,2.6691,2.6691,2.6691,2.6757,2.6669,2.6453,2.6102,2.5491,2.4606,2.5318,2.5555,2.533,2.5749,2.5839,2.56,2.5166,2.5211,2.5555,2.4702,2.5076,2.6288,2.5794,2.5692,2.5958,2.6421,2.6583,2.6627,2.736,2.7625,2.7625,2.7625,2.7625,2.7625,2.7625,2.7625,2.7625,2.7625,2.7625,2.7625,2.7625,2.7625,2.7625,2.7625,2.7625,2.7625,2.7625,2.7625,2.7408,2.6669,2.6404,2.6385,2.6467,2.6032,2.5744,2.6148,2.6264,2.6505,2.6841,2.6014,2.5287,2.5063,2.4535,2.4445,2.513,2.6533,2.7953,2.9271,3.0089,3.0806,3.1437,3.1482,3.1362,3.118,3.0522,3.0043,2.9813,2.9214,2.8442,2.7625,2.7137,2.6878,2.6878,2.639,2.566,2.7927,2.9074,3.0212,3.072,3.1656,3.2318,3.1891,3.1586,3.1507,3.1863,3.2145,3.2403,3.2684,3.3186,3.3496,3.3372,3.3273,3.3003,3.248,3.2041,3.1535,3.0939,2.9299,2.8315,2.8569,2.7435,2.6691,2.6691,2.6691,0.0,2.6691,2.6691,2.6691,2.6691,2.5954,2.5178,2.4468,2.4776,2.4806,2.4582,2.4837,2.4822,2.4612,2.4178,2.4208,2.4582,2.3894,2.4358,2.56,2.5375,2.542,2.5659,2.6093,2.6258,2.6318,2.6752,2.7051,2.7245,2.7245,2.738,2.7625,2.7625,2.7625,2.7625,2.7625,2.7625,2.7625,2.7625,2.7625,2.7625,2.7625,2.7625,2.7625,2.7625,2.7625,2.7473,2.6982,2.6672,2.6509,2.6481,2.6054,2.5757,2.6106,2.6529,2.689,2.6872,2.625,2.5783,2.5783,2.5119,2.4713,2.4911,2.6455,2.779,2.8624,2.9829,3.0806,3.1437,3.1482,3.1482,3.1482,3.0857,3.0526,3.0488,2.9933,2.9024,2.7838,2.7142,2.6605,2.6122,2.5618,2.5116,0.0,0.0,0.0,2.8407,3.0243,3.1737,3.0503,3.0834,3.1685,3.2716,3.234,3.2266,3.3869,3.4144,3.3806,3.2741,3.2921,3.3214,3.3214,3.2809,3.2234,3.1537,3.0024,2.874,2.796,2.7199,2.6759,2.6725,2.6725,2.6708,2.6691,2.6691,2.6691,2.6691,2.6374,2.6198,2.6158,2.5785,2.5257,2.4567,2.3894,2.3293,2.2724,2.2694,2.2667,2.2753,2.3295,2.4283,2.545,2.4806,2.4971,2.5555,2.557,2.56,2.5615,2.563,2.6033,2.6587,2.6587,2.7006,2.7595,2.7595,2.761,2.7625,2.7625,2.7625,2.7625,2.7625,2.7625,2.7625,2.7625,2.7625,2.7625,2.7625,2.7625,2.7625,2.7625,2.7045,2.6513,2.6529,2.6308,2.6476,2.7442,2.7568,2.7568,2.7568,2.6968,2.651,2.651,2.5892,2.5119,2.4408,2.6218,2.7454,2.7332,2.9274,3.0806,3.1437,3.1482,3.1482,3.1482,3.0878,3.0537,3.0537,2.9939,2.9212,2.8297,2.7722,2.6761,2.537,2.537,2.5233,2.6419,0.0,0.0,0.0,0.0,0.0,3.0803,3.1086,3.1372,3.1284,3.1555,3.2011,3.2651,3.3063,3.343,3.37,3.3661,3.3522,3.3243,3.3075,3.28,3.2249,3.1045,3.0126,2.9903,2.8952,2.8112,0.0,2.752,2.7266,2.6725,2.6691,2.6539,2.6191,2.6085,2.5886,2.5486,2.5361,2.4786,2.3713,2.3554,2.3198,2.2667,2.2188,2.2218,2.2667,2.2353,2.2443,2.2832,2.358,2.3999,2.4208,2.4702,2.5196,2.5674,2.6138,2.6437,2.6587,2.6587,2.6707,2.6856,2.6856,2.7186,2.7625,2.7625,2.7625,2.7625,2.7625,2.7625,2.7625,2.7625,2.7625,2.7625,2.7625,2.7625,2.7625,2.7625,2.7419,2.7274,2.7291,2.724,2.7269,2.7556,2.7586,2.7586,2.7586,2.6951,2.651,2.651,2.6336,2.5906,2.5175,2.7018,2.8267,2.8111,2.9572,3.0806,3.1437,3.1482,3.1482,3.1482,3.1319,3.1215,3.124,3.1091,3.0075,2.8218,2.7603,2.6583,2.5194,2.4627,2.4368,2.5867,2.6347,2.6809,2.7131,0.0,0.0,2.9818,3.0285,3.0656,3.0593,3.1063,3.1634,3.2109,3.2523,3.2985,3.3608,3.3562,3.3464,3.3439,3.3302,3.3105,3.2809,3.1545,3.0699,3.0699,2.9674,2.8653,2.784,2.7789,2.7503,2.6742,2.6691,2.659,2.6297,2.612,2.5852,2.554,2.5008,2.4277,2.3406,2.2793,2.2294,2.1859,2.1739,2.1754,2.1874,2.2039,2.1949,2.1784,2.2802,2.3206,2.3281,2.3939,2.4433,2.4822,2.5196,2.5525,2.5809,2.6093,2.6525,2.6988,2.6999,2.7444,2.7944,2.7675,2.7625,2.7625,2.7625,2.7625,2.7625,2.7625,2.7625,2.7625,2.7625,2.7625,2.7625,2.7625,2.7625,2.7625,2.7625,2.7625,2.7625,2.7625,2.7625,2.7625,2.7625,2.7255,2.693,2.693,2.693,2.6756,2.6313,2.7925,2.8966,2.8799,3.0127,3.1106,3.1452,3.1482,3.1482,3.1482,3.1482,3.1482,3.1482,3.1482,3.0528,2.854,2.7931,2.6735,2.4919,2.4103,2.3842,2.5236,2.4956,2.4527,2.5912,2.6927,0.0,2.8215,2.8963,2.974,3.0401,3.0732,3.1129,3.1921,3.2255,3.2541,3.2941,3.3045,3.3265,3.3723,3.3494,3.3273,3.3273,3.1912,3.0958,3.089,2.9951,2.8963,2.8129,2.7891,2.752,2.686,2.6742,2.6691,2.6691,2.6297,2.6085,2.6085,2.4944,2.4063,2.3359,2.2092,2.1259,2.0842,2.1276,2.1231,2.0872,2.1904,2.2054,2.1635,2.2293,2.2607,2.2783,2.3355,2.3655,2.3714,2.3714,2.4103,2.4717,2.5332,2.6306,2.7303,2.7406,2.7829,2.8167,2.7625,2.746,2.7415,2.749,2.7565,2.7625,2.7625,2.7625,2.7625,2.7625,2.7625,2.7625,2.7625,2.7625,2.7625,2.7625,2.7625,2.7625,2.7625,2.7625,2.7625,2.7625,2.7625,2.7625,2.7625,2.7625,2.7609,2.7607,2.8838,2.9584,2.9522,3.0761,3.1482,3.1482,3.1482,3.1482,3.1482,3.1482,3.1482,3.1482,3.1409,3.0555,2.8906,2.8367,2.6966,2.4843,2.3863,2.37,2.3774,2.4036,2.4287,2.4689,2.5822,0.0,2.7686,2.8596,2.944,2.9984,3.0171,3.0405,3.1111,3.1617,3.2166,3.2877,3.3346,3.3684,3.3788,3.3734,3.368,3.368,3.3128,3.2577,3.2188,3.1603,3.0827,2.9756,2.8482,2.7722,2.757,2.7029,2.6691,2.6691,2.6624,2.6539,2.6539,2.6336,2.5207,2.3243,2.2971,2.2358,2.147,2.0513,2.0602,2.1455,2.0632,2.0513,2.0961,2.162,2.2203,2.2783,2.3355,2.3939,2.4373,2.4373,2.4462,2.4687,2.5223,2.5608,2.5911,2.6472,2.6733,2.6795,2.6811,2.6408,2.6093,2.6632,2.7156,2.7625,2.7625,2.7625,2.7625,2.7625,2.7625,2.7625,2.7625,2.7625,2.7625,2.7625,2.7625,2.7625,2.7625,2.7625,2.7625,2.7625,2.7625,2.7625,2.7625,2.7625,2.7778,2.8345,2.9122,2.9804,3.0246,3.1034,3.1482,3.1482,3.1482,3.1482,3.1482,3.1482,3.1482,3.1482,3.0837,2.9829,2.8332,2.7539,2.6556,2.5448,2.4486,2.4056,2.2956,2.3173,2.3095,2.3763,2.4694,0.0,0.0,2.727,2.8045,2.8793,2.9043,2.9405,3.0318,3.0809,3.1477,3.2799,3.2882,3.305,3.3723,3.3807,3.3807,3.3807,3.3447,3.3124,3.2872,3.223,3.133,3.0197,2.8687,2.7789,2.7789,2.7097,2.6691,2.6691,2.6691,2.6691,2.6691,2.6067,2.5073,2.367,2.3032,2.239,2.168,2.0991,2.0872,2.1186,2.0842,2.0707,2.0797,2.1784,2.2383,2.2783,2.3355,2.3804,2.4118,2.4118,2.4118,2.4207,2.4788,2.5358,2.589,2.5983,2.6377,2.6776,2.6257,2.5869,2.5749,2.6408,2.6826,2.7156,2.7535,2.7625,2.7625,2.7625,2.7625,2.7625,2.7625,2.7625,2.7625,2.7625,2.7625,2.7625,2.7625,2.7625,2.7625,2.7625,2.7625,2.7625,2.7625,2.7625,2.7964,2.8981,2.9385,2.9953,3.0938,3.1315,3.1482,3.1482,3.1482,3.1482,3.1482,3.1482,3.1482,3.1482,3.1087,3.0364,2.9238,2.8359,2.6997,2.5209,2.4165,2.3555,2.2156,2.2215,2.1768,2.2808,2.352,2.4178,0.0,0.0,0.0,2.7304,2.7692,2.8201,2.925,2.9892,3.0729,3.213,3.2186,3.241,3.343,3.3697,3.3862,3.4009,3.334,3.3002,3.3394,3.2645,3.1597,3.0313,2.9068,2.8218,2.7841,2.7097,2.6691,2.6691,2.6691,2.6691,2.6691,2.568,2.4849,2.42,2.3164,2.2401,2.1874,2.1754,2.1485,2.1111,2.138,2.1276,2.0991,2.2054,2.2562,2.2783,2.3355,2.3595,2.3595,2.3595,2.3595,2.367,2.4312,2.5157,2.5916,2.5665,2.6132,2.6565,2.5546,2.5315,2.554,2.6063,2.6393,2.6707,2.7295,2.757,2.776,2.7625,2.766,2.776,2.7625,2.7625,2.7625,2.7625,2.7625,2.7625,2.7625,2.7625,2.7625,2.7625,2.7625,2.7625,2.7625,2.7625,2.8038,2.9265,2.9505,3.0073,3.117,3.1422,3.1482,3.1482,3.1482,3.1422,3.1345,3.1345,3.1405,3.1482,3.1482,3.1028,3.0141,2.926,2.7588,2.5165,2.4111,2.321,2.0601,2.091,2.0976,2.1714,2.2208,2.2747,2.3459,0.0,2.4693,2.5806,0.0,2.6847,2.7352,0.0,0.0,2.9998,3.1701,3.2964,3.2763,3.3348,3.4064,3.477,3.2936,3.2301,3.4093,3.3779,3.2703,3.0785,3.0508,2.9679,2.7892,2.7097,2.6691,2.6691,2.6691,2.6691,2.6691,2.6573,2.571,2.42,2.4047,2.3505,2.2589,2.1964,2.1979,2.2398,2.1306,2.1111,2.1605,2.1739,2.2143,2.2783,2.3355,2.3595,2.3595,2.3595,2.3595,2.3696,2.425,2.4513,2.4704,2.525,2.5192,2.4791,2.4058,2.4253,2.4701,2.4837,2.5689,2.6602,2.6677,2.7552,2.8286,2.771,2.7993,2.8238,2.7725,2.7625,2.7625,2.7625,2.7625,2.7625,2.7625,2.7625,2.7625,2.7625,2.7625,2.7625,2.7625,2.7625,2.791,2.8622,2.9235,2.9814,3.0336,3.104,3.1482,3.1482,3.1482,3.1255,3.0642,3.0612,3.0911,3.1467,3.1482,3.085,2.9507,2.8675,2.7699,2.6607,2.5379,2.4519,1.9909,2.0463,2.0782,2.1051,2.1838,2.2589,2.2786,2.3592,2.4507,2.5298,0.0,0.0,0.0,0.0,0.0,0.0,3.166,3.2697,3.3221,3.2779,3.2871,3.4156,3.3825,3.3561,3.3695,3.2848,3.1648,3.011,2.985,2.9175,2.7875,2.7097,2.6691,2.6691,2.6691,2.6691,2.6691,2.6436,2.5796,2.4772,2.4467,2.3931,2.3191,2.2562,2.2413,2.2679,2.2084,2.2009,2.2293,2.2652,2.2966,2.3236,2.349,2.3595,2.3595,2.3595,2.3595,2.3638,2.3879,2.4158,2.4436,2.4746,2.4475,2.3984,2.3684,2.3804,2.4147,2.4891,2.5802,2.6704,2.741,2.8293,2.895,2.8717,2.881,2.8873,2.8271,2.814,2.7993,2.7675,2.7625,2.7625,2.7625,2.7625,2.7625,2.7625,2.7625,2.7625,2.7625,2.7625,2.7844,2.8532,2.919,2.965,2.9832,3.0503,3.0881,3.072,3.1198,3.1347,3.1106,3.1106,3.124,3.1467,3.1482,3.1202,3.0601,2.9586,2.8706,2.7871,2.5817,2.4493,1.9352,2.0015,2.0438,2.0438,2.1292,2.2111,2.197,2.2728,2.3572,2.412,2.4383,0.0,0.0,0.0,2.8571,2.9782,0.0,3.1595,3.252,3.2122,3.232,3.3954,3.4651,3.4485,3.3172,3.2486,3.1473,2.9841,2.9592,2.9002,2.7875,2.73,2.6996,2.6996,2.6996,2.6894,2.6691,2.6367,2.5924,2.5411,2.4871,2.4348,2.3779,2.3215,2.2936,2.2906,2.2562,2.2544,2.2739,2.2966,2.3191,2.3355,2.3691,2.3709,2.3595,2.3595,2.3595,2.3595,2.3595,2.3837,2.4184,2.4184,2.3921,2.3595,2.3595,2.3595,2.3859,2.5072,2.5967,2.6767,2.8013,2.8994,2.9585,2.9451,2.954,2.9496,2.8873,2.8732,2.8559,2.7944,2.786,2.781,2.7625,2.7625,2.7625,2.7625,2.7625,2.7625,2.7625,2.7625,2.7769,2.8263,2.9071,2.9525,2.9416,2.9818,3.0086,3.0197,3.0795,3.1243,3.1467,3.1258,3.1258,3.1482,3.1482,3.1482,3.1482,3.0383,2.9511,2.8969,2.6438,2.4803,1.8793,1.9325,1.972,1.972,2.024,2.0752,2.0779,2.0896,2.1139,2.1685,2.2271,2.2844,2.3413,2.5092,2.6444,2.6607,2.825,0.0,0.0,3.1362,3.3164,3.4752,3.4972,3.4367,3.2771,3.3644,3.3176,3.0467,3.055,2.9903,2.7892,2.7772,2.7755,2.7755,2.7755,2.7435,2.6708,2.6691,2.6436,2.5961,2.5411,2.4894,2.4348,2.3822,2.3565,2.3505,2.2263,2.2084,2.2664,2.2009,2.2128,2.284,2.3953,2.4074,2.3595,2.3595,2.3595,2.3595,2.3595,2.3595,2.3638,2.3638,2.3595,2.3595,2.3595,2.3595,2.3859,2.5141,2.5994,2.6795,2.8083,2.9339,3.0123,2.954,2.9865,3.0123,2.9496,2.9361,2.918,2.8606,2.8463,2.8286,2.771,2.7625,2.7625,2.7625,2.7625,2.7625,2.7625,2.7625,2.7625,2.7655,2.8786,2.9439,2.8967,2.8916,2.9307,3.0131,3.0246,3.0604,3.1452,3.0663,3.0619,3.1452,3.1482,3.1482,3.1482,3.0375,2.9789,2.97,2.7456,2.6013,0.0,0.0,1.9244,1.9603,0.0,2.0681,2.0681,2.0795,2.0945,2.1125,2.1672,2.2186,2.2369,2.4234,2.599,2.6737,2.8096,2.9381,0.0,3.1709,3.3018,3.4082,3.3752,3.3421,3.3403,3.1888,3.0499,2.958,2.9086,2.8526,2.7858,2.8298,2.8586,2.8586,2.8095,2.7689,2.7435,2.6945,2.647,2.6013,2.5815,2.5259,2.4389,2.4184,2.3736,2.2966,2.2532,2.2218,2.2049,2.2093,2.2539,2.3231,2.392,2.4398,2.4632,2.4266,2.3906,2.3595,2.3595,2.3595,2.3595,2.3595,2.3837,2.4234,2.4694,2.5113,2.5652,2.6937,2.781,2.8509,2.9317,3.0206,3.0838,3.0658,3.074,3.074,3.0123,2.9995,2.9805,2.9225,2.8779,2.8431,2.8238,2.786,2.7625,2.7625,2.7625,2.7625,2.7625,2.7625,2.7408,2.693,2.7977,2.832,2.72,2.8225,2.9347,3.0321,3.081,3.1198,3.1467,3.1213,3.1198,3.1467,3.1482,3.1749,3.2183,3.1915,3.1239,3.0106,2.8381,2.7212,1.7706,1.8341,0.0,1.9332,1.988,0.0,2.0089,2.0117,2.0191,2.0191,2.0897,2.154,2.1489,2.2966,2.457,2.5567,2.6545,2.8032,0.0,3.1529,3.2392,3.3451,3.3268,3.2947,3.2793,3.129,2.9809,2.8594,2.8578,2.8518,2.8247,0.0,2.9381,2.9381,2.8907,2.833,2.7789,2.7334,2.6808,2.6262,2.6085,2.5652,2.495,2.4776,2.4033,2.295,2.2707,2.2254,2.1719,2.1881,2.2508,2.3445,2.4106,2.4724,2.5144,2.4816,2.4348,2.3879,2.3681,2.3595,2.3638,2.3837,2.4284,2.4922,2.5566,2.6211,2.6969,2.8221,2.894,2.949,3.0297,3.0835,3.119,3.119,3.119,3.1095,3.0699,3.0617,3.0435,2.9848,2.9225,2.8732,2.8559,2.7993,2.7625,2.7625,2.7625,2.7625,2.7625,2.7625,2.7408,2.693,2.7744,2.7897,2.69,2.8175,2.9348,3.0026,3.0979,3.1482,3.1482,3.1482,3.1586,3.1884,3.1884,3.2183,3.2841,3.3173,3.2457,3.0893,2.96,2.856]}]]